[[{"header":{"parameterUnit":"m.s-1","parameterCategory":1,"la1":30.6,"la2":28.766,"lo1":-90.7593,"lo2":-88.6598,"dy":0.0162,"dx":0.0183,"nx":116,"ny":114,"refTime":"2024-03-13T18:00:00:Z","depth":0,"parameterNumber":2,"parameterNumberName":"U-component_of_WINDS"},"data":[0.0,0.0,0.0,0.0,0.0,0.0,0.0,0.0,0.0,0.0,0.0,0.0,0.0,0.0,0.0,0.0,0.0,0.0,0.0,0.0,0.0,0.0,0.0,0.0,0.0,0.0,0.0,0.0,0.0,0.0,0.0,0.0,0.0,0.0,0.0,0.0,0.0,0.0,0.0,0.0,0.0,0.0,0.0,0.0,0.0,0.0,0.0,0.0,0.0,0.0,0.0,0.0,0.0,0.0,0.0,0.0,0.0,0.0,0.0,0.0,0.0,0.0,0.0,0.0,0.0,0.0,0.0,0.0,0.0,0.0,0.0,0.0,0.0,0.0,0.0,0.0,0.0,0.0,0.0,0.0,0.0,0.0,0.0,0.0,0.0,0.0,0.0,0.0,0.0,0.0,0.0,0.0,0.0,0.0,0.0,0.0,0.0,0.0,0.0,0.0,0.0,0.0,0.0,0.0,0.0,0.0,0.0,0.0,0.0,0.0,0.0,0.0,0.0,0.0,0.0,0.0,0.0,0.0,0.0,0.0,0.0,0.0,0.0,0.0,0.0,0.0,0.0,0.0,0.0,0.0,0.0,0.0,0.0,0.0,0.0,0.0,0.0,0.0,0.0,0.0,0.0,0.0,0.0,0.0,0.0,0.0,0.0,0.0,0.0,0.0,0.0,0.0,0.0,0.0,0.0,0.0,0.0,0.0,0.0,0.0,0.0,0.0,0.0,0.0,0.0,0.0,0.0,0.0,0.0,0.0,0.0,0.0,0.0,0.0,0.0,0.0,0.0,0.0,0.0,0.0,0.0,0.0,0.0,0.0,0.0,0.0,0.0,0.0,0.0,0.0,0.0,0.0,0.0,0.0,0.0,0.0,0.0,0.0,0.0,0.0,0.0,0.0,0.0,0.0,0.0,0.0,0.0,0.0,0.0,0.0,0.0,0.0,0.0,0.0,0.0,0.0,0.0,0.0,0.0,0.0,0.0,0.0,0.0,0.0,0.0,0.0,0.0,0.0,0.0,0.0,0.0,0.0,0.0,0.0,0.0,0.0,0.0,0.0,0.0,0.0,0.0,0.0,0.0,0.0,0.0,0.0,0.0,0.0,0.0,0.0,0.0,0.0,0.0,0.0,0.0,0.0,0.0,0.0,0.0,0.0,0.0,0.0,0.0,0.0,0.0,0.0,0.0,0.0,0.0,0.0,0.0,0.0,0.0,0.0,0.0,0.0,0.0,0.0,0.0,0.0,0.0,0.0,0.0,0.0,0.0,0.0,0.0,0.0,0.0,0.0,0.0,0.0,0.0,0.0,0.0,0.0,0.0,0.0,0.0,0.0,0.0,0.0,0.0,0.0,0.0,0.0,0.0,0.0,0.0,0.0,0.0,0.0,0.0,0.0,0.0,0.0,0.0,0.0,0.0,0.0,0.0,0.0,0.0,0.0,0.0,0.0,0.0,0.0,0.0,0.0,0.0,0.0,0.0,0.0,0.0,0.0,0.0,0.0,0.0,0.0,0.0,0.0,0.0,0.0,0.0,0.0,0.0,0.0,0.0,0.0,0.0,0.0,0.0,0.0,0.0,0.0,0.0,0.0,0.0,0.0,0.0,0.0,0.0,0.0,0.0,0.0,0.0,0.0,0.0,0.0,0.0,0.0,0.0,0.0,0.0,0.0,0.0,0.0,0.0,0.0,0.0,0.0,0.0,0.0,0.0,0.0,0.0,0.0,0.0,0.0,0.0,0.0,0.0,0.0,0.0,0.0,0.0,0.0,0.0,0.0,0.0,0.0,0.0,0.0,0.0,0.0,0.0,0.0,0.0,0.0,0.0,0.0,0.0,0.0,0.0,0.0,0.0,0.0,0.0,0.0,0.0,0.0,0.0,0.0,0.0,0.0,0.0,0.0,0.0,0.0,0.0,0.0,0.0,0.0,0.0,0.0,0.0,0.0,0.0,0.0,0.0,0.0,0.0,0.0,0.0,0.0,0.0,0.0,0.0,0.0,0.0,0.0,0.0,0.0,0.0,0.0,0.0,0.0,0.0,0.0,0.0,0.0,0.0,0.0,0.0,0.0,0.0,0.0,0.0,0.0,0.0,0.0,0.0,0.0,0.0,0.0,0.0,0.0,0.0,0.0,0.0,0.0,0.0,0.0,0.0,0.0,0.0,0.0,0.0,0.0,0.0,0.0,0.0,0.0,0.0,0.0,0.0,0.0,0.0,0.0,0.0,0.0,0.0,0.0,0.0,0.0,0.0,0.0,0.0,0.0,0.0,0.0,0.0,0.0,0.0,0.0,0.0,0.0,0.0,0.0,0.0,0.0,0.0,0.0,0.0,0.0,0.0,0.0,0.0,0.0,0.0,0.0,0.0,0.0,0.0,0.0,0.0,0.0,0.0,0.0,0.0,0.0,0.0,0.0,0.0,0.0,0.0,0.0,0.0,0.0,0.0,0.0,0.0,0.0,0.0,0.0,0.0,0.0,0.0,0.0,0.0,0.0,0.0,0.0,0.0,0.0,0.0,0.0,0.0,0.0,0.0,0.0,0.0,0.0,0.0,0.0,0.0,0.0,0.0,0.0,0.0,0.0,0.0,0.0,0.0,0.0,0.0,0.0,0.0,0.0,0.0,0.0,0.0,0.0,0.0,0.0,0.0,0.0,0.0,0.0,0.0,0.0,0.0,0.0,0.0,0.0,0.0,0.0,0.0,0.0,0.0,0.0,0.0,0.0,0.0,0.0,0.0,0.0,0.0,0.0,0.0,0.0,0.0,0.0,0.0,0.0,0.0,0.0,0.0,0.0,0.0,0.0,0.0,0.0,0.0,0.0,0.0,0.0,0.0,0.0,0.0,0.0,0.0,0.0,0.0,0.0,0.0,0.0,0.0,0.0,0.0,0.0,0.0,0.0,0.0,0.0,0.0,0.0,0.0,0.0,0.0,0.0,0.0,0.0,0.0,0.0,0.0,0.0,0.0,0.0,0.0,0.0,0.0,0.0,0.0,0.0,0.0,0.0,0.0,0.0,0.0,0.0,0.0,0.0,0.0,0.0,0.0,0.0,0.0,0.0,0.0,0.0,0.0,0.0,0.0,0.0,0.0,0.0,0.0,0.0,0.0,0.0,0.0,0.0,0.0,0.0,0.0,0.0,0.0,0.0,0.0,0.0,0.0,0.0,0.0,0.0,0.0,0.0,0.0,0.0,0.0,0.0,0.0,0.0,0.0,0.0,0.0,0.0,0.0,0.0,0.0,0.0,0.0,0.0,0.0,0.0,0.0,0.0,0.0,0.0,0.0,0.0,0.0,0.0,0.0,0.0,0.0,0.0,0.0,0.0,0.0,0.0,0.0,0.0,0.0,0.0,0.0,0.0,0.0,0.0,0.0,0.0,0.0,0.0,0.0,0.0,0.0,0.0,0.0,0.0,0.0,0.0,0.0,0.0,0.0,0.0,0.0,0.0,0.0,0.0,0.0,0.0,0.0,0.0,0.0,0.0,0.0,0.0,0.0,0.0,0.0,0.0,0.0,0.0,0.0,0.0,0.0,0.0,0.0,0.0,0.0,0.0,0.0,0.0,0.0,0.0,0.0,0.0,0.0,0.0,0.0,0.0,0.0,0.0,0.0,0.0,0.0,0.0,0.0,0.0,0.0,0.0,0.0,0.0,0.0,0.0,0.0,0.0,0.0,0.0,0.0,0.0,0.0,0.0,0.0,0.0,0.0,0.0,0.0,0.0,0.0,0.0,0.0,0.0,0.0,0.0,0.0,0.0,0.0,0.0,0.0,0.0,0.0,0.0,0.0,0.0,0.0,0.0,0.0,0.0,0.0,0.0,0.0,0.0,0.0,0.0,0.0,0.0,0.0,0.0,0.0,0.0,0.0,0.0,0.0,0.0,0.0,0.0,0.0,0.0,0.0,0.0,0.0,0.0,0.0,0.0,0.0,0.0,0.0,0.0,0.0,0.0,0.0,0.0,0.0,0.0,0.0,0.0,0.0,0.0,0.0,0.0,0.0,0.0,0.0,0.0,0.0,0.0,0.0,0.0,0.0,0.0,0.0,0.0,0.0,0.0,0.0,0.0,0.0,0.0,0.0,0.0,0.0,0.0,0.0,0.0,0.0,0.0,0.0,0.0,0.0,0.0,0.0,0.0,0.0,0.0,0.0,0.0,0.0,0.0,0.0,0.0,0.0,0.0,0.0,0.0,0.0,0.0,0.0,0.0,0.0,0.0,0.0,0.0,0.0,0.0,0.0,0.0,0.0,0.0,0.0,0.0,0.0,0.0,0.0,0.0,0.0,0.0,0.0,0.0,0.0,0.0,0.0,0.0,0.0,0.0,0.0,0.0,0.0,0.0,0.0,0.0,0.0,0.0,0.0,0.0,0.0,0.0,0.0,0.0,0.0,0.0,0.0,0.0,0.0,0.0,0.0,0.0,0.0,0.0,0.0,0.0,0.0,0.0,0.0,0.0,0.0,0.0,0.0,0.0,0.0,0.0,0.0,0.0,0.0,0.0,0.0,0.0,0.0,0.0,0.0,0.0,0.0,0.0,0.0,0.0,0.0,0.0,0.0,0.0,0.0,0.0,0.0,0.0,0.0,0.0,0.0,0.0,0.0,0.0,0.0,0.0,0.0,0.0,0.0,0.0,0.0,0.0,0.0,0.0,0.0,0.0,0.0,0.0,0.0,0.0,0.0,0.0,0.0,0.0,0.0,0.0,0.0,0.0,0.0,0.0,0.0,0.0,0.0,0.0,0.0,0.0,0.0,0.0,0.0,0.0,0.0,0.0,0.0,0.0,0.0,0.0,0.0,0.0,0.0,0.0,0.0,0.0,0.0,0.0,0.0,0.0,0.0,0.0,0.0,0.0,0.0,0.0,0.0,0.0,0.0,0.0,0.0,0.0,0.0,0.0,0.0,0.0,0.0,0.0,0.0,0.0,0.0,0.0,0.0,0.0,0.0,0.0,0.0,0.0,0.0,0.0,0.0,0.0,0.0,0.0,0.0,0.0,0.0,0.0,0.0,0.0,0.0,0.0,0.0,0.0,0.0,0.0,0.0,0.0,0.0,0.0,0.0,0.0,0.0,0.0,0.0,0.0,0.0,0.0,0.0,0.0,0.0,0.0,0.0,0.0,0.0,0.0,0.0,0.0,0.0,0.0,0.0,0.0,0.0,0.0,0.0,0.0,0.0,0.0,0.0,0.0,0.0,0.0,0.0,0.0,0.0,0.0,0.0,0.0,0.0,0.0,0.0,0.0,0.0,0.0,0.0,0.0,0.0,0.0,0.0,0.0,0.0,0.0,0.0,0.0,0.0,0.0,0.0,0.0,0.0,0.0,0.0,0.0,0.0,0.0,0.0,0.0,0.0,0.0,0.0,0.0,0.0,0.0,0.0,0.0,0.0,0.0,0.0,0.0,0.0,0.0,0.0,0.0,0.0,0.0,0.0,0.0,0.0,0.0,0.0,0.0,0.0,0.0,0.0,0.0,0.0,0.0,0.0,0.0,0.0,0.0,0.0,0.0,0.0,0.0,0.0,0.0,0.0,0.0,0.0,0.0,0.0,0.0,0.0,0.0,0.0,0.0,0.0,0.0,0.0,0.0,0.0,0.0,0.0,0.0,0.0,0.0,0.0,0.0,0.0,0.0,0.0,0.0,0.0,0.0,0.0,0.0,0.0,0.0,0.0,0.0,0.0,0.0,0.0,0.0,0.0,0.0,0.0,0.0,0.0,0.0,0.0,0.0,0.0,0.0,0.0,0.0,0.0,0.0,0.0,0.0,0.0,0.0,0.0,0.0,0.0,0.0,0.0,0.0,0.0,0.0,0.0,0.0,0.0,0.0,0.0,0.0,0.0,0.0,0.0,0.0,0.0,0.0,0.0,0.0,0.0,0.0,0.0,0.0,0.0,0.0,0.0,0.0,0.0,0.0,0.0,0.0,0.0,0.0,0.0,0.0,0.0,0.0,0.0,0.0,0.0,0.0,0.0,0.0,0.0,0.0,0.0,0.0,0.0,0.0,0.0,0.0,0.0,0.0,0.0,0.0,0.0,0.0,0.0,0.0,0.0,0.0,0.0,0.0,0.0,0.0,0.0,0.0,0.0,0.0,0.0,0.0,0.0,0.0,-3.805,-3.7154,0.0,0.0,0.0,0.0,0.0,0.0,0.0,0.0,0.0,0.0,0.0,0.0,0.0,0.0,0.0,0.0,0.0,0.0,0.0,0.0,0.0,0.0,0.0,0.0,0.0,0.0,-3.9804,-3.9412,-3.8542,-3.8112,-3.7873,-3.7861,-3.7026,-3.6586,-3.6586,-3.6136,-3.6123,-3.6512,-3.6512,-3.7175,-3.8422,-3.7993,-3.7564,-3.7136,0.0,0.0,0.0,0.0,0.0,0.0,0.0,0.0,0.0,0.0,0.0,0.0,0.0,0.0,0.0,0.0,0.0,0.0,0.0,0.0,0.0,0.0,0.0,0.0,0.0,0.0,0.0,0.0,0.0,0.0,0.0,0.0,0.0,0.0,0.0,0.0,0.0,0.0,0.0,0.0,0.0,0.0,0.0,0.0,0.0,0.0,0.0,0.0,0.0,0.0,0.0,0.0,0.0,0.0,0.0,0.0,0.0,0.0,0.0,0.0,0.0,0.0,0.0,0.0,0.0,0.0,0.0,0.0,0.0,0.0,-3.9528,-3.8466,0.0,0.0,0.0,0.0,0.0,0.0,0.0,0.0,0.0,0.0,0.0,0.0,0.0,0.0,0.0,0.0,0.0,0.0,0.0,0.0,0.0,0.0,0.0,-4.1093,-4.0737,-3.9877,-3.9797,-3.936,-3.836,-3.7617,-3.7136,-3.6983,-3.6279,-3.5889,-3.5889,-3.5889,-3.6317,-3.7214,-3.7642,-3.8617,-4.0019,-4.0331,-4.0097,-3.9396,-3.9084,0.0,0.0,0.0,0.0,0.0,0.0,0.0,0.0,0.0,0.0,0.0,0.0,0.0,0.0,0.0,0.0,0.0,0.0,0.0,0.0,0.0,0.0,0.0,0.0,0.0,0.0,0.0,0.0,0.0,0.0,0.0,0.0,0.0,0.0,0.0,0.0,0.0,0.0,0.0,0.0,0.0,0.0,0.0,0.0,0.0,0.0,0.0,0.0,0.0,0.0,0.0,0.0,0.0,0.0,0.0,0.0,0.0,0.0,0.0,0.0,0.0,0.0,0.0,-4.1265,-4.1653,-4.1378,-4.2254,-4.2991,-4.3488,-4.1543,-4.0478,-3.9989,-3.8952,0.0,0.0,0.0,0.0,0.0,0.0,0.0,0.0,0.0,0.0,0.0,0.0,0.0,0.0,0.0,0.0,0.0,0.0,0.0,0.0,0.0,-4.1093,-4.0737,-3.9865,-3.9818,-3.9097,-3.7461,-3.7264,-3.6871,-3.6084,-3.5967,-3.5889,-3.5889,-3.5889,-3.6317,-3.7214,-3.9474,-4.0718,-4.0951,-4.2432,-4.3056,-4.2861,-4.1419,-4.1146,-4.1653,0.0,0.0,0.0,0.0,0.0,0.0,0.0,0.0,0.0,0.0,0.0,0.0,0.0,0.0,0.0,0.0,0.0,0.0,0.0,0.0,0.0,0.0,0.0,0.0,0.0,0.0,0.0,0.0,0.0,0.0,0.0,0.0,0.0,0.0,0.0,0.0,0.0,0.0,0.0,0.0,0.0,-4.1037,-4.1037,0.0,0.0,0.0,0.0,0.0,0.0,0.0,0.0,0.0,0.0,0.0,0.0,0.0,-4.0402,-4.039,-4.2602,-4.339,-4.2752,-4.4993,-4.5331,-4.3929,-4.4806,-4.5221,-4.5163,-4.4856,0.0,-4.2209,-4.0188,0.0,0.0,0.0,0.0,0.0,0.0,0.0,0.0,0.0,0.0,0.0,0.0,0.0,0.0,0.0,0.0,0.0,0.0,0.0,0.0,0.0,-4.1815,-4.1874,-4.193,-4.1493,-4.0702,-3.9474,-3.8461,-3.7525,-3.6668,-3.6162,-3.5889,-3.5889,-3.6395,-3.7525,-3.9396,-4.1497,-4.2747,-4.3254,-4.3994,-4.4851,-4.5744,-4.4982,-4.4036,-4.2903,-4.1734,0.0,0.0,0.0,0.0,0.0,0.0,0.0,0.0,0.0,0.0,0.0,0.0,0.0,0.0,0.0,0.0,0.0,0.0,0.0,0.0,0.0,0.0,0.0,0.0,0.0,0.0,0.0,0.0,0.0,0.0,0.0,0.0,0.0,0.0,0.0,0.0,0.0,0.0,0.0,-4.1037,-4.1507,-4.0465,-4.1172,-4.1024,0.0,0.0,0.0,0.0,0.0,0.0,0.0,0.0,0.0,-4.0873,-4.1861,-4.2575,-4.2996,-4.4727,-4.5401,-4.5065,-4.6162,-4.6196,-4.5329,-4.5898,-4.6141,-4.6136,-4.5887,-4.5397,-4.4565,-4.2152,-4.0518,-3.9438,0.0,0.0,0.0,0.0,-3.8196,-3.8251,0.0,0.0,0.0,0.0,0.0,0.0,0.0,0.0,0.0,0.0,0.0,0.0,-4.2357,-4.2793,-4.3195,-4.3569,-4.302,-4.2198,-4.1185,-3.9669,-3.8344,-3.7253,-3.6356,-3.6006,-3.624,-3.7525,-3.9162,-4.1107,-4.3017,-4.4267,-4.4894,-4.5361,-4.6251,-4.7486,-4.7644,-4.6536,-4.447,-4.3981,-4.2576,-4.0477,0.0,0.0,0.0,0.0,0.0,0.0,0.0,0.0,0.0,0.0,0.0,0.0,0.0,0.0,0.0,0.0,0.0,0.0,0.0,0.0,0.0,0.0,0.0,0.0,0.0,0.0,0.0,0.0,0.0,0.0,0.0,0.0,0.0,0.0,0.0,0.0,0.0,-4.1484,-4.2004,-4.0198,-4.1644,-4.1757,0.0,0.0,0.0,0.0,0.0,0.0,-4.21,-4.2057,-4.2468,-4.3469,-4.4613,-4.5419,-4.5902,-4.6946,-4.7348,-4.7181,-4.7348,-4.7131,-4.6526,-4.6964,-4.7132,-4.7007,-4.6671,-4.6445,-4.6214,-4.3852,-4.2106,-4.0833,-3.9899,-3.9361,-3.9201,-3.9782,-3.9856,-3.9767,0.0,0.0,0.0,0.0,0.0,0.0,0.0,0.0,0.0,0.0,0.0,-4.3196,-4.2463,-4.3838,-4.4445,-4.3665,-4.3572,-4.2822,-4.1224,-4.0253,-3.8967,-3.7253,-3.6356,-3.6279,-3.7136,-3.963,-4.0951,-4.1107,-4.3604,-4.4855,-4.4933,-4.6608,-4.7361,-4.7436,-4.8248,-4.8097,-4.7081,-4.5382,-4.4089,-4.292,-3.9596,0.0,0.0,0.0,0.0,0.0,0.0,0.0,0.0,0.0,0.0,0.0,0.0,0.0,0.0,0.0,0.0,0.0,0.0,0.0,0.0,0.0,0.0,0.0,0.0,0.0,0.0,0.0,0.0,0.0,0.0,0.0,0.0,0.0,0.0,0.0,0.0,0.0,0.0,-4.0942,-4.2895,0.0,0.0,0.0,0.0,-4.0082,-4.1029,-4.2359,-4.3998,-4.5828,-4.7094,-4.7583,-4.8725,-4.9184,-4.8878,-4.9721,-4.9742,-4.896,-4.9742,-4.9341,-4.7902,-4.8632,-4.8596,-4.7919,-4.7902,-4.7445,-4.6567,-4.4891,-4.3992,-4.3615,-4.3067,-4.225,-4.1339,-4.1375,-4.0738,-3.9899,0.0,0.0,0.0,0.0,0.0,0.0,0.0,0.0,-4.1019,-4.1054,-4.2108,-4.3111,-4.3934,-4.505,-4.605,-4.6888,-4.6414,-4.5631,-4.4462,-4.2046,-4.037,-3.9747,-3.7798,-3.7681,-3.9669,-4.1146,-4.2435,-4.3565,-4.5011,-4.6024,-4.6566,-4.709,-4.7854,-4.8905,-4.9037,-4.8918,-4.8562,-4.7572,-4.587,-4.3734,-4.2595,-4.0453,0.0,0.0,0.0,0.0,0.0,0.0,0.0,0.0,0.0,0.0,0.0,0.0,0.0,0.0,0.0,0.0,0.0,0.0,0.0,0.0,0.0,0.0,0.0,0.0,0.0,0.0,0.0,0.0,0.0,0.0,0.0,0.0,0.0,0.0,0.0,0.0,0.0,-4.3119,-4.5444,0.0,-4.3632,-4.3456,-4.3523,-4.3577,-4.4381,-4.5517,-4.6949,-4.7705,-4.8308,-4.8807,-4.9416,-4.9669,-4.9539,-5.0046,-5.0153,-4.9883,-5.0153,-4.9901,-4.9148,-4.9107,-4.8726,-4.8119,-4.7795,-4.7355,-4.6874,-4.6277,-4.5492,-4.4622,-4.4212,-4.3837,-4.3432,-4.2967,-4.2869,-4.2766,0.0,0.0,0.0,0.0,0.0,0.0,0.0,0.0,-4.1228,-4.1874,-4.2724,-4.392,-4.557,-4.6571,-4.7418,-4.8291,-4.7544,-4.6566,-4.5397,-4.2669,-4.0951,-4.0679,-3.9279,-3.9318,-4.1068,-4.2474,-4.3877,-4.5322,-4.6219,-4.7058,-4.7843,-4.7994,-4.8606,-4.9551,-4.9676,-4.9673,-4.9583,-4.8981,-4.7281,-4.4921,-4.4409,-4.2509,-3.9653,0.0,0.0,0.0,0.0,0.0,0.0,0.0,0.0,0.0,0.0,0.0,0.0,0.0,0.0,0.0,0.0,0.0,0.0,0.0,0.0,0.0,0.0,0.0,0.0,0.0,0.0,0.0,0.0,0.0,0.0,0.0,0.0,0.0,0.0,-4.3862,-4.546,-4.4485,-4.6961,-4.7868,-4.5627,-4.5816,-4.6219,-4.6513,-4.715,-4.8027,-4.918,-4.9617,-4.9885,-5.0102,-5.0424,-5.0564,-5.0424,-5.0656,-5.066,-5.0371,-5.0371,-5.0091,-4.9598,-4.9306,-4.8812,-4.8163,-4.7855,-4.7474,-4.6998,-4.6998,-4.6489,-4.5695,-4.5515,-4.5249,-4.4963,-4.4464,-4.4285,-4.405,0.0,0.0,0.0,0.0,0.0,0.0,0.0,-4.1005,-4.1666,-4.3476,-4.4436,-4.562,-4.7335,-4.8287,-4.8464,-4.7606,-4.6736,-4.5514,-4.3757,-4.2042,-4.0718,-3.9864,-4.0679,-4.1146,-4.1224,-4.3643,-4.5322,-4.6258,-4.7072,-4.7843,-4.8549,-4.9329,-4.9543,-4.9355,-5.0125,-5.0385,-5.0162,-4.9483,-4.8255,-4.6559,-4.4901,-4.4193,-4.3771,0.0,0.0,0.0,0.0,0.0,0.0,0.0,0.0,0.0,0.0,0.0,0.0,0.0,0.0,0.0,0.0,0.0,0.0,0.0,0.0,0.0,0.0,0.0,0.0,0.0,0.0,0.0,0.0,0.0,0.0,0.0,0.0,0.0,-4.1885,-4.4385,-4.5875,-4.5,-4.7434,-4.8546,-4.6904,-4.7217,-4.7861,-4.8596,-4.9089,-4.9721,-5.0495,-5.1575,-5.203,-5.1733,-5.2006,-5.203,-5.1708,-5.1708,-5.1315,-5.0506,-5.0506,-5.0113,-4.9364,-4.9329,-4.8925,-4.8234,-4.8163,-4.7734,-4.6998,-4.6998,-4.6998,-4.6998,-4.6998,-4.6498,-4.582,-4.582,-4.4835,-4.3365,0.0,0.0,0.0,0.0,0.0,0.0,0.0,-4.0986,-4.1633,-4.3467,-4.3922,-4.516,-4.8116,-4.8655,-4.8683,-4.8464,-4.7642,-4.6385,-4.466,-4.2396,-4.099,-4.0757,-4.1536,-4.2552,-4.3838,-4.4543,-4.5634,-4.715,-4.7237,-4.8038,-4.9443,-4.9373,-4.9596,-5.0092,-5.013,-5.0063,-4.9986,-4.981,-4.9442,-4.8846,-4.7327,-4.5894,-4.4524,0.0,0.0,0.0,0.0,0.0,0.0,0.0,0.0,0.0,0.0,0.0,0.0,0.0,0.0,0.0,0.0,0.0,0.0,0.0,0.0,0.0,0.0,0.0,0.0,0.0,0.0,0.0,0.0,0.0,0.0,0.0,-4.3401,-4.4231,-4.3931,-4.6345,-4.8291,-4.8733,-5.0545,-5.1289,-4.9973,-5.0281,-5.039,-4.9973,-5.0651,-5.1137,-5.1351,-5.1665,-5.1797,-5.1672,-5.1797,-5.1697,-5.1428,-5.1428,-5.1322,-5.1083,-5.1083,-5.1068,-5.0994,-4.9828,-4.9186,-4.896,-4.7818,-4.7176,-4.6998,-4.6998,-4.6998,-4.6998,-4.6998,-4.6855,-4.6605,-4.6034,-4.5067,-4.4015,0.0,0.0,0.0,0.0,0.0,0.0,0.0,-4.1317,-4.2322,-4.4487,-4.4756,-4.6079,-4.9493,-4.925,-4.8813,-4.8797,-4.7655,-4.6238,-4.4478,-4.2633,-4.177,-4.212,-4.3293,-4.4579,-4.5946,-4.6336,-4.7189,-4.8553,-4.8422,-4.9004,-5.0215,-4.9942,-5.0018,-5.0302,-5.0101,-4.9959,-4.9933,-4.9906,-5.012,-5.0348,-4.91,-4.7973,-4.6885,-4.571,-4.4345,-4.2943,-4.2249,-4.2401,-4.2867,-4.2412,0.0,0.0,0.0,0.0,0.0,0.0,0.0,0.0,0.0,0.0,0.0,0.0,0.0,0.0,0.0,0.0,0.0,0.0,0.0,0.0,0.0,0.0,0.0,0.0,-4.5099,-4.6318,-4.6983,-4.8437,-4.9833,-5.0727,-5.1715,-5.2076,-5.1395,-5.1472,-5.1317,-5.0855,-5.1144,-5.1341,-5.1341,-5.1341,-5.1341,-5.1341,-5.1341,-5.1263,-5.1079,-5.1246,-5.1298,-5.1298,-5.1073,-5.12,-5.1637,-5.0006,-4.9245,-4.9112,-4.7868,-4.7074,-4.6661,-4.6661,-4.6661,-4.6684,0.0,0.0,0.0,0.0,-4.5092,-4.4471,0.0,0.0,0.0,0.0,0.0,0.0,0.0,-4.1737,-4.3231,-4.5859,-4.6132,-4.7418,-5.1027,-4.9764,-4.8703,-4.8782,-4.7201,-4.5468,-4.371,-4.2874,-4.2861,-4.3835,-4.5475,-4.6764,-4.7618,-4.8397,-4.9177,-4.9995,-4.9983,-5.027,-5.0798,-5.0726,-5.0577,-5.034,-5.0089,-5.01,-5.029,-4.9995,-5.0448,-5.1282,-5.0399,-5.0058,-4.9893,-4.8287,-4.7605,-4.734,-4.5862,-4.4876,-4.4232,-4.4156,0.0,0.0,0.0,0.0,0.0,0.0,0.0,0.0,0.0,0.0,0.0,0.0,0.0,0.0,0.0,0.0,0.0,0.0,0.0,0.0,0.0,0.0,0.0,0.0,-4.6815,-4.8397,-5.0305,-5.0693,-5.0998,-5.1595,-5.1694,-5.1708,-5.179,-5.1464,-5.1246,-5.1246,-5.0972,-5.0803,-5.0803,-5.0803,0.0,0.0,0.0,-5.0776,-5.0749,-5.1079,-5.1246,-5.1237,-5.0759,-5.0884,-5.1469,-4.9922,-4.9064,-4.876,-4.7957,-4.7093,-4.6228,-4.6228,-4.6204,-4.6204,-4.6471,-4.6566,-4.6448,-4.5444,-4.5043,-4.4738,0.0,0.0,0.0,0.0,0.0,0.0,0.0,-4.1737,-4.3225,-4.5859,-4.5617,-4.6814,-5.0945,-4.9265,-4.8086,-4.873,-4.725,-4.5528,-4.3713,-4.3458,-4.403,-4.5631,-4.6683,-4.7657,-4.8514,-4.8709,-4.9177,-4.9995,-4.9878,-5.0183,-5.079,-5.0633,-5.0807,-5.1217,-5.0355,-5.0745,-5.1923,-5.0489,-5.0789,-5.213,-5.1395,-5.1064,-5.0827,-4.9803,-4.9021,-4.8414,-4.8073,-4.7883,-4.7618,-4.6923,-4.6582,-4.6203,-4.4838,-4.3966,0.0,0.0,0.0,0.0,0.0,0.0,0.0,0.0,0.0,0.0,0.0,0.0,0.0,0.0,0.0,0.0,0.0,0.0,0.0,-4.7444,-4.9653,-5.1353,-5.2207,-5.3129,-5.3471,-5.2734,-5.2122,-5.1901,-5.2244,-5.1458,-5.0919,-5.0919,-5.083,-5.0803,-5.0803,-5.0803,-5.0803,-5.0803,-5.0803,-5.0694,-5.0481,-5.0757,-5.0919,-5.0884,-5.0796,0.0,-5.0373,-4.9199,-4.8332,-4.7674,-4.6864,-4.6393,-4.6228,-4.6228,-4.607,-4.5895,-4.6144,-4.6301,-4.6217,-4.5805,-4.5277,-4.4565,0.0,0.0,0.0,0.0,0.0,0.0,0.0,-4.1675,-4.3022,-4.5267,-4.5586,-4.6755,-4.9778,-4.8213,-4.7116,-4.7496,-4.6357,-4.5211,-4.4325,-4.5482,-4.6761,-4.8047,-4.8943,-4.9995,-5.132,-5.093,-5.1125,-5.1943,-5.1896,-5.1934,-5.2105,-5.1996,-5.2036,-5.2144,-5.1586,-5.1801,-5.2511,-5.1163,-5.1139,-5.1864,-5.1001,-5.0912,-5.1292,-5.1292,-5.0998,-5.0486,-5.0107,-4.9652,-4.9248,-4.8793,-4.8098,-4.734,-4.6923,-4.5937,-4.4611,0.0,0.0,0.0,0.0,0.0,0.0,0.0,0.0,0.0,0.0,0.0,0.0,0.0,0.0,-4.2686,-4.4358,0.0,-4.711,-4.9745,-5.1442,-5.2696,-5.3575,-5.4097,-5.404,-5.3013,-5.2432,-5.2119,-5.2172,-5.124,-5.062,-5.062,-5.0481,-5.0397,-5.0397,-5.0397,-5.0397,-5.0397,-5.0397,-5.0348,-5.0206,-5.062,-5.0721,-5.062,-5.0919,-5.0629,-4.988,-4.8924,-4.8022,-4.7124,-4.6355,-4.593,-4.5803,-4.5803,-4.5727,-4.5598,-4.5752,-4.5803,-4.5778,-4.5649,-4.5113,-4.4385,0.0,0.0,0.0,0.0,0.0,0.0,0.0,-4.1664,-4.2794,-4.4426,-4.5414,-4.6561,-4.8141,-4.6963,-4.6066,-4.6066,-4.5185,-4.4847,-4.5371,-4.7547,-4.9216,-5.0229,-5.1398,-5.2645,-5.3849,-5.3541,-5.3541,-5.3888,-5.4082,-5.3913,-5.3437,-5.3592,-5.359,-5.3348,-5.3336,-5.3491,-5.3671,-5.2425,-5.2181,-5.2453,-5.1115,-5.1217,-5.2282,-5.278,-5.2753,-5.2291,-5.1495,-5.0637,-4.9893,-4.9893,-4.8907,-4.7757,-4.849,-4.7656,-4.6089,-4.4421,-4.3701,0.0,0.0,0.0,0.0,0.0,0.0,0.0,0.0,0.0,-4.1794,-4.3429,-4.3763,-4.4469,-4.6773,-4.7642,-4.8863,-5.1503,-5.2666,-5.3463,-5.4093,-5.4261,-5.4008,-5.3174,-5.2706,-5.2373,-5.2159,-5.1318,-5.0667,-5.0556,-5.0362,-5.0149,-5.0011,-5.0011,-5.0011,-5.0011,-5.0011,-5.0011,-5.0011,-5.0481,-5.062,-5.0397,-5.0751,-5.04,-4.9354,-4.8531,-4.7605,-4.663,-4.6005,-4.5598,-4.5397,-4.5397,-4.5397,-4.5397,-4.5397,-4.5397,-4.5397,-4.5397,-4.4941,-4.4207,0.0,0.0,0.0,0.0,0.0,0.0,0.0,0.0,-4.2657,-4.3609,-4.4488,-4.5428,-4.6461,-4.5714,-4.5168,-4.5168,-4.4278,-4.4727,-4.7078,-4.822,-4.9488,-5.1086,-5.3463,-5.4472,-5.3927,-5.5333,-5.5333,-5.3888,-5.4667,-5.4538,-5.3598,-5.4382,-5.4947,-5.5286,-5.548,-5.6279,-5.7344,-5.5122,-5.4998,-5.6175,-5.386,-5.3832,-5.5055,-5.4308,-5.334,-5.2291,-5.1495,-5.0637,-4.9893,-4.9893,-4.9286,-4.8566,-4.8679,-4.8022,-4.6923,-4.5255,-4.3701,-4.2325,-4.134,-4.1108,-4.1217,-4.1571,-4.2212,-4.3079,0.0,0.0,-4.5212,-4.681,-4.7144,-4.7664,-4.9373,-5.0377,-5.1063,-5.149,-5.3403,-5.4327,-5.2847,-5.385,-5.4479,-5.3772,-5.309,-5.2643,-5.2614,-5.225,-5.1731,-5.1075,-5.0976,-5.07,-5.0045,-5.0011,-5.0011,-5.0011,-5.0011,-5.0011,-5.0011,-5.032,-5.0425,-5.0397,-4.9819,-4.9087,-4.8258,-4.7261,-4.6339,-4.5553,-4.5484,-4.5423,-4.5397,-4.5397,-4.5397,-4.5397,-4.5397,-4.5397,-4.5397,-4.5397,-4.4941,-4.4276,0.0,0.0,0.0,0.0,0.0,0.0,0.0,0.0,0.0,-4.2712,-4.3552,-4.4245,-4.4723,-4.4007,-4.3487,-4.3482,-4.4482,-4.6028,-4.8122,-5.0956,-5.2851,-5.3541,-5.5567,-5.6464,-5.6113,-5.6814,-5.7087,-5.6853,-5.7243,-5.7118,-5.6576,-5.6926,-5.7164,-5.7304,-5.7387,-5.7755,-5.8249,-5.6675,-5.6471,-5.6973,-5.4795,-5.4352,-5.4803,-5.3327,-5.237,-5.1762,-5.1361,-5.0334,0.0,-4.921,-4.8338,-4.7428,-4.8376,-4.7416,-4.5824,-4.5103,-4.3701,0.0,-4.1984,-4.1815,-4.1858,0.0,-4.318,-4.4162,-4.5669,-4.5992,-4.6587,-4.8667,-4.9113,-4.9596,-5.1268,-5.1676,-5.2197,0.0,-5.4497,-5.4979,-5.448,-5.4674,-5.4436,-5.3305,-5.2726,-5.2572,-5.3052,-5.214,-5.1459,-5.1149,-5.07,-5.0321,-5.0011,-5.0011,-5.0011,-5.0011,-5.0011,-5.0011,-5.0011,-5.0263,-5.0348,-5.0178,-4.9583,-4.8784,-4.783,-4.6995,-4.6155,-4.5397,-4.5397,-4.5397,-4.5397,-4.5397,-4.5397,-4.5397,-4.5397,-4.5397,-4.5397,-4.5397,-4.4941,-4.4311,0.0,0.0,0.0,0.0,0.0,0.0,0.0,0.0,0.0,0.0,-4.2867,-4.3453,-4.3317,-4.2538,-4.222,-4.2686,-4.4431,-4.6403,-4.861,-5.2136,-5.4453,-5.5178,-5.7048,-5.8066,-5.8066,-5.8529,-5.8841,-5.8996,-5.923,-5.9158,-5.8803,-5.9036,-5.9043,-5.8939,-5.9219,-5.9328,-5.921,-5.8343,-5.8165,-5.8289,-5.6137,-5.5302,-5.5091,-5.2935,-5.1606,-5.0776,-5.0368,-4.9288,-4.7959,-4.7732,-4.6695,-4.5748,-4.7201,-4.6241,-4.4573,-4.4573,-4.3398,-4.206,-4.206,-4.233,0.0,-4.341,-4.4636,-4.5963,-4.6934,-4.7516,-4.8407,-5.0376,-5.0785,-5.1231,-5.2679,-5.2712,-5.304,-5.4506,-5.5007,-5.5196,-5.5261,-5.4843,-5.4005,-5.2538,-5.1968,-5.1998,-5.2701,-5.2149,-5.1563,-5.1149,-5.0804,-5.0424,-5.0011,-5.0011,-5.0011,-5.0011,-5.0011,-5.0011,-5.0011,-4.997,-4.9866,-4.9666,-4.8924,-4.8162,-4.7389,-4.6603,-4.5949,-4.5397,-4.5397,-4.5397,-4.5397,-4.5397,-4.5397,-4.5397,-4.5397,-4.5397,-4.5397,-4.5397,-4.4941,-4.4311,0.0,0.0,0.0,0.0,0.0,0.0,0.0,0.0,0.0,0.0,0.0,0.0,0.0,-4.1542,-4.1737,-4.3416,-4.3633,-4.5106,-4.8465,-5.0399,-5.2567,-5.5095,-5.7633,-5.8957,-5.8957,-6.0633,-6.0672,-5.8996,-5.9854,-5.9815,-5.8992,-5.9849,-6.0144,-5.9982,-6.1045,-6.1384,-6.1154,-6.05,-6.0702,-6.1242,-5.8582,-5.7474,-5.7094,-5.4326,-5.1661,-4.9336,-4.8187,-4.7134,-4.6165,-4.5293,-4.4459,-4.3929,-4.4762,-4.4421,0.0,-4.3739,-4.2564,-4.1226,-4.1226,-4.2401,-4.378,-4.4339,-4.6869,-4.9177,-4.8885,-5.0079,-5.1491,-5.2345,-5.2531,-5.2791,-5.3608,-5.3738,-5.3783,-5.3916,-5.4583,-5.4774,-5.3797,-5.3635,-5.3097,-5.1708,-5.0891,-5.0638,-5.1144,-5.2494,-5.2701,-5.1218,-5.174,-5.1528,-5.008,-5.0011,-5.0011,-5.0011,-5.0011,-5.0011,-5.0011,-4.9252,-4.8838,-4.881,-4.7389,-4.6665,-4.6631,-4.5776,-4.5432,-4.5397,-4.5397,-4.5397,-4.5397,-4.5397,-4.5397,-4.5397,-4.5397,-4.5397,-4.5397,-4.5397,-4.4941,-4.4311,0.0,0.0,0.0,0.0,0.0,0.0,0.0,0.0,0.0,0.0,0.0,0.0,0.0,0.0,0.0,0.0,-4.4987,-4.6288,-4.8546,-5.0873,-5.2556,-5.3424,-5.7009,-5.8724,-5.8139,-6.0399,-6.1295,-6.0711,-6.1023,-6.1023,-6.0711,-6.1023,-6.112,-6.1089,-6.1437,-6.1549,-6.1479,-6.1242,-6.0965,-6.05,-5.8421,-5.7208,-5.6278,-5.3025,-5.0473,-4.8398,0.0,-4.4776,-4.3737,-4.3357,-4.2716,-4.2185,-4.2981,-4.2678,-4.1908,-4.134,-4.1567,-4.1984,-4.1984,-4.3553,-4.5442,-4.659,-4.8496,-5.0277,-5.1173,-5.1788,-5.2271,-5.2531,-5.2197,-5.1714,-5.1416,-5.1379,-5.1676,-5.2511,-5.3806,-5.4624,-5.4309,-5.4138,-5.3487,-5.2087,-5.1018,-5.0361,-5.0385,-5.0838,-5.1149,-5.1114,-5.0907,-5.0528,-5.0045,-5.0011,-5.0011,-5.0011,-5.0011,-5.0011,-5.0011,-4.9189,-4.881,-4.8775,-4.732,-4.632,-4.5776,-4.55,-4.5397,-4.5397,-4.5397,-4.5397,-4.5397,-4.5397,-4.5397,-4.5397,-4.5397,-4.5397,-4.5397,-4.5397,-4.4941,-4.438,0.0,0.0,0.0,0.0,0.0,0.0,0.0,0.0,0.0,0.0,0.0,0.0,0.0,0.0,0.0,0.0,0.0,-4.6425,-4.8125,-5.0109,-5.1603,-5.254,-5.526,-5.6736,-5.6814,-5.8139,-5.8996,-5.9308,-5.9308,-5.962,-6.0204,-6.0204,-6.036,-6.0672,-6.0672,-6.0828,-6.1101,-6.0477,-6.003,-5.9566,-5.7235,-5.5719,-5.449,-5.1029,-4.8587,0.0,-4.436,-4.2774,-4.1771,-4.1607,-4.1206,-4.0809,-4.134,-4.115,-4.0696,-4.0431,-4.134,-4.2515,-4.3121,-4.4814,-4.6714,-4.7903,-4.9593,-5.1153,-5.2045,-5.2419,-5.2531,-5.2234,-5.1268,-5.0339,-4.9782,-4.9707,-5.0046,-5.0998,-5.2263,-5.3234,-5.3466,-5.3219,-5.267,-5.1738,-5.0751,-5.0042,0.0,-4.9654,-4.9907,-5.0666,-5.0528,-5.0287,-5.0011,-5.0011,-5.0011,-5.0011,-5.0011,-5.0011,-5.0011,-4.8913,-4.812,-4.7569,-4.6603,-4.588,-4.5397,-4.5397,-4.5397,-4.5397,-4.5397,-4.5397,-4.5397,-4.5397,-4.5397,-4.5397,-4.5397,-4.5397,-4.5397,-4.5397,-4.4941,-4.438,0.0,0.0,0.0,0.0,0.0,0.0,0.0,0.0,0.0,0.0,0.0,0.0,0.0,0.0,0.0,0.0,0.0,0.0,-4.721,-4.8163,-4.9731,-5.2249,-5.2462,-5.3307,-5.494,-5.4277,-5.4316,-5.5134,-5.5134,-5.5957,-5.7516,-5.7516,-5.7944,-5.8724,-5.8724,-5.9191,-5.9854,-5.8217,-5.7944,-5.8334,-5.5022,-5.3126,-5.1955,-4.8608,-4.625,-4.4542,-4.2705,-4.1347,-4.0407,-4.0215,-4.0086,-4.0052,-4.0089,-4.0052,-4.0203,-4.1075,-4.192,-4.2893,-4.4573,-4.6241,-4.7693,-4.84,-5.0259,-5.1865,-5.1697,-5.2101,-5.2308,-5.1454,-4.993,-4.8742,0.0,0.0,-4.8896,-4.9415,-5.0296,-5.1059,-5.1529,-5.1357,-5.1058,0.0,0.0,0.0,0.0,0.0,-4.9154,-4.9942,-5.0666,-5.0769,-5.008,-5.0011,-5.0011,-5.0011,-5.0011,-5.0011,-5.0011,-4.8493,-4.6914,-4.5397,-4.5397,-4.5397,-4.5397,-4.5397,-4.5397,-4.5397,-4.5397,-4.5397,-4.5397,-4.5397,-4.5397,-4.5397,-4.5397,-4.5397,-4.5397,-4.5397,-4.4975,-4.438,0.0,0.0,0.0,0.0,0.0,0.0,0.0,0.0,0.0,0.0,0.0,0.0,0.0,0.0,0.0,0.0,0.0,0.0,-4.6382,-4.7251,-4.8046,-4.8718,-5.0589,-5.1838,-5.2294,-5.3346,-5.4004,-5.4238,-5.4238,-5.4437,-5.4866,-5.4866,-5.4983,-5.5217,-5.5217,-5.5333,-5.5489,-5.5061,-5.4242,-5.3112,-5.1593,-5.0494,-4.9508,-4.7298,-4.612,-4.5509,-4.4387,-4.3283,-4.2239,-4.1361,0.0,-4.187,-4.2526,-4.2287,-4.1908,-4.2829,-4.3625,-4.4649,-4.6316,-4.7984,-4.9587,-5.0854,-5.1516,-5.2032,-5.2462,-5.2119,-5.1305,-4.9856,-4.8259,-4.6735,0.0,0.0,0.0,-4.7952,-5.0398,0.0,-5.2773,-5.3076,0.0,-5.1682,0.0,-5.0414,-5.0147,-4.9872,-4.9804,-4.9976,-5.0183,-5.0459,-5.0804,-5.0321,-5.0011,-5.0011,-5.0011,-5.0011,-5.0011,-4.8493,-4.6914,-4.5397,-4.5397,-4.5397,-4.5397,-4.5397,-4.5397,-4.5397,-4.5397,-4.5397,-4.5397,-4.5397,-4.5397,-4.5397,-4.5397,-4.5397,-4.5397,-4.5397,-4.5259,-4.5147,0.0,0.0,0.0,0.0,0.0,0.0,0.0,0.0,0.0,0.0,0.0,0.0,0.0,0.0,0.0,0.0,0.0,0.0,0.0,-4.6542,-4.6992,-4.7422,-4.8476,-4.9227,-4.9605,-5.0579,-5.1086,-5.1086,-5.1476,-5.1671,-5.1671,-5.2021,-5.1982,-5.171,-5.245,-5.2762,-5.2723,-5.2333,-5.1826,0.0,0.0,-4.8631,-4.8047,-4.6232,-4.5533,-4.5376,0.0,0.0,0.0,0.0,0.0,-4.3715,-4.4209,-4.4227,-4.4308,-4.552,0.0,-4.7302,-4.8249,-4.9728,-5.1116,-5.1584,-5.185,-5.1882,-5.1457,-5.06,-4.9328,-4.7198,-4.5472,-4.4061,-4.3132,-4.3912,-4.5026,0.0,0.0,0.0,-5.1803,-5.2279,-5.255,0.0,-5.1615,0.0,-5.0857,-5.0564,-5.0402,-5.0459,-5.0183,-5.0183,-5.0597,-5.0218,-5.0011,-5.0011,-5.0011,-4.97,-4.901,-4.7838,-4.6603,-4.5397,-4.5397,-4.5397,-4.5397,-4.5397,-4.5397,-4.5397,-4.5397,-4.5397,-4.5397,-4.5397,-4.5397,-4.5397,-4.5397,-4.5397,-4.5397,-4.5397,-4.5397,-4.5397,0.0,0.0,0.0,0.0,0.0,0.0,0.0,0.0,0.0,0.0,0.0,0.0,0.0,0.0,0.0,0.0,0.0,0.0,0.0,0.0,0.0,-4.7276,-4.6586,-4.653,-4.7306,-4.7345,-4.7345,-4.7345,-4.8086,-4.8436,-4.8475,-4.9177,-4.9138,-4.8514,-4.9956,-5.0618,-5.0579,-4.9839,-4.9878,-5.0268,-4.8047,-4.715,-4.6995,0.0,0.0,0.0,0.0,0.0,0.0,0.0,-4.6204,-4.5589,-4.5786,-4.6271,-4.7049,-4.8566,-4.9551,-5.012,-5.0182,-5.1282,-5.2215,-5.1533,-5.1569,-5.1345,-4.9611,-4.8443,-4.6925,-4.4368,-4.2649,-4.1571,-4.146,-4.2686,-4.3801,-4.4135,0.0,-4.9133,-5.0211,-5.0711,-5.1547,-5.3072,-5.2219,-5.1525,-5.1525,-5.114,-5.0974,-5.1054,-5.0472,-5.0132,-5.0149,-5.0045,-5.0011,-5.0011,-4.9907,-4.9148,-4.7707,-4.6975,-4.619,-4.5397,-4.5397,-4.5397,-4.5397,-4.5397,-4.5397,-4.5397,-4.5397,-4.5397,-4.5397,-4.5397,-4.5397,-4.5397,-4.5397,-4.5397,-4.5397,-4.5397,-4.5397,-4.5397,0.0,0.0,0.0,0.0,0.0,0.0,0.0,0.0,0.0,0.0,-4.689,-4.6002,0.0,0.0,0.0,0.0,0.0,0.0,0.0,0.0,0.0,0.0,-4.6272,-4.6271,-4.6414,-4.6414,-4.6414,-4.6414,-4.6569,-4.6647,-4.6647,-4.68,-4.6761,-4.6647,-4.6956,-4.7072,-4.7072,-4.6917,-4.653,-4.5985,-4.5517,-4.5361,-4.5322,0.0,0.0,0.0,0.0,0.0,0.0,0.0,-4.7208,-4.765,-4.8949,-4.9413,-4.9669,-5.054,-5.0865,-5.113,-5.1812,-5.2191,-5.2366,-5.2215,-5.1168,-4.9814,-4.8687,-4.7132,0.0,0.0,-4.224,-4.1386,-4.0717,-4.1386,-4.2686,-4.4729,-4.6661,-4.8803,-5.1391,-5.1828,-5.2128,0.0,-5.2427,-5.2112,-5.2066,-5.1764,0.0,-5.0904,-5.0745,-5.0732,-5.0902,-5.0321,-5.0011,-5.0011,-4.9327,-4.8568,-4.7734,-4.6975,-4.619,-4.5397,-4.5397,-4.5397,-4.5397,-4.5397,-4.5397,-4.5397,-4.5397,-4.5397,-4.5397,-4.5397,-4.5397,-4.5397,-4.5397,-4.5397,-4.5397,-4.5397,-4.5397,-4.5397,0.0,0.0,0.0,0.0,0.0,0.0,0.0,-4.7317,-4.7939,-4.9726,-4.8832,-4.7867,-4.7395,-4.6566,-4.6042,0.0,0.0,0.0,0.0,0.0,0.0,0.0,0.0,0.0,-4.6219,-4.6647,-4.6647,-4.6219,0.0,-4.6414,-4.5517,-4.5985,-4.5709,-4.489,-4.5787,-4.5946,-4.5556,-4.6024,-4.5946,-4.5595,-4.5595,-4.5595,0.0,0.0,0.0,0.0,0.0,0.0,0.0,0.0,-4.7581,-4.8496,-5.0486,-5.1576,-5.2285,-5.3044,-5.32,-5.3139,-5.3101,-5.3366,-5.348,-5.2608,-5.1415,-4.9877,-4.7489,0.0,0.0,0.0,-4.0568,-4.016,-3.9788,-4.1089,0.0,-4.3801,-4.6067,-4.8504,-5.0731,-5.1452,-5.2134,-5.3191,-5.2907,-5.2585,-5.2576,-5.2312,-5.1777,-5.0893,-5.1087,-5.0997,-5.0523,-4.9804,-4.939,-4.939,-4.8286,-4.7493,-4.7148,-4.6362,-4.5776,-4.5397,-4.5397,-4.5397,-4.5397,-4.5397,-4.5397,-4.5397,-4.5397,-4.5397,-4.5397,-4.5397,-4.5397,-4.5397,-4.5397,-4.5397,-4.5397,-4.5397,-4.5397,-4.5397,0.0,0.0,0.0,0.0,0.0,0.0,0.0,-4.8172,-4.8871,-5.1668,-5.1241,-5.047,-4.9765,-4.7874,-4.6502,0.0,0.0,0.0,0.0,0.0,0.0,0.0,0.0,0.0,0.0,0.0,0.0,-4.6764,-4.7423,0.0,0.0,0.0,0.0,0.0,-4.5592,-4.5829,-4.5205,-4.5907,-4.6219,0.0,0.0,-4.6219,0.0,0.0,0.0,0.0,0.0,0.0,0.0,0.0,-4.7695,-4.8756,-5.0803,-5.2389,-5.3619,-5.4409,-5.4666,-5.46,-5.4101,-5.4427,-5.4503,-5.2836,-5.1798,-5.0203,-4.6416,-4.4414,0.0,-3.9713,-3.911,-3.9082,-3.9082,-4.068,-4.2166,0.0,-4.4952,-4.7404,-4.9559,-5.0599,-5.1751,0.0,-5.3273,0.0,-5.3093,-5.2886,-5.2299,-5.1251,-5.126,-5.0964,-5.0068,-4.9223,-4.881,-4.881,-4.7464,-4.6723,-4.6723,-4.6092,-4.5675,-4.5581,-4.5581,-4.5528,-4.5397,-4.5397,-4.5397,-4.5397,-4.5397,-4.5397,-4.5397,-4.5397,-4.5397,-4.5397,-4.5397,-4.5397,-4.5397,-4.5397,-4.5397,-4.5397,0.0,0.0,0.0,0.0,0.0,0.0,0.0,-4.9182,-5.0853,-5.4194,-5.3883,-5.3306,-5.3228,-5.0397,-4.7825,0.0,0.0,0.0,0.0,0.0,0.0,0.0,0.0,0.0,0.0,0.0,0.0,-4.8553,-4.8631,0.0,0.0,0.0,0.0,0.0,0.0,-4.618,-4.6102,-4.618,0.0,0.0,0.0,0.0,0.0,0.0,0.0,0.0,0.0,0.0,0.0,0.0,0.0,-4.8585,-4.9575,-5.0889,-5.22,-5.2691,0.0,0.0,-5.4623,-5.4844,-5.4503,-5.2836,-5.1798,-5.0065,-4.577,0.0,-4.253,-3.9848,-3.9178,-3.9082,-3.9082,-3.9305,-4.0197,-4.2426,0.0,-4.4618,-4.8481,-4.9745,-5.0896,-5.2531,0.0,0.0,-5.3617,-5.3598,-5.3193,-5.2161,-5.1087,-5.0341,-5.004,-4.9223,-4.881,-4.881,-4.777,-4.7251,-4.7251,-4.6908,-4.6554,-4.613,-4.613,-4.5879,-4.5397,-4.5397,-4.5397,-4.5397,-4.5397,-4.5397,-4.5397,-4.5397,-4.5397,-4.5397,-4.5397,-4.5397,-4.5397,-4.5397,-4.5397,-4.5397,0.0,0.0,0.0,0.0,0.0,0.0,-4.9201,-4.975,-5.1385,-5.5317,-5.5083,-5.4738,-5.5283,-5.3217,-5.0502,-4.7167,0.0,0.0,0.0,0.0,0.0,0.0,0.0,0.0,0.0,0.0,-4.8202,-4.8008,-4.8553,0.0,0.0,0.0,0.0,0.0,0.0,-4.6686,-4.6219,-4.6219,0.0,0.0,0.0,0.0,0.0,0.0,0.0,0.0,0.0,0.0,-4.588,0.0,0.0,0.0,-4.7231,-4.8122,0.0,0.0,-5.2624,-5.3288,-5.4096,-5.4591,-5.4503,-5.2836,-5.1395,-4.9397,-4.5557,0.0,-4.1916,-3.9748,-3.9192,-3.9082,-3.9082,-3.9528,-4.0346,-4.1832,0.0,0.0,-4.7033,-4.7738,-4.8927,-5.1565,-5.2159,0.0,0.0,0.0,-5.3277,-5.2278,-5.1218,-5.064,-5.0694,-4.9796,-4.9087,-4.8572,-4.8514,-4.8269,-4.7784,-4.7404,-4.7093,-4.6896,-4.6089,-4.5632,-4.5397,-4.5397,-4.5397,-4.5397,-4.5397,-4.5397,-4.5397,-4.5397,-4.5397,-4.5397,-4.5397,-4.5397,-4.5397,-4.5397,-4.5397,-4.5397,0.0,0.0,0.0,0.0,0.0,-4.8054,-5.0069,-5.0385,-5.1749,-5.5528,-5.5489,-5.5411,-5.6316,-5.4667,-5.2266,-4.9217,-4.7559,0.0,0.0,0.0,0.0,0.0,0.0,0.0,0.0,0.0,-4.8982,-4.8631,-4.9255,-4.941,0.0,0.0,-4.8709,-4.7852,0.0,0.0,0.0,0.0,0.0,0.0,0.0,0.0,0.0,0.0,0.0,0.0,0.0,0.0,0.0,0.0,0.0,0.0,0.0,0.0,0.0,0.0,-5.1283,-5.2158,-5.3185,-5.3808,-5.3897,-5.267,-5.113,-4.8994,0.0,0.0,-4.1817,-3.9763,-3.9219,-3.9082,-3.9082,-3.9788,-4.0643,0.0,0.0,-4.3578,-4.5844,-4.6364,-4.7441,-5.0005,0.0,-5.1305,-5.294,-5.3302,-5.3109,-5.2302,-5.1551,-5.114,-5.1244,-5.0728,-5.0004,-4.9033,-4.9329,-4.9241,-4.8644,-4.833,-4.8101,-4.7918,-4.6602,-4.5866,-4.5742,-4.55,-4.5397,-4.5397,-4.5397,-4.5397,-4.5397,-4.5397,-4.5397,-4.5397,-4.5397,-4.5397,-4.5397,-4.5397,-4.5397,-4.5397,0.0,0.0,0.0,0.0,0.0,0.0,-5.0891,-5.1281,-5.2212,-5.4779,-5.513,-5.5442,-5.6312,-5.4117,-5.2595,-5.2557,-4.9446,0.0,0.0,0.0,0.0,0.0,0.0,0.0,0.0,0.0,-5.0424,-5.1242,-5.1281,-5.0813,-4.9995,-4.9995,-4.9566,-4.8748,0.0,0.0,0.0,0.0,0.0,0.0,0.0,0.0,0.0,0.0,0.0,0.0,0.0,0.0,0.0,0.0,0.0,0.0,0.0,-4.5727,-4.5937,0.0,-4.9099,-5.0707,-5.2037,-5.2419,-5.2404,-5.2404,-5.113,-4.9021,0.0,-4.4045,-4.257,-4.004,-3.9285,-3.9082,-3.9082,-3.9788,-4.0643,-4.146,-4.2277,0.0,-4.5064,-4.5992,-4.681,0.0,-4.8444,-4.9596,-5.1268,-5.2238,-5.268,-5.2322,-5.1982,-5.1676,-5.1424,-5.2065,-5.1821,-5.0412,-5.0154,-5.0003,-4.9967,-4.9995,-4.9712,-4.9174,-4.7894,-4.7021,-4.6562,-4.5742,-4.5397,-4.5397,-4.5397,-4.5397,-4.5397,-4.5397,-4.5397,-4.5397,-4.5397,-4.5397,-4.5397,-4.5397,-4.5397,-4.5397,0.0,0.0,0.0,0.0,0.0,0.0,0.0,-5.0978,-5.2091,-5.4081,-5.4354,-5.49,-5.6386,-5.4752,-5.3563,-5.3547,-5.0391,0.0,0.0,0.0,0.0,0.0,0.0,0.0,0.0,0.0,-5.0735,-5.0424,-5.1008,-5.1164,-5.0891,-5.0891,-5.0424,-4.9605,-4.9333,-4.8904,0.0,0.0,0.0,0.0,0.0,0.0,-5.0459,0.0,0.0,0.0,0.0,0.0,0.0,0.0,0.0,0.0,0.0,0.0,0.0,-4.61,-4.7312,-4.8758,-4.9745,-5.0328,-5.0561,-4.9993,-4.9007,-4.7453,-4.4724,-4.3277,-4.1983,-4.0061,-3.9427,-3.9232,-3.9232,-3.9374,-3.9974,-4.1349,-4.1794,0.0,0.0,0.0,0.0,-4.837,-5.0748,-5.2457,-5.2977,-5.2899,-5.2761,-5.2658,-5.2278,-5.2114,-5.2208,-5.2666,-5.2331,-5.1063,-5.1792,-5.1726,-5.0836,-4.9955,-4.9246,-4.8705,-4.6846,-4.5927,-4.5776,-4.55,-4.5397,-4.5397,-4.5397,-4.5397,-4.5397,-4.5397,-4.5397,-4.5397,-4.5397,-4.5397,-4.5397,-4.5397,-4.5397,-4.5397,0.0,0.0,0.0,0.0,0.0,0.0,0.0,-5.0779,-5.1438,-5.2844,-5.2727,-5.3313,-5.5343,-5.4055,-5.3279,-5.3905,-5.1395,0.0,0.0,0.0,0.0,0.0,0.0,0.0,-5.0502,-5.1008,-5.1359,-5.1476,-5.2021,-5.2294,-5.2294,-5.2294,-5.1632,-5.0463,-5.0151,-4.9722,0.0,0.0,0.0,0.0,0.0,0.0,-5.0746,0.0,0.0,0.0,0.0,0.0,0.0,0.0,0.0,0.0,0.0,0.0,0.0,0.0,-4.6056,-4.7011,-4.8045,-4.8669,-4.8998,-4.8768,-4.758,-4.5975,-4.4118,0.0,-4.1354,-3.9969,-3.9489,-3.9298,-3.9298,-3.9439,-3.9937,-4.0992,-4.1646,-4.25,0.0,0.0,0.0,-4.915,-5.1974,-5.3794,-5.3794,-5.3576,-5.3441,-5.3441,-5.2951,-5.2702,-5.2857,-5.3157,-5.2831,-5.1757,-5.2249,-5.2156,-5.1369,-4.9782,-4.888,-4.863,-4.6743,-4.5845,-4.5845,-4.5535,-4.5397,-4.5397,-4.5397,-4.5397,0.0,-4.5397,-4.5397,-4.5397,-4.5397,-4.5397,-4.5397,-4.5397,-4.5397,-4.5397,0.0,0.0,0.0,0.0,0.0,0.0,0.0,-5.0656,-5.0423,-5.1281,-5.0657,-5.101,-5.347,-5.2337,-5.2016,-5.3591,0.0,0.0,0.0,0.0,0.0,0.0,0.0,0.0,-5.132,-5.132,-5.2099,-5.3732,-5.3771,-5.381,-5.381,-5.3849,-5.2995,-5.1359,-5.0541,-5.0151,-5.0073,-5.0073,-5.0579,-5.132,-5.1277,-5.0785,0.0,0.0,0.0,0.0,0.0,0.0,0.0,0.0,0.0,0.0,0.0,0.0,0.0,0.0,0.0,0.0,0.0,-4.7288,-4.7574,-4.8112,-4.6468,-4.4497,-4.3701,0.0,0.0,-3.9905,-3.9514,-3.9324,-3.9399,-3.9913,-4.036,-4.0546,-4.1757,-4.302,0.0,-4.5695,0.0,0.0,-5.2419,-5.3831,-5.372,-5.4129,-5.4423,-5.4423,-5.3723,-5.3297,-5.3277,-5.3518,-5.3267,-5.2377,-5.1642,-5.1326,-5.1456,-4.9459,-4.8594,-4.8831,-4.7335,-4.6596,-4.6596,-4.5811,-4.5466,-4.5397,-4.5397,-4.5397,-4.5397,-4.5397,-4.5397,-4.5397,-4.5397,-4.5397,-4.5397,-4.5397,-4.5397,-4.5397,0.0,0.0,0.0,0.0,0.0,0.0,0.0,0.0,0.0,0.0,-5.0657,-5.0579,-5.1868,-5.1633,-5.1548,0.0,0.0,0.0,0.0,0.0,0.0,0.0,0.0,0.0,-5.132,-5.132,-5.1515,-5.1904,-5.2567,-5.2918,-5.2918,-5.358,-5.3346,-5.2294,-5.2099,-5.1632,-5.1008,-5.1008,-5.1125,-5.1316,-5.1243,-5.0719,0.0,0.0,0.0,0.0,-4.6454,-4.6116,0.0,0.0,0.0,0.0,0.0,0.0,0.0,0.0,-4.5381,-4.5253,-4.4706,0.0,-4.4519,-4.4016,-4.3436,-4.2791,0.0,-4.148,0.0,0.0,0.0,0.0,0.0,-3.9949,-4.0151,-4.1935,-4.2054,-4.2612,-4.4692,-4.8036,0.0,-5.1862,-5.3608,-5.424,-5.3014,-5.3316,-5.3576,-5.3576,-5.3429,-5.3193,-5.2937,-5.3214,-5.2831,-5.1651,-5.0552,-5.0023,-5.0204,-4.8887,-4.824,-4.8286,-4.7335,-4.6811,-4.6596,-4.6424,-4.5983,-4.5397,-4.5397,-4.5397,-4.5397,-4.5397,-4.5397,-4.5397,-4.5397,-4.5397,-4.5397,-4.5397,-4.5397,-4.5397,0.0,0.0,0.0,0.0,0.0,0.0,0.0,0.0,0.0,0.0,0.0,-5.0386,-5.1245,-5.1362,0.0,0.0,0.0,0.0,0.0,0.0,0.0,0.0,0.0,-5.132,-5.132,-5.132,-5.1904,-5.3073,-5.358,-5.4009,-5.4398,-5.4476,-5.381,-5.2567,-5.2177,-5.1749,-5.132,-5.132,-5.132,-5.1277,-5.123,0.0,0.0,0.0,0.0,0.0,-4.5975,-4.5807,0.0,-4.6271,-4.6116,-4.5884,0.0,0.0,0.0,0.0,-4.5351,-4.4972,-4.3517,-4.3722,-4.4148,-4.3232,-4.2716,-4.2287,-4.1832,0.0,0.0,0.0,0.0,0.0,0.0,-4.0235,-4.0333,-4.1995,-4.25,-4.3689,0.0,0.0,-5.1379,-5.2977,-5.424,-5.4834,-5.4351,-5.4158,-5.4095,-5.4095,-5.3763,-5.3461,-5.3277,-5.3297,-5.2789,-5.1752,-5.0407,-4.9523,-4.9208,-4.7761,-4.7111,-4.7212,-4.6561,-4.6177,-4.6052,-4.6052,-4.5811,-4.5397,-4.5397,-4.5397,-4.5397,-4.5397,-4.5397,-4.5397,-4.5397,-4.5397,-4.5397,-4.5397,-4.5397,-4.5397,0.0,0.0,0.0,0.0,0.0,0.0,0.0,0.0,0.0,0.0,0.0,0.0,0.0,0.0,0.0,0.0,0.0,0.0,0.0,0.0,0.0,0.0,-5.1359,-5.1359,-5.1515,-5.1359,-5.245,-5.4784,-5.5056,-5.5567,-5.6273,-5.5801,-5.4593,-5.2762,-5.1904,-5.1437,-5.132,-5.1273,-5.1269,-5.1265,-5.1211,0.0,0.0,0.0,0.0,0.0,0.0,0.0,0.0,-4.6651,-4.6426,-4.5916,-4.6636,0.0,0.0,0.0,0.0,0.0,-4.3065,-4.3855,-4.4809,-4.3471,-4.2678,-4.2174,-4.206,0.0,0.0,0.0,0.0,0.0,0.0,-4.0694,0.0,0.0,0.0,-4.5695,-4.9002,-5.0265,-5.1602,-5.3571,-5.4648,-5.5354,-5.5689,-5.5169,-5.4834,-5.4834,-5.4016,-5.355,-5.3639,-5.3191,-5.2543,-5.1694,-5.0446,-4.9293,-4.8268,-4.6753,-4.6115,-4.6344,-4.59,-4.5649,-4.5569,-4.5569,-4.55,-4.5397,-4.5397,-4.5397,-4.5397,-4.5397,-4.5397,-4.5397,-4.5397,-4.5397,-4.5397,-4.5397,-4.5397,-4.5397,0.0,0.0,0.0,0.0,0.0,0.0,0.0,0.0,0.0,0.0,0.0,0.0,0.0,0.0,0.0,0.0,0.0,0.0,0.0,0.0,0.0,-5.2411,-5.171,-5.1632,-5.2372,-5.1671,-5.1865,-5.2995,-5.4472,-5.5251,-5.545,-5.6697,-5.6035,-5.3654,-5.2801,-5.1982,-5.1316,-5.1239,-5.122,-5.1211,-5.1062,0.0,0.0,0.0,0.0,0.0,0.0,0.0,0.0,-4.5962,-4.5923,-4.5786,-4.5804,0.0,0.0,0.0,0.0,0.0,-4.3824,-4.4218,-4.423,-4.1237,-4.0923,-4.1188,-4.0431,0.0,0.0,0.0,0.0,0.0,0.0,-4.1228,-4.1384,0.0,-4.5584,-4.8296,-5.1565,-5.3311,-5.4166,-5.3831,-5.5169,-5.5317,-5.3348,-5.3683,-5.398,-5.398,-5.2988,-5.2524,-5.2944,-5.1995,-5.0931,-4.9756,-4.9531,-4.871,-4.7244,-4.6941,-4.6908,-4.7151,-4.7051,-4.6804,-4.6424,-4.6424,-4.6017,-4.5397,-4.5397,-4.5397,-4.5397,-4.5397,-4.5397,-4.5397,-4.5397,-4.5397,-4.5397,-4.5397,-4.5397,-4.5397,0.0,0.0,0.0,0.0,0.0,0.0,0.0,0.0,0.0,0.0,0.0,0.0,0.0,0.0,0.0,0.0,0.0,0.0,0.0,0.0,-5.3502,-5.3966,-5.319,-5.2684,-5.2606,-5.2684,-5.3346,-5.471,-5.5957,-5.6775,-5.7243,-5.6619,-5.5217,-5.3151,-5.2294,-5.1654,-5.1243,-5.122,-5.119,-5.1159,0.0,0.0,0.0,0.0,0.0,0.0,0.0,0.0,0.0,0.0,-4.6194,-4.5863,-4.6205,0.0,0.0,0.0,0.0,0.0,-4.327,-4.3284,-4.3057,-4.1113,-4.1226,-4.1643,0.0,0.0,0.0,0.0,0.0,0.0,0.0,0.0,-4.3548,-4.6211,-4.7999,-4.9893,-5.2271,-5.2865,-5.3237,-5.3757,-5.4091,-5.4017,-5.3311,-5.3571,-5.3794,-5.3794,-5.2745,-5.2193,-5.2412,-5.1187,-5.0204,-4.9647,-4.9043,-4.8354,-4.7663,-4.7235,-4.6885,-4.6695,-4.6545,-4.6377,-4.6178,-4.6178,-4.597,-4.5598,-4.5476,-4.5397,-4.5397,-4.5397,-4.5397,-4.5397,-4.5397,-4.5397,-4.5397,-4.5397,-4.5397,-4.5397,0.0,0.0,0.0,0.0,0.0,0.0,0.0,0.0,0.0,0.0,0.0,0.0,0.0,0.0,0.0,0.0,0.0,0.0,0.0,-5.3541,-5.4277,-5.5173,-5.455,-5.4087,-5.3814,-5.4048,-5.5061,-5.678,-5.7598,-5.8334,-5.8957,-5.6775,-5.4749,-5.2879,-5.1775,-5.1248,-5.1167,-5.0757,-5.0642,-5.0784,0.0,0.0,0.0,0.0,0.0,0.0,0.0,0.0,0.0,0.0,0.0,0.0,0.0,0.0,0.0,-4.5181,-4.4463,-4.3549,-4.2905,-4.2552,-4.2211,-4.1378,0.0,0.0,0.0,0.0,0.0,0.0,0.0,0.0,0.0,-4.4049,-4.5705,-4.8461,-4.9968,-5.1305,-5.294,-5.2828,-5.294,-5.398,-5.3534,-5.3348,-5.3757,-5.3645,-5.3496,-5.3401,-5.2166,-5.1487,-5.1589,-5.0286,-4.9473,-4.9473,-4.866,-4.8127,-4.7913,-4.7451,-4.6873,-4.6228,-4.608,-4.5895,-4.5794,-4.5794,-4.5794,-4.5803,-4.5701,-4.5673,-4.5673,-4.5673,-4.5673,-4.5638,-4.5466,-4.5397,-4.5432,-4.5604,-4.5569,-4.5397,0.0,0.0,0.0,0.0,0.0,0.0,0.0,0.0,0.0,0.0,0.0,0.0,0.0,0.0,0.0,0.0,0.0,0.0,0.0,-5.3849,-5.4277,-5.5173,-5.5134,-5.5801,-5.7282,-5.5879,-5.5918,-5.7598,-5.849,-5.8957,-5.8996,-5.7983,-5.6191,-5.3732,-5.1979,-5.1215,-5.1084,-4.9431,-4.9181,-4.9821,-4.8938,0.0,0.0,0.0,0.0,0.0,0.0,0.0,0.0,0.0,0.0,0.0,0.0,0.0,-4.5181,-4.4986,-4.4357,-4.3701,-4.3625,-4.3019,-4.2211,-4.1378,-4.1226,0.0,-4.2174,-4.1681,0.0,-4.197,0.0,0.0,0.0,-4.4854,-4.6901,-4.863,-5.0896,-5.2977,-5.4611,-5.5466,-5.5689,-5.502,-5.4871,-5.4574,-5.3868,-5.3125,-5.2566,-5.224,-5.0485,-4.9607,-5.0045,-4.8954,-4.8317,-4.8317,-4.8258,-4.7841,-4.7069,-4.7512,-4.7236,-4.6193,-4.6447,-4.6301,-4.5794,-4.5794,-4.5794,-4.5838,-4.6315,-4.6527,-4.6527,-4.6527,-4.6527,-4.6458,-4.5673,-4.5397,-4.55,-4.6224,-4.6017,-4.5397,0.0,0.0,0.0,0.0,0.0,0.0,0.0,0.0,0.0,0.0,0.0,0.0,0.0,0.0,0.0,0.0,0.0,0.0,0.0,-5.3073,-5.3732,-5.5134,-5.5212,-5.5762,-5.6935,-5.736,-5.8139,-5.9308,-5.9659,-5.9542,-5.8957,-5.7048,-5.5048,-5.2957,-5.1225,-5.0402,-5.0246,-4.9033,-4.8987,-4.9674,-4.8754,-4.7889,0.0,0.0,0.0,0.0,0.0,0.0,0.0,0.0,-4.5626,-4.5543,-4.5341,-4.5246,-4.5159,-4.4974,-4.3966,-4.2905,-4.2905,-4.2287,-4.1681,-4.192,-4.1946,0.0,0.0,-4.1737,-4.2068,-4.2936,-4.3818,0.0,0.0,0.0,-4.7776,-4.9373,-5.1751,-5.372,-5.4834,-5.528,-5.5169,-5.4351,-5.3831,-5.3385,-5.3088,-5.2345,-5.1936,-5.2089,-5.0297,-4.918,-4.9161,-4.8084,-4.7449,-4.7449,-4.7449,-4.7556,-4.7734,-4.7962,-4.8021,-4.7954,-4.7533,-4.7139,-4.679,-4.6755,-4.6653,-4.6569,-4.7049,-4.7286,-4.7286,-4.7286,-4.7286,-4.7217,-4.6431,-4.6148,-4.6121,-4.5914,-4.5638,-4.5397,0.0,0.0,0.0,0.0,0.0,0.0,0.0,0.0,0.0,0.0,0.0,0.0,0.0,0.0,0.0,0.0,0.0,0.0,-5.2528,-5.2606,-5.3268,-5.4745,-5.5056,-5.5489,-5.6074,-5.7983,-5.9269,-5.9893,-6.0165,-5.9576,-5.8121,-5.6091,-5.4354,-5.2785,-5.0825,-5.0181,-5.048,-4.8793,-4.8519,-4.9204,-4.8043,-4.7231,0.0,0.0,0.0,0.0,0.0,0.0,0.0,0.0,-4.5526,-4.5457,-4.5267,-4.5159,-4.5053,-4.4647,-4.3701,-4.2754,-4.2477,-4.1795,-4.1378,-4.2211,0.0,0.0,-4.2337,-4.2673,-4.3303,-4.4461,-4.5364,-4.6165,-4.6893,0.0,-4.8519,-4.9893,-5.2197,-5.3905,-5.4203,-5.424,-5.3943,-5.3162,-5.2568,-5.2234,-5.2234,-5.1417,-5.0933,-5.1176,-4.9622,-4.8502,-4.8191,-4.7442,-4.7105,-4.7377,-4.7377,-4.7747,-4.8532,-4.8805,-4.9102,-4.9465,-4.8908,-4.8346,-4.7748,-4.7611,-4.7457,-4.7378,-4.7845,-4.8051,-4.8051,-4.8051,-4.7775,-4.7327,-4.7052,-4.6665,-4.6217,-4.588,-4.5604,-4.5397,0.0,0.0,0.0,0.0,0.0,0.0,0.0,0.0,0.0,0.0,0.0,0.0,0.0,0.0,0.0,0.0,0.0,0.0,-5.2528,-5.2606,-5.2957,-5.3849,-5.4706,-5.5173,-5.5173,-5.7633,-5.8957,-5.8996,-5.9854,-5.8934,-5.6358,-5.5496,-5.4569,-5.3572,-5.0979,-5.0713,-5.2031,-4.8583,-4.7579,-4.8237,-4.6503,-4.5807,-4.5807,0.0,0.0,0.0,0.0,0.0,0.0,0.0,-4.5429,-4.5192,-4.5192,-4.5068,-4.4724,-4.3929,-4.3701,-4.3512,-4.264,-4.1844,-4.1378,-4.2211,0.0,0.0,-4.4345,-4.4789,-4.5135,-4.6613,-4.6716,-4.6773,-4.7553,-4.837,-4.9187,-4.9968,-5.2159,-5.3497,-5.2717,-5.2605,-5.2308,-5.1491,-5.1379,-5.1379,-5.1379,-5.0379,-4.9556,-4.92,-4.8119,-4.7341,-4.702,-4.6998,-4.7377,-4.8163,-4.8199,-4.8532,-4.9293,-5.0102,-5.0495,-5.053,-5.0495,-4.9806,-4.8495,-4.8242,-4.8108,-4.8151,-4.8605,-4.881,-4.881,-4.8775,-4.7913,-4.67,-4.7424,-4.6741,-4.55,-4.632,-4.6086,-4.5397,0.0,0.0,0.0,0.0,0.0,0.0,0.0,0.0,0.0,0.0,0.0,0.0,0.0,0.0,0.0,0.0,0.0,0.0,-5.1671,-5.171,-5.1787,-5.206,-5.2918,-5.3073,-5.2489,-5.4368,-5.6534,-5.8914,-5.8564,-5.737,-5.5408,-5.4502,-5.33,-5.1761,-5.0998,-5.0259,-4.9434,-4.7787,-4.7231,-4.7386,-4.6271,-4.5807,-4.5807,0.0,0.0,0.0,0.0,0.0,0.0,0.0,0.0,0.0,-4.5045,-4.4962,-4.4724,-4.3929,-4.3284,-4.2742,-4.2477,-4.2211,0.0,-4.3095,0.0,0.0,0.0,-4.5256,0.0,0.0,-4.838,-4.8356,-4.8536,-4.9224,-4.9707,-4.9336,-5.0859,-5.2048,-5.1788,-5.1751,-5.1454,-5.0599,-5.0488,-5.0488,-5.0488,-4.9437,-4.8913,-4.9163,-4.8119,-4.7341,-4.702,-4.6998,-4.7377,-4.8163,-4.8199,-4.8817,-5.0138,-5.0388,-5.078,-5.1315,-5.0403,-4.9731,-4.9328,-4.9258,-4.899,-4.8605,-4.8763,-4.881,-4.8741,-4.8224,-4.7775,-4.7327,-4.7044,-4.6665,-4.619,-4.588,-4.5604,-4.5397,0.0,0.0,0.0,0.0,0.0,0.0,0.0,0.0,0.0,0.0,-5.132,-5.132,0.0,0.0,0.0,0.0,0.0,0.0,0.0,-5.132,-5.132,-5.132,-5.1787,-5.2169,-5.2304,-5.3579,-5.4947,-5.629,-5.6469,-5.5674,-5.3935,-5.3735,-5.3074,-5.1988,-5.1981,-5.1223,-4.9823,-4.8624,-4.7927,-4.754,-4.6599,-4.6259,-4.6296,0.0,0.0,0.0,0.0,0.0,0.0,0.0,0.0,0.0,-4.4571,0.0,-4.4345,-4.3853,-4.3322,-4.2981,-4.3322,-4.317,0.0,-4.3966,-4.4535,-4.5205,-4.6353,0.0,0.0,0.0,-4.9752,-4.9606,-4.9837,-5.0042,-5.0005,-4.9447,-5.0228,-5.0896,-5.0896,-5.0599,-5.0228,-4.9707,-4.9633,-4.9691,-4.9861,-4.9175,-4.8899,-4.9392,-4.8395,-4.7689,-4.7484,-4.7199,-4.7377,-4.8163,-4.8199,-4.8805,-5.0006,-5.0031,-5.0281,-5.0744,-4.9923,-4.9431,-4.9223,-4.902,-4.8722,-4.8361,-4.8361,-4.8361,-4.8355,-4.8017,-4.761,-4.7217,-4.6903,-4.6496,-4.6052,-4.5569,-4.5397,-4.5397,0.0,0.0,-5.132,-5.132,0.0,0.0,0.0,0.0,0.0,0.0,-5.132,-5.132,0.0,0.0,0.0,0.0,0.0,0.0,0.0,-5.132,-5.1316,-5.139,-5.1386,-5.2143,-5.3774,-5.434,-5.3812,-5.22,-5.3903,-5.3812,-5.2063,-5.3039,-5.3421,-5.3382,-5.3373,-5.2832,-5.1818,-5.0148,-4.8903,-4.8044,-4.7144,-4.6822,-4.6908,-4.6617,0.0,0.0,0.0,0.0,0.0,0.0,0.0,0.0,-4.3966,-4.3701,-4.3663,-4.3587,-4.3587,-4.3777,-4.4573,-4.427,-4.3891,-4.4687,-4.5028,0.0,-4.6938,-4.8363,-4.9739,-5.0948,0.0,-5.0525,-5.1156,-5.0711,-5.019,-5.0042,-5.0042,-5.0079,-5.0005,-4.9373,-4.889,-4.889,-4.8964,-4.9175,-4.9543,-4.9358,-4.9356,-4.9694,-4.8778,-4.8163,-4.8091,-4.7413,-4.7377,-4.8163,-4.8199,-4.8532,-4.9293,-4.9293,-4.9293,-4.9293,-4.9174,-4.887,-4.839,-4.7966,-4.7693,-4.7596,-4.7658,-4.7562,-4.7493,-4.7819,-4.7349,-4.6546,-4.6804,-4.6274,-4.545,-4.545,-4.545,-4.545,0.0,0.0,-5.132,-5.132,0.0,0.0,0.0,0.0,0.0,0.0,0.0,0.0,0.0,-5.132,0.0,0.0,0.0,0.0,0.0,-5.132,-5.1576,-5.2193,-5.2191,-5.2669,-5.3707,-5.2518,-5.1657,-5.1294,-5.2369,-5.1992,-5.0271,-5.1788,-5.2477,-5.2453,-5.2361,-5.1459,-4.9907,-4.8095,-4.6857,-4.6041,-4.5812,-4.5744,-4.5763,-4.5697,-4.5573,0.0,0.0,0.0,0.0,0.0,0.0,0.0,-4.3966,-4.3701,-4.3587,-4.2867,-4.2678,-4.2867,-4.3739,-4.3815,0.0,-4.4687,-4.5899,-4.7048,-4.7828,-4.8717,-4.9449,-4.9575,-5.0427,-5.1008,-5.0488,-5.0785,-5.0711,-4.9373,-4.9707,-4.9893,-4.9262,-4.9002,-4.889,-4.889,-4.9447,-4.9768,-4.9636,-4.9927,-4.9777,-4.8995,-4.8455,-4.7913,-4.7306,-4.7069,-4.7377,-4.8163,-4.8199,-4.8532,-4.9293,-4.9293,-4.9293,-4.9293,-4.83,-4.7769,-4.7643,-4.8111,-4.776,-4.6837,-4.7045,-4.6672,-4.5933,-4.6393,-4.6339,-4.597,-4.6047,-4.5917,-4.5727,-4.5727,-4.5727,-4.5727,0.0,0.0,0.0,0.0,0.0,0.0,0.0,0.0,0.0,0.0,0.0,0.0,0.0,-5.132,0.0,0.0,-5.1248,0.0,0.0,0.0,-5.1395,-5.1825,-5.2155,-5.2356,-5.2395,-5.1467,-5.0579,-4.9766,-4.9773,-4.9729,-4.9572,-5.0894,-5.167,-5.1943,-5.1886,-5.0923,-4.9212,-4.7866,-4.679,-4.6014,-4.5934,-4.5686,-4.5438,-4.5687,-4.5333,-4.4697,-4.4984,0.0,0.0,0.0,0.0,0.0,0.0,0.0,-4.2981,-4.2515,-4.2401,-4.2678,-4.3929,0.0,0.0,-4.5293,0.0,-4.6955,-4.798,-4.849,-4.8792,-4.8986,-4.9946,-5.0636,-5.019,-5.0488,-5.0376,-4.9113,-4.9262,-4.9373,-4.8964,-4.889,-4.889,-4.889,-4.9262,-4.9639,-4.9915,-4.9825,-4.9713,-4.9575,-4.8721,-4.802,-4.7592,-4.7212,-4.7176,-4.7627,-4.7627,-4.7783,-4.8211,-4.8211,-4.8032,-4.7617,-4.6838,-4.6244,-4.5747,-4.6745,-4.6698,-4.5882,-4.6384,-4.6028,-4.5078,-4.5855,-4.602,-4.5794,-4.592,-4.597,-4.597,-4.597,-4.597,-4.597,0.0,0.0,0.0,0.0,0.0,0.0,0.0,0.0,0.0,0.0,0.0,0.0,0.0,0.0,-5.1049,0.0,0.0,0.0,0.0,0.0,0.0,-5.1301,-5.1935,-5.1932,-5.1235,-5.0859,-4.9939,-4.8392,-4.754,-4.7828,-4.919,-5.0085,-5.0846,-5.1508,-5.1305,-5.0374,-4.8858,-4.7688,-4.6797,-4.6164,-4.5862,-4.5398,-4.4929,-4.5387,-4.4744,-4.3727,-4.4443,-4.4687,-4.4724,-4.4838,0.0,0.0,0.0,0.0,-4.2401,-4.2401,-4.2401,-4.2716,-4.408,0.0,-4.4952,-4.5937,-4.6088,0.0,-4.768,-4.7919,-4.8002,-4.857,-4.9336,-4.9893,-4.9893,-4.9893,-4.967,-4.9002,-4.889,-4.889,-4.889,-4.889,-4.889,-4.889,-4.8986,-4.9326,-5.0034,-4.9586,-4.9488,-5.0044,-4.8805,-4.7949,-4.7806,-4.6998,-4.6569,-4.6569,-4.6569,-4.6569,-4.6569,-4.6569,-4.6248,-4.5606,-4.5382,-4.4834,-4.4026,-4.5075,-4.5261,-4.4845,-4.555,-4.5334,-4.4481,-4.5488,-4.5789,-4.5645,-4.5895,-4.6088,-4.6228,-4.6277,-4.6277,-4.6277,0.0,0.0,0.0,0.0,0.0,0.0,0.0,0.0,0.0,0.0,-5.122,-5.1201,0.0,0.0,0.0,-5.0054,-5.0054,-5.0087,-5.0042,0.0,0.0,-5.2122,-5.2206,-5.2167,-5.2051,-5.0604,-4.9397,-4.8392,-4.754,-4.7519,-4.8304,-4.9151,-4.9971,-5.0626,-4.9755,-4.8808,-4.7728,-4.5308,-4.4201,-4.4049,-4.3255,-4.2876,-4.2822,-4.2879,-4.2765,-4.2712,-4.3561,-4.3853,-4.3966,-4.4649,-4.4914,0.0,0.0,0.0,-4.2401,-4.2401,-4.2401,-4.2439,-4.2666,0.0,-4.4232,0.0,-4.619,-4.634,0.0,0.0,-4.7267,-4.7768,-4.8519,-4.9076,-4.9076,-4.9076,-4.9039,-4.8927,-4.889,-4.889,-4.889,-4.889,-4.889,-4.889,-4.9289,-4.9522,-4.9289,-4.9575,-4.9447,-4.8579,-4.7663,-4.6855,-4.6177,-4.5356,-4.4906,-4.4906,-4.4906,-4.4906,-4.4906,-4.4906,-4.487,-4.4763,-4.4578,-4.4408,-4.4256,-4.441,-4.4307,-4.4073,-4.4412,-4.4214,-4.3704,-4.4307,-4.4659,-4.4878,-4.5148,-4.5631,-4.6253,-4.6471,-4.6542,-4.6542,0.0,0.0,0.0,0.0,0.0,0.0,0.0,0.0,0.0,0.0,0.0,-5.1114,0.0,0.0,0.0,-5.0526,-5.0526,-5.0313,-4.9814,-5.0439,-5.0843,-5.0843,-5.0813,-5.1022,-5.1447,-4.9823,-4.8778,-4.8392,-4.7038,-4.6939,-4.7982,-4.8366,-4.9179,-5.0279,-4.8755,-4.787,-4.7376,-4.4811,-4.3701,-4.3625,-4.2754,-4.2401,-4.2401,-4.2401,-4.2401,-4.2439,-4.2829,-4.2981,-4.3095,-4.3929,-4.3891,-4.3436,-4.3095,0.0,0.0,0.0,-4.134,-4.1908,-4.2867,-4.3398,-4.4004,0.0,-4.5433,-4.5506,-4.6153,-4.6225,-4.6442,-4.7491,-4.7627,-4.7813,-4.8742,-4.889,-4.889,-4.889,-4.889,-4.889,-4.889,-4.889,-4.889,-4.889,-4.8919,-4.9023,-4.9106,-4.8357,-4.7759,-4.7543,-4.6355,-4.5499,-4.5178,-4.4799,-4.4585,-4.4585,-4.4585,-4.4585,-4.4585,-4.4585,-4.4306,-4.377,-4.3365,-4.3087,-4.2957,-4.3109,-4.3358,-4.3709,-4.4245,-4.4018,-4.3312,-4.4021,-4.4364,-4.453,-4.5035,-4.5564,-4.6035,-4.6635,-4.6801,-4.6801,0.0,0.0,0.0,0.0,0.0,0.0,0.0,0.0,0.0,0.0,0.0,0.0,0.0,0.0,0.0,0.0,-5.0336,-5.0076,-4.9397,-4.9591,-4.9591,-4.9397,-4.9591,-4.99,-5.0241,-4.8787,-4.8037,-4.8037,-4.6461,-4.6339,-4.7576,-4.7535,-4.8253,-4.9501,-4.8049,-4.715,-4.662,-4.4345,-4.336,-4.3284,-4.245,-4.2109,-4.2098,-4.2325,-4.2401,-4.2401,-4.2401,-4.2401,-4.2488,-4.317,-4.2943,-4.2401,-4.2401,-4.1832,0.0,0.0,0.0,0.0,0.0,0.0,-4.3322,-4.4345,-4.4537,-4.4599,0.0,0.0,-4.5611,-4.6859,-4.6624,-4.6624,-4.8036,-4.8296,-4.837,-4.8556,-4.8407,-4.837,-4.8556,-4.8593,-4.8667,-4.889,-4.8532,-4.8431,-4.8814,-4.7187,-4.6342,-4.6663,-4.5213,-4.43,-4.43,-4.4121,-4.4036,-4.4036,-4.4036,-4.4036,-4.4036,-4.4036,-4.3629,-4.2888,-4.251,-4.2205,-4.2002,-4.2225,-4.2588,-4.3109,-4.3679,-4.3478,-4.2763,-4.3363,-4.3694,-4.3895,-4.4774,-4.5359,-4.5802,-4.6689,-4.6998,-4.6998,0.0,0.0,0.0,0.0,0.0,0.0,0.0,0.0,0.0,0.0,0.0,0.0,-5.0921,-5.0217,-4.9443,-4.8592,-4.8554,-4.8515,-4.8469,-4.9243,-4.932,-4.8508,-4.9243,0.0,-4.8546,-4.751,-4.6981,-4.6981,-4.5926,-4.588,-4.6752,-4.6587,-4.6957,-4.7835,-4.7517,-4.6506,-4.4914,-4.3208,-4.2477,-4.2401,-4.1567,-4.1264,-4.134,-4.2098,-4.2401,-4.2401,-4.2401,-4.2401,-4.2401,-4.2439,-4.2439,-4.2401,-4.2401,-4.1832,-4.1188,0.0,0.0,0.0,0.0,-4.1908,0.0,-4.336,-4.3765,-4.3881,0.0,-4.4557,-4.4734,-4.5276,-4.5398,-4.5621,-4.6475,-4.6624,-4.6884,-4.7627,-4.7107,-4.6884,-4.7664,-4.7776,-4.8036,-4.8816,-4.8401,-4.8012,-4.8028,-4.6686,-4.5842,-4.5856,-4.4428,-4.3551,-4.3551,-4.2822,-4.2394,-4.2394,-4.2394,-4.2394,-4.2394,-4.2394,-4.2394,-4.2358,-4.2287,-4.2287,-4.2287,-4.2287,-4.2163,-4.1987,-4.2023,-4.1894,-4.1697,-4.1732,-4.2053,-4.2626,-4.3883,-4.4807,-4.5574,-4.6608,-4.6998,-4.6998,0.0,0.0,0.0,0.0,0.0,0.0,0.0,0.0,0.0,0.0,0.0,0.0,0.0,-4.9668,-4.8972,-4.9204,-4.8701,-4.8159,-4.7579,-4.785,-4.8121,-4.8392,-4.8701,-4.9165,-4.9847,-4.8463,-4.7661,-4.7559,-4.6081,-4.5773,-4.6511,-4.6446,-4.6508,-4.6731,-4.6657,-4.6278,-4.5634,-4.3966,-4.3246,-4.317,-4.2299,-4.2299,-4.2791,-4.2488,-4.2754,-4.317,-4.259,-4.2401,-4.2477,-4.3057,-4.2526,-4.1719,-4.2249,-4.1454,-4.0355,-4.0355,0.0,0.0,0.0,0.0,0.0,-4.2602,-4.3284,-4.3729,-4.3843,-4.4175,-4.4716,-4.5425,-4.4982,-4.491,-4.636,-4.6557,-4.6587,-4.6884,-4.6698,-4.6587,-4.6884,-4.6921,-4.7033,-4.733,-4.6838,-4.6537,-4.6708,-4.5421,-4.4566,-4.4566,-4.3596,-4.2884,-4.2736,-4.2465,-4.2308,-4.2308,-4.2308,-4.2308,-4.2308,-4.2308,-4.2308,-4.2308,-4.2308,-4.2308,-4.2287,-4.2142,-4.2065,-4.2163,-4.1845,-4.1758,-4.1823,-4.1995,-4.2455,-4.3205,-4.4125,-4.4974,-4.5779,-4.6689,-4.6998,-4.6998,0.0,0.0,0.0,0.0,0.0,0.0,0.0,0.0,0.0,-4.9668,0.0,0.0,0.0,0.0,-4.8817,-4.8817,-4.8043,-4.727,-4.6689,-4.6885,-4.7171,-4.7442,-4.7943,-4.8724,-4.974,-4.8347,-4.7654,-4.782,-4.6073,-4.5453,-4.5902,-4.5902,-4.5832,-4.5748,-4.5483,-4.552,-4.5672,-4.4308,-4.3701,-4.3663,-4.3057,-4.317,-4.3663,-4.336,-4.3587,-4.3992,-4.3073,-4.2759,-4.2822,-4.305,-4.2396,-4.1527,-4.1839,-4.1003,-3.99,-3.99,0.0,0.0,-4.062,0.0,0.0,0.0,-4.2569,-4.2949,-4.3627,-4.3895,-4.421,-4.4976,-4.455,-4.4352,-4.5578,-4.5738,-4.5769,-4.603,-4.5844,-4.5769,-4.6067,-4.6104,-4.6178,-4.6475,-4.6064,-4.5792,-4.5974,-4.4742,-4.392,-4.392,-4.3064,-4.2494,-4.2308,-4.2308,-4.2308,-4.2308,-4.2308,-4.2308,-4.2308,-4.2308,-4.2308,-4.2308,-4.2308,-4.2308,-4.2287,-4.2002,-4.1938,-4.2058,-4.1823,-4.1943,-4.2306,-4.2512,-4.3038,-4.3857,-4.467,-4.532,-4.5891,-4.6712,-4.6998,-4.6998,0.0,0.0,0.0,0.0,0.0,0.0,0.0,0.0,-4.8701,-4.9544,0.0,0.0,0.0,0.0,0.0,-4.7224,-4.6296,-4.5793,-4.5793,-4.646,-4.6502,-4.5654,-4.705,-4.7854,-4.7893,-4.692,-4.6793,-4.7682,-4.5808,-4.4914,-4.4914,-4.4914,-4.4876,-4.4838,-4.408,-4.4156,-4.4762,-4.4004,-4.3701,-4.3739,-4.3701,-4.3701,-4.3803,-4.4599,-4.4902,-4.4776,-4.3882,-4.3529,-4.3391,-4.2395,-4.2042,-4.1918,-4.1242,-4.0492,-3.99,-3.99,0.0,0.0,0.0,0.0,0.0,0.0,-4.1556,-4.1582,-4.3718,-4.3571,-4.3191,-4.3847,-4.3986,-4.3986,-4.3986,-4.3986,-4.4283,-4.5101,-4.4544,-4.4283,-4.5138,-4.5249,-4.5547,-4.6327,-4.6148,-4.5918,-4.5936,-4.4688,-4.3884,-4.3884,-4.292,-4.2308,-4.2308,-4.2308,-4.2308,-4.2308,-4.2308,-4.2308,-4.2308,-4.2308,-4.2308,-4.2308,-4.2308,-4.2308,-4.2287,-4.2002,-4.1788,-4.1626,-4.1809,-4.2355,-4.3085,-4.312,-4.3603,-4.4404,-4.541,-4.582,-4.5927,-4.6712,-4.6998,-4.6998,0.0,0.0,0.0,0.0,0.0,0.0,-4.8933,-4.8546,-4.8439,0.0,0.0,0.0,-4.95,-4.8914,-4.7943,-4.6828,-4.652,-4.6136,-4.5568,-4.5686,-4.6004,-4.6397,-4.681,-4.7277,-4.7723,-4.6865,-4.647,-4.6593,-4.5469,-4.4914,-4.4914,-4.4914,-4.4573,-4.4042,-4.4421,-4.4042,-4.3095,-4.2856,-4.3474,-4.4535,-4.3929,-4.3982,-4.4461,-4.4688,-4.4699,-4.4568,-4.4339,-4.4199,-4.4161,-4.3895,-4.3498,-4.285,-4.155,-4.056,0.0,-3.9773,0.0,0.0,-3.9658,0.0,0.0,0.0,0.0,0.0,-4.1616,-4.2421,-4.31,-4.3418,-4.3782,-4.4017,-4.4192,-4.4101,-4.4098,-4.4321,-4.4172,-4.4098,-4.4321,-4.4358,-4.4432,-4.4655,-4.4428,-4.4328,-4.451,-4.3868,-4.3377,-4.3377,-4.2876,-4.2494,-4.2308,-4.2308,-4.2308,-4.2308,-4.2308,-4.2308,-4.2308,-4.2308,-4.2308,-4.2308,-4.2308,-4.2308,-4.2287,-4.2002,-4.1995,-4.21,-4.1938,-4.2355,-4.3142,-4.3294,-4.3734,-4.4404,-4.541,-4.6177,-4.6676,-4.6926,-4.6998,-4.6998,0.0,0.0,-5.0882,-5.0833,0.0,-4.9911,-4.8887,-4.8116,-4.785,0.0,0.0,0.0,-4.9053,-4.8429,-4.7547,-4.6694,-4.6282,-4.5899,-4.5438,-4.5341,-4.5541,-4.6038,-4.6358,-4.6679,-4.707,-4.6575,-4.6288,-4.6203,-4.5331,-4.4914,-4.4914,-4.4914,-4.4459,-4.3701,-4.3815,-4.3322,-4.2363,-4.1643,-4.2325,-4.3841,-4.3679,-4.3832,-4.4246,-4.4519,-4.4565,-4.4482,-4.4426,-4.4397,-4.4383,-4.4325,-4.361,-4.2621,-4.172,-4.0915,-4.0196,-3.976,-3.9934,0.0,0.0,0.0,0.0,-3.9902,0.0,0.0,-4.1009,-4.1824,-4.2528,-4.2987,-4.3603,-4.4055,-4.4162,-4.4085,-4.3986,-4.3986,-4.3986,-4.3986,-4.3986,-4.3986,-4.3986,-4.3986,-4.386,-4.3828,-4.3971,-4.3512,-4.3214,-4.3214,-4.2787,-4.2454,-4.2308,-4.2308,-4.2308,-4.2308,-4.2308,-4.2308,-4.2308,-4.2308,-4.2308,-4.2308,-4.2308,-4.2308,-4.2287,-4.2002,-4.198,-4.2142,-4.1852,-4.2048,-4.2529,-4.3123,-4.3926,-4.4901,-4.5909,-4.6569,-4.6998,-4.6998,-4.6998,-4.6998,0.0,0.0,-5.0825,-5.0701,-5.0018,-4.9433,-4.9217,-4.7882,-4.7461,0.0,-4.8388,-4.8186,-4.9056,-4.8301,-4.742,-4.6605,-4.5888,-4.5466,-4.5351,-4.5218,-4.517,-4.517,-4.5732,-4.6051,-4.6051,-4.6051,-4.6051,-4.6051,-4.5293,-4.4914,-4.4914,-4.48,-4.4345,-4.3512,-4.2754,-4.2287,-4.2022,-4.0609,-4.0863,-4.2302,-4.3051,-4.3403,-4.3515,-4.4209,-4.4454,-4.4426,-4.4296,-4.4289,-4.4237,-4.4101,-4.3103,-4.195,-4.1964,-4.1499,-4.0778,-3.9977,-4.0315,0.0,0.0,0.0,0.0,-4.0544,-4.0144,0.0,-4.1155,-4.1534,-4.1757,-4.2389,-4.3169,-4.3726,-4.3726,-4.3801,-4.3838,-4.3763,-4.3875,-4.3986,-4.3986,-4.3986,-4.3986,-4.3986,-4.3986,-4.3986,-4.3986,-4.3512,-4.3214,-4.3251,-4.2671,-4.2328,-4.2308,-4.2308,-4.2308,-4.2308,-4.2308,-4.2308,-4.2308,-4.2308,-4.2308,-4.2308,-4.2308,-4.2308,-4.2287,-4.2044,-4.1938,-4.1917,-4.1758,-4.167,-4.1719,-4.2736,-4.4015,-4.5491,-4.6466,-4.6926,-4.6998,-4.6998,-4.6998,-4.6998,-5.0547,-5.0517,-5.0507,-5.0476,-5.0322,-4.9995,-4.9311,-4.8917,-4.876,-4.8949,-4.8121,-4.7846,-4.872,-4.7428,-4.6478,-4.6288,-4.6124,-4.5756,-4.5022,-4.4948,-4.4974,-4.4974,-4.509,-4.5141,-4.5141,-4.5141,-4.5141,-4.5141,-4.499,-4.4914,-4.4876,-4.4232,-4.3474,-4.2628,-4.2477,-4.1643,-4.0419,-4.0669,-4.0974,-4.1352,-4.2146,-4.2722,-4.3208,-4.4026,-4.4237,-4.4079,-4.4085,-4.407,-4.4085,-4.4192,-4.3565,-4.2786,-4.2875,-4.2404,-4.1715,-4.1421,-4.155,-4.1689,-4.132,-4.1274,-4.1353,-4.1398,-4.1281,0.0,-4.0694,-4.1126,-4.146,-4.0977,-4.1497,-4.2054,-4.2054,-4.2612,-4.2835,-4.2166,-4.3169,-4.3986,-4.3986,-4.3986,-4.3986,-4.3986,-4.3986,-4.3986,-4.3986,-4.3512,-4.3268,-4.3512,-4.2958,-4.2534,-4.2308,-4.2308,-4.2308,-4.2308,-4.2308,-4.2308,-4.2308,-4.2308,-4.2308,-4.2308,-4.2308,-4.2308,-4.2308,-4.2246,-4.2225,-4.2225,-4.2184,-4.2058,-4.1923,-4.2974,-4.3863,-4.4617,-4.5624,-4.6427,-4.6998,-4.6998,-4.6998,-4.6998,-4.9332,-4.981,-5.0248,-4.9739,-5.0023,-5.0142,-4.9628,-4.9196,-4.9046,-4.9366,-4.8618,-4.8225,-4.8642,-4.7201,-4.6203,-4.6203,-4.5786,-4.5369,-4.4914,-4.4914,-4.4914,-4.4914,-4.4914,-4.4914,-4.4914,-4.4914,-4.4914,-4.4914,-4.4497,-4.4308,-4.427,-4.3436,-4.2782,-4.2307,-4.1961,-4.1271,-4.0361,-4.0335,-4.0263,-4.0253,-4.1479,-4.2411,-4.3057,-4.3841,-4.4101,-4.3986,-4.3986,-4.3986,-4.4039,-4.4131,-4.3588,-4.2932,-4.2967,-4.2735,-4.2296,-4.1851,-4.2029,-4.2281,-4.1764,-4.1667,-4.1673,-4.1638,-4.1311,0.0,0.0,-4.0731,-4.088,-4.0457,-4.1014,-4.1609,-4.1609,-4.224,-4.2686,-4.224,-4.3206,-4.3986,-4.3986,-4.3986,-4.3986,-4.3986,-4.3986,-4.3986,-4.3986,-4.3512,-4.3124,-4.294,-4.2789,-4.2593,-4.2308,-4.2308,-4.2308,-4.2308,-4.2308,-4.2308,-4.2308,-4.2308,-4.2308,-4.2308,-4.2308,-4.2308,-4.2308,-4.2308,-4.2308,-4.2287,-4.2163,-4.2121,-4.2121,-4.2527,-4.3188,-4.4027,-4.5312,-4.6284,-4.6998,-4.6998,-4.6998,-4.6998,-4.8077,-4.9034,-4.9744,-4.8791,-4.9453,-5.0051,-4.973,-4.9134,-4.8869,-4.9362,-4.8717,-4.8211,-4.8185,-4.6809,-4.5963,-4.6088,-4.5332,-4.484,-4.4865,-4.4877,-4.4814,-4.4687,-4.4838,-4.4914,-4.4914,-4.4762,-4.4687,-4.4687,-4.3853,-4.3436,-4.3436,-4.2552,-4.2191,-4.2208,-4.1498,-4.1125,-4.1004,-4.0201,-3.9915,-4.012,-4.1288,-4.2057,-4.2588,-4.3438,-4.3763,-4.3801,-4.3949,-4.3986,-4.3986,-4.3986,-4.3578,-4.302,-4.302,-4.302,-4.2909,-4.224,-4.25,-4.2872,-4.224,-4.2054,-4.2054,-4.2054,-4.1571,-4.1051,0.0,0.0,0.0,-4.0606,-4.1014,-4.1423,-4.1571,-4.2129,-4.25,-4.2352,-4.3132,-4.3726,-4.354,-4.3801,-4.4061,-4.4246,-4.4098,-4.4061,-4.4246,-4.3708,-4.3087,-4.245,-4.2652,-4.2652,-4.2328,-4.2308,-4.2308,-4.2308,-4.2308,-4.2308,-4.2308,-4.2308,-4.2308,-4.2308,-4.2308,-4.2308,-4.2308,-4.2308,-4.2308,-4.2287,-4.2044,-4.2044,-4.2225,-4.2058,-4.2541,-4.3579,-4.5013,-4.607,-4.6783,-4.6926,-4.6998,-4.6998,-4.7492,-4.8213,-4.8631,-4.7732,-4.8857,-4.9692,-4.8945,-4.8755,-4.8452,-4.7757,-4.6961,-4.643,-4.6223,-4.5417,-4.5125,-4.5702,-4.5026,-4.4592,-4.4699,-4.4725,-4.4449,-4.3853,-4.4535,-4.4914,-4.4914,-4.4194,-4.3853,-4.3853,-4.2981,-4.2564,-4.2515,-4.1719,-4.1719,-4.234,-4.1413,-4.1391,-4.1971,-4.0939,-4.1305,-4.252,-4.1882,-4.1266,-4.0857,-4.2367,-4.2946,-4.302,-4.3726,-4.3986,-4.3986,-4.3986,-4.3949,-4.3875,-4.3875,-4.3875,-4.3838,-4.3763,-4.3801,-4.3838,-4.3763,-4.3726,-4.3726,-4.3726,-4.3652,-4.3392,-4.2686,0.0,-4.146,-4.146,0.0,-4.0754,-4.146,0.0,0.0,-4.0791,-4.1943,-4.2686,-4.198,-4.3095,-4.4283,-4.5064,-4.4469,-4.4283,-4.5064,-4.4422,-4.3543,-4.2713,-4.2957,-4.2882,-4.2328,-4.2308,-4.2308,-4.2308,-4.2308,-4.2308,-4.2308,-4.2308,-4.2308,-4.2308,-4.2308,-4.2308,-4.2308,-4.2308,-4.2308,-4.2308,-4.2267,-4.2142,-4.1959,-4.2184,-4.2604,-4.3257,-4.4306,-4.5249,-4.6034,-4.6748,-4.6998,-4.6998,-4.5937,-4.7036,-4.7694,-4.6847,0.0,0.0,-4.7984,-4.8376,-4.8376,-4.7491,-4.7112,-4.6872,-4.677,-4.6038,-4.5645,-4.5875,-4.5523,-4.5135,-4.4736,-4.4699,-4.4612,-4.4409,-4.427,-4.4194,-4.4194,-4.3398,-4.2943,-4.2943,-4.2109,-4.1681,-4.1681,-4.0847,-4.0817,-4.148,-4.1153,-4.133,-4.1842,-4.1441,-4.1372,-4.151,-4.1564,-4.1126,-4.0606,-4.2723,-4.3503,-4.354,-4.3875,-4.3986,-4.3986,-4.3986,-4.3986,-4.3986,-4.3986,-4.3986,-4.3986,-4.3986,-4.3986,-4.3986,-4.3986,-4.3986,-4.3986,-4.3986,-4.3652,-4.3206,-4.2872,-4.2166,-4.1609,-4.1609,0.0,0.0,0.0,0.0,0.0,0.0,-4.2463,-4.3058,-4.1757,-4.2575,-4.3615,-4.4432,-4.4209,-4.4072,-4.4276,-4.4575,-4.418,-4.2787,-4.3449,-4.3427,-4.2364,-4.2308,-4.2308,-4.2308,-4.2308,-4.2308,-4.2308,-4.2308,-4.2308,-4.2308,-4.2308,-4.2308,-4.2308,-4.2308,-4.2308,-4.2308,-4.2308,-4.2246,-4.2163,-4.2267,-4.2424,-4.2768,-4.41,-4.5106,-4.5891,-4.6712,-4.6998,-4.6998,-4.4914,-4.6051,-4.6809,-4.5975,-4.6695,0.0,-4.7112,-4.7618,-4.7694,-4.6809,-4.6695,-4.6784,-4.6932,-4.6617,-4.6399,-4.6468,-4.6229,-4.5754,-4.4955,-4.4705,-4.4546,-4.4424,-4.4084,-4.3819,-4.3592,-4.2747,-4.2229,-4.1978,-4.1169,-4.0916,-4.1143,-4.0201,-4.041,-4.1506,-4.1306,-4.1638,-4.2314,-4.2164,-4.1822,-4.1423,-4.1757,-4.172,-4.1534,-4.3095,-4.3801,-4.3986,-4.3986,-4.3986,-4.3986,-4.3986,-4.3986,-4.3986,-4.3986,-4.3986,-4.3986,-4.3986,-4.3986,-4.3986,-4.3986,-4.3986,-4.3986,-4.3986,-4.354,-4.3132,-4.3132,-4.25,-4.198,-4.2203,-4.2092,0.0,0.0,0.0,0.0,0.0,0.0,-4.3206,-4.1794,-4.2277,-4.3095,-4.3912,-4.4209,-4.4183,-4.373,-4.467,-4.462,-4.2956,-4.3796,-4.3809,-4.2364,-4.2308,-4.2308,-4.2308,-4.2308,-4.2308,-4.2308,-4.2308,-4.2308,-4.2308,-4.2308,-4.2308,-4.2308,-4.2308,-4.2308,-4.2308,-4.2308,-4.2267,-4.2205,-4.2267,-4.2409,-4.2668,-4.4064,-4.5106,-4.5891,-4.6712,-4.6998,-4.6998,-4.4914,-4.5634,0.0,-4.5103,-4.6316,-4.715,-4.6354,-4.6241,-4.5975,-4.5103,-4.499,-4.5193,-4.5688,-4.6448,-4.7079,-4.7603,-4.6954,-4.6201,-4.5521,-4.4767,-4.398,-4.3294,-4.4059,-4.4134,-4.3308,-4.2598,-4.1745,-4.0854,-4.0111,-4.0196,-4.0976,-3.9989,-4.0892,-4.3366,-4.2275,-4.2674,-4.4154,-4.317,-4.3206,-4.3838,-4.3058,-4.3206,-4.3801,-4.3095,-4.3318,-4.3986,-4.3986,-4.3986,-4.3986,-4.3986,-4.3986,-4.3986,-4.3986,-4.3986,-4.3986,-4.3986,-4.3986,-4.3986,-4.3986,-4.3986,-4.3986,-4.3986,-4.3986,-4.3949,-4.3949,-4.3355,-4.2983,-4.3763,-4.3318,-4.2983,-4.3763,-4.3318,0.0,0.0,0.0,0.0,0.0,-4.2277,-4.3095,-4.3912,-4.4729,-4.4915,-4.4082,-4.4766,-4.4704,-4.3269,-4.3944,-4.3809,-4.2364,-4.2308,-4.2308,-4.2308,-4.2308,-4.2308,-4.2308,-4.2308,-4.2308,-4.2308,-4.2308,-4.2308,-4.2308,-4.2308,-4.2308,-4.2308,-4.2308,-4.2163,-4.1917,-4.2205,-4.259,-4.3178,-4.4177,-4.5106,-4.5891,-4.6712,-4.6998,-4.6998,-4.4776,-4.5003,-4.5155,-4.494,-4.5369,-4.5634,-4.5369,-4.571,-4.6099,-4.6299,-4.6783,-4.7362,-4.8085,-4.8408,-4.8368,-4.7954,-4.7639,-4.6946,-4.5596,-4.5238,-4.4789,-4.4106,-4.3782,-4.352,-4.3257,-4.1944,-4.113,-4.0791,-3.9964,0.0,0.0,0.0,0.0,0.0,-4.2291,-4.2565,-4.2552,-4.3311,-4.3429,-4.3169,-4.2909,-4.328,-4.3986,-4.3689,-4.3763,-4.3986,-4.3986,-4.3986,-4.3986,-4.3986,-4.3986,-4.3986,-4.3986,-4.3986,-4.3986,-4.3986,-4.3986,-4.3986,-4.3986,-4.3986,-4.3986,-4.3986,-4.3986,-4.3986,-4.3986,-4.3801,-4.3652,-4.3949,-4.3763,-4.3689,-4.3949,0.0,0.0,0.0,0.0,0.0,0.0,-4.1014,-4.1497,-4.2314,-4.3132,-4.3726,-4.3986,-4.4584,-4.4481,-4.3269,-4.3776,-4.3595,-4.2364,-4.2308,-4.2308,-4.2308,-4.2308,-4.2308,-4.2308,-4.2308,-4.2308,-4.2308,-4.2308,-4.2308,-4.2308,-4.2308,-4.2308,-4.2308,-4.2308,-4.2246,-4.2184,-4.2267,-4.2709,-4.3465,-4.4278,-4.5106,-4.5891,-4.6712,-4.6998,-4.6975,-4.4708,-4.4632,-4.4659,-4.4751,-4.4764,-4.4764,-4.4764,-4.559,-4.6426,-4.6977,-4.768,-4.8468,-4.923,-4.9289,-4.9017,-4.8385,-4.8331,-4.7623,-4.5966,-4.5593,-4.508,-4.4362,-4.3764,-4.3352,-4.3053,-4.2098,-4.1424,-4.1071,-4.0562,-4.0739,0.0,0.0,0.0,0.0,0.0,-4.2329,-4.2092,-4.3429,-4.3689,-4.3243,-4.3243,-4.354,-4.3986,-4.3986,-4.3986,-4.3986,-4.3986,-4.3986,-4.3986,-4.3986,-4.3986,-4.3986,-4.3986,-4.3986,-4.3986,-4.3986,-4.3986,-4.3986,-4.3986,-4.3986,-4.3986,-4.3986,-4.3986,-4.3986,-4.3986,-4.3986,-4.3986,-4.3986,-4.3986,-4.3986,-4.3986,-4.3986,0.0,0.0,0.0,0.0,0.0,-4.0843,-4.1014,-4.1534,-4.2314,-4.3132,-4.3912,-4.4325,-4.4149,-4.3269,-4.3615,-4.3387,-4.2364,-4.2409,-4.2517,-4.2715,-4.2715,-4.2858,-4.3108,-4.2858,-4.2715,-4.2715,-4.243,-4.2308,-4.2308,-4.2308,-4.2308,-4.2308,-4.2308,-4.2308,-4.2308,-4.2308,-4.2787,-4.3551,-4.4213,-4.4974,-4.5757,-4.6562,-4.6778,-4.6684,-4.458,-4.4468,-4.4468,-4.4468,-4.4519,-4.4482,-4.4482,-4.5871,-4.6907,-4.6982,-4.768,-4.8481,-4.9144,-4.9202,-4.9098,-4.8907,-4.889,-4.8221,-4.6661,-4.5807,-4.4952,-4.4098,-4.4023,-4.3652,-4.2872,-4.2932,-4.2537,-4.1646,-4.1754,0.0,0.0,0.0,0.0,0.0,-4.2017,0.0,-4.2797,-4.3652,-4.3986,-4.3986,-4.3986,-4.3986,-4.3986,-4.3986,-4.3986,-4.3986,-4.3986,-4.3986,-4.3986,-4.3986,-4.3986,-4.3986,-4.3986,-4.3986,-4.3986,-4.3986,-4.3986,-4.3986,-4.3986,-4.3986,-4.3986,-4.3986,-4.3986,-4.3986,-4.3986,-4.3986,-4.3986,-4.3986,-4.3986,-4.3986,-4.3986,-4.3986,-4.3503,0.0,0.0,0.0,0.0,-4.1534,-4.1571,-4.1609,-4.2299,-4.3079,-4.3875,-4.3918,-4.3673,-4.3195,-4.3389,-4.3178,-4.2369,-4.2609,-4.3005,-4.3465,-4.3515,-4.3872,-4.4585,-4.3907,-4.3515,-4.3479,-4.2715,-4.2343,-4.2308,-4.2308,-4.2308,-4.2308,-4.2308,-4.2308,-4.2308,-4.2308,-4.2787,-4.3601,-4.413,-4.4784,-4.554,-4.6307,-4.6423,-4.6228,-4.3666,-4.3789,-4.4192,-4.431,-4.4411,-4.4482,-4.4482,-4.5769,-4.719,-4.8386,-4.9168,-4.9887,-5.0708,-5.0206,-4.9594,-4.8964,-4.889,-4.8481,-4.7441,-4.6624,-4.5844,-4.4989,-4.4358,-4.3912,-4.3689,-4.314,-4.2731,-4.25,-4.195,0.0,-4.1942,0.0,0.0,0.0,0.0,-4.2277,-4.198,-4.3392,-4.3986,-4.3986,-4.3986,-4.3986,-4.3986,-4.3986,-4.3986,-4.3986,-4.3986,-4.3986,-4.3986,-4.3986,-4.3986,-4.3986,-4.3986,-4.3986,-4.3986,-4.3986,-4.3986,-4.3986,-4.3986,-4.3986,-4.3986,-4.3986,-4.3986,-4.3986,-4.3986,-4.3986,-4.3986,-4.3986,-4.3986,-4.3986,-4.3986,-4.3986,-4.3652,0.0,0.0,0.0,0.0,-4.0731,-4.094,-4.1534,-4.2125,-4.267,-4.3079,-4.2709,-4.2492,-4.2597,-4.2795,-4.2827,-4.2613,-4.3231,-4.3544,-4.35,-4.4014,-4.4407,-4.4585,-4.4407,-4.405,-4.3479,-4.3286,-4.2894,-4.2308,-4.2308,-4.2308,-4.2308,-4.2308,-4.2308,-4.2308,-4.2308,-4.3108,-4.4335,-4.4448,-4.5149,-4.602,-4.6255,-4.6277,-4.6179,-4.3677,-4.4048,-4.4612,-4.4705,-4.5095,-4.5365,-4.5365,-4.6072,-4.718,-4.8803,-4.9351,-4.9782,-5.0265,-4.9893,-4.941,-4.8927,-4.889,-4.8556,-4.7738,-4.7293,-4.6513,-4.5361,-4.4841,-4.4395,-4.4023,-4.354,-4.3318,-4.3318,-4.25,0.0,-4.2092,0.0,0.0,0.0,0.0,-4.2017,-4.172,-4.3318,-4.3986,-4.3986,-4.3986,-4.3986,0.0,-4.3986,-4.3986,-4.3986,-4.3986,-4.3986,-4.3986,-4.3986,-4.3986,-4.3986,-4.3986,-4.3986,-4.3986,-4.3986,-4.3986,-4.3986,-4.3986,-4.3986,-4.3986,-4.3986,-4.3986,-4.3986,-4.3986,-4.3986,-4.3986,-4.3986,-4.3986,-4.3986,-4.3986,-4.3986,-4.3726,0.0,0.0,0.0,-4.0917,-4.0917,-4.12,-4.2017,-4.2082,-4.2088,-4.2262,-4.2046,-4.1879,-4.1887,-4.2316,-4.245,-4.2188,-4.3387,-4.4045,-4.3964,-4.4692,-4.5285,-4.5641,-4.532,-4.4928,-4.45,-4.38,-4.3251,-4.2822,-4.2465,-4.2308,-4.2308,-4.2308,-4.2308,-4.2308,-4.2308,-4.3001,-4.4171,-4.4614,-4.5211,-4.5854,-4.5854,-4.5854,-4.5829,-4.4358,-4.4766,-4.5249,-4.5138,-4.5807,-4.6401,-4.6624,-4.6735,-4.733,-4.8704,-4.9002,-4.9076,-4.9076,-4.8964,-4.889,-4.889,-4.889,-4.8593,-4.7887,-4.7664,-4.6921,-4.5509,-4.5249,-4.4766,-4.4023,-4.3986,-4.3949,-4.3838,-4.3132,0.0,0.0,0.0,0.0,0.0,0.0,0.0,0.0,-4.3392,-4.3986,-4.3986,-4.3986,-4.3986,-4.3986,-4.3955,-4.3939,-4.3939,-4.3939,-4.3955,-4.3986,-4.3986,-4.3986,-4.3986,-4.3986,-4.3986,-4.3986,-4.3986,-4.3986,-4.3986,-4.3986,-4.3986,-4.3986,-4.3986,-4.3986,-4.3986,-4.3986,-4.3986,-4.3986,-4.3986,-4.3986,-4.3986,-4.3986,-4.3912,-4.3615,0.0,-4.2129,-4.1646,-4.172,-4.1832,-4.2129,-4.2723,-4.2247,0.0,-4.146,-4.1748,-4.1748,-4.1309,-4.1956,-4.2184,-4.1739,-4.3267,-4.4275,-4.4571,-4.5392,-4.6177,-4.6998,-4.632,-4.5891,-4.5784,-4.4464,-4.3729,-4.3622,-4.2822,-4.2465,-4.243,-4.2343,-4.2308,-4.2308,-4.2308,-4.2802,-4.3714,-4.4706,-4.5262,-4.545,-4.5423,-4.5397,-4.5397,-4.5361,-4.5212,-4.5064,-4.4358,-4.4952,-4.5955,-4.7293,-4.8036,-4.8593,-4.8853,-4.9485,-4.9893,-4.9893,-4.9299,-4.889,-4.889,-4.889,-4.8853,-4.8704,-4.7441,-4.6587,-4.629,-4.4952,-4.4172,-4.3986,-4.3986,-4.3652,-4.302,-4.2872,-4.2129,0.0,0.0,0.0,0.0,0.0,0.0,-4.3615,-4.3875,-4.3986,-4.3986,-4.3986,-4.3986,-4.3955,-4.3763,-4.3681,-4.3681,-4.3681,-4.3812,-4.3986,-4.3986,-4.3986,-4.3986,-4.3986,-4.3986,-4.3986,-4.3986,-4.3986,-4.3986,-4.3986,-4.3986,-4.3986,-4.3986,-4.3986,-4.3986,-4.3986,-4.3986,-4.3986,-4.3986,-4.3986,-4.3986,-4.3986,-4.3466,-4.2946,-4.2835,-4.2129,-4.1832,-4.25,-4.3169,-4.3392,-4.2872,-4.3072,-4.2543,-4.0777,-4.1646,-4.2083,-4.1571,-4.2068,-4.2543,-4.2887,-4.316,-4.3732,-4.4571,-4.5392,-4.6177,-4.6998,-4.6855,-4.6462,-4.582,-4.5534,-4.5071,-4.4371,-4.3643,-4.3286,-4.3251,-4.2573,-4.2308,-4.2308,-4.2308,-4.3038,-4.4253,-4.5275,-4.5689,-4.5701,-4.5502,-4.5397,-4.5397,-4.6624,-4.6215,-4.5918,-4.5918,-4.6252,-4.681,-4.759,-4.837,-4.889,-4.889,-4.889,-4.8853,-4.8853,-4.889,-4.889,-4.889,-4.889,-4.889,-4.889,-4.7776,-4.6921,-4.6513,-4.5324,-4.4469,-4.4023,-4.3986,-4.3801,-4.3429,-4.2575,-4.1757,0.0,0.0,0.0,0.0,0.0,-4.2872,0.0,-4.3986,-4.3986,-4.3986,-4.3986,-4.3986,-4.3955,-4.3714,-4.3614,-4.3597,-4.3443,-4.3478,-4.3597,-4.3747,-4.3795,-4.3795,-4.3795,-4.3876,-4.3986,-4.3986,-4.3986,-4.3986,-4.3986,-4.3986,-4.3986,-4.3986,-4.3986,-4.3986,-4.3986,-4.3986,-4.3986,-4.3986,-4.3986,-4.3986,-4.3986,-4.3689,-4.328,-4.2872,-4.3206,-4.3503,-4.3429,-4.3763,-4.4023,-4.4098,-4.3542,-4.2637,-4.1163,-4.1986,-4.2094,-4.0821,-4.1378,-4.1942,-4.2304,-4.2832,-4.3551,-4.4571,-4.5392,-4.6177,-4.6998,-4.6998,-4.6819,-4.6427,-4.5998,-4.5392,-4.4549,-4.3836,-4.3286,-4.2858,-4.2486,-4.2308,-4.2358,-4.3052,-4.3761,-4.4552,-4.5451,-4.5727,-4.5572,-4.545,-4.5397,-4.5397,-4.7627,-4.7181,-4.6884,-4.7367,-4.759,-4.7701,-4.7701,-4.837,-4.889,-4.889,-4.837,-4.7961,-4.7961,-4.8519,-4.889,-4.889,-4.889,-4.889,-4.889,-4.7999,-4.7144,-4.6513,-4.5547,-4.4692,-4.4023,-4.3986,-4.3912,-4.3726,-4.2463,-4.1683,-4.1311,0.0,0.0,0.0,-4.1274,-4.2649,-4.3986,-4.3986,-4.3986,-4.3986,-4.3986,-4.3986,-4.3955,-4.3647,-4.3512,-4.3478,-4.3196,-4.305,-4.3032,-4.3339,-4.3478,-4.3529,-4.3597,-4.3714,-4.3828,-4.3828,-4.3828,-4.3828,-4.3828,-4.3828,-4.3828,-4.3828,-4.3828,-4.3844,-4.3892,-4.3908,-4.3923,-4.3971,-4.3986,-4.3986,-4.3986,-4.3986,-4.3838,-4.3392,-4.4432,-4.5175,-4.4841,-4.4804,-4.4915,-4.5249,-4.4135,-4.2872,-4.172,-4.2166,-4.1875,-4.0283,-4.082,-4.1306,-4.1595,-4.2341,-4.3257,-4.4321,-4.5142,-4.5927,-4.6748,-4.689,-4.6998,-4.6998,-4.6177,-4.5463,-4.4799,-4.3907,-4.3144,-4.2537,-4.2537,-4.2623,-4.281,-4.397,-4.4518,-4.4665,-4.5414,-4.5572,-4.5397,-4.5397,-4.5397,-4.5397,-4.7813,-4.7627,-4.7367,-4.6735,-4.7218,-4.7701,-4.7701,-4.837,-4.889,-4.889,-4.8816,-4.8779,-4.8779,-4.8853,-4.889,-4.889,-4.889,-4.889,-4.889,-4.7441,-4.6587,-4.6513,-4.4952,-4.4098,-4.3986,-4.3986,-4.3652,-4.2909,-4.276,-4.1943,-4.0508,-4.1089,-4.1757,-4.2463,-4.2612,-4.3169,-4.3986,-4.3986,-4.3986,-4.3986,-4.3986,-4.3986,-4.3939,-4.3426,-4.3251,-4.3178,-4.2882,-4.2593,-4.243,-4.2674,-4.2995,-4.3268,-4.3529,-4.3443,-4.325,-4.325,-4.325,-4.325,-4.325,-4.325,-4.325,-4.325,-4.325,-4.3321,-4.358,-4.3647,-4.3714,-4.3939,-4.3986,-4.3986,-4.3986,-4.3986,-4.4246,-4.4952,-4.5212,-4.5769,-4.7144,-4.7367,-4.6847,-4.5472,-4.5138,-4.4135,-4.1832,-4.1646,-4.1556,-4.1109,-4.1167,-4.1389,-4.1849,-4.1741,-4.225,-4.3572,-4.43,-4.5084,-4.5891,-4.6641,-4.6998,-4.6998,-4.6177,-4.5749,-4.5641,-4.4178,-4.3444,-4.3393,-4.3393,-4.3657,-4.4147,-4.4706,-4.4795,-4.4674,-4.5217,-4.5423,-4.5397,-4.5397,-4.5397,-4.5397,-4.7776,-4.7701,-4.7738,-4.7924,-4.7813,-4.785,-4.837,-4.8704,-4.889,-4.889,-4.8481,-4.837,-4.8853,-4.8481,-4.837,-4.8853,-4.889,-4.8704,-4.8221,-4.7144,-4.629,-4.5807,-4.4655,-4.3986,-4.3986,-4.3986,-4.3838,-4.3503,-4.302,-4.2463,-4.1832,-4.1683,-4.2017,-4.2797,-4.2797,-4.3243,-4.3986,-4.3986,-4.3986,-4.3986,-4.3986,-4.3986,-4.3923,-4.3391,-4.3286,-4.3374,-4.2865,-4.2768,-4.2844,-4.2957,-4.2957,-4.2939,-4.3014,-4.3124,-4.3214,-4.3214,-4.3214,-4.3214,-4.3214,-4.3214,-4.3214,-4.3214,-4.3214,-4.3233,-4.3321,-4.3478,-4.3631,-4.3747,-4.3876,-4.3939,-4.3795,-4.3892,-4.4098,-4.4469,-4.5361,-4.6067,-4.6252,-4.6661,-4.655,-4.5435,-4.4841,-4.3902,-4.2226,-4.2239,-4.1986,-4.1256,-4.1345,-4.1503,-4.1633,-4.1687,-4.2477,-4.4107,-4.4442,-4.5213,-4.6498,-4.6819,-4.6998,-4.6998,-4.6676,-4.6248,-4.5784,-4.5178,-4.4642,-4.4157,-4.4005,-4.4266,-4.4742,-4.476,-4.4908,-4.5105,-4.5312,-4.5397,-4.5397,-4.5397,-4.5397,-4.5397,-4.7701,-4.7887,-4.8221,-4.8816,-4.8444,-4.8259,-4.8816,-4.8704,-4.8556,-4.8556,-4.7627,-4.7478,-4.8779,-4.8184,-4.7924,-4.8519,-4.8779,-4.8444,-4.7404,-4.681,-4.6141,-4.5324,-4.4469,-4.3986,-4.3986,-4.3986,-4.3986,-4.3986,-4.3429,-4.302,-4.2797,-4.2203,-4.224,-4.2797,-4.3058,-4.3466,-4.3986,-4.3986,-4.3986,-4.3986,-4.3986,-4.3986,-4.3939,-4.3478,-4.3443,-4.3546,-4.3014,-4.2995,-4.3214,-4.3214,-4.3032,-4.2844,-4.2713,-4.2882,-4.3032,-4.2939,-4.2976,-4.305,-4.305,-4.3105,-4.3214,-4.3214,-4.3214,-4.3233,-4.3286,-4.3461,-4.3631,-4.3714,-4.386,-4.3939,-4.3763,-4.3876,-4.4098,-4.4321,-4.5584,-4.629,-4.5732,-4.6364,-4.6475,-4.5398,-4.4766,-4.3966,-4.2857,-4.2913,-4.258,-4.1495,-4.1804,-4.1952,-4.1632,-4.2177,-4.3021,-4.425,-4.4692,-4.5499,-4.6641,-4.6855,-4.6998,-4.6998,-4.6748,-4.6355,-4.5784,-4.5503,-4.5218,-4.4942,-4.4665,-4.4836,-4.5337,-4.5067,-4.5138,-4.5397,-4.5397,-4.5397,-4.5397,-4.5397,-4.5397,-4.5397,-4.7701,-4.8333,-4.889,-4.889,-4.889,-4.889,-4.889,-4.8221,-4.7701,-4.7701,-4.6327,-4.6252,-4.863,-4.8184,-4.7701,-4.7701,-4.8444,-4.8221,-4.6624,-4.6513,-4.6141,-4.5324,-4.4469,-4.3986,-4.3986,-4.3986,-4.3986,-4.3986,-4.3986,-4.3578,-4.2797,-4.2797,-4.2797,-4.2835,-4.3615,-4.3986,-4.3986,-4.3986,-4.3986,-4.3986,-4.3986,-4.3986,-4.3955,-4.3697,-4.3614,-4.3563,-4.3286,-4.3196,-4.3214,-4.3214,-4.3196,-4.316,-4.2789,-4.2693,-4.2635,-4.2409,-4.2494,-4.2693,-4.2693,-4.2957,-4.3214,-4.3214,-4.3214,-4.3286,-4.3546,-4.3614,-4.3681,-4.3939,-4.3986,-4.3986,-4.3986,-4.3986,-4.4283,-4.5138,-4.5955,-4.6513,-4.6475,-4.7181,-4.7107,-4.5472,-4.5287,-4.4819,-4.3704,-4.3577,-4.3128,-4.1975,-4.2686,-4.2795,-4.1939,-4.3172,-4.376,-4.3536,-4.4999,-4.5784,-4.582,-4.6605,-4.6998,-4.6998,-4.6177,-4.582,-4.5762,-4.4769,-4.4826,-4.5762,-4.5223,-4.5466,-4.6168,-4.5895,-4.5649,-4.5397,-4.5397,-4.5397,-4.5397,-4.5397,-4.5397,-4.5397,-4.6884,-4.7961,-4.889,-4.889,-4.889,-4.889,-4.889,-4.8667,-4.8519,-4.8519,-4.759,-4.7218,-4.7999,-4.7367,-4.733,-4.8407,-4.8742,-4.8221,-4.6624,-4.6513,-4.5881,-4.4469,-4.4135,-4.3986,-4.3986,-4.3986,-4.3986,-4.3986,-4.3986,-4.3875,-4.3615,-4.3615,-4.3615,-4.3615,-4.3875,-4.3986,-4.3986,-4.3986,-4.3986,-4.3986,-4.3986,-4.3986,-4.3955,-4.3714,-4.3714,-4.3828,-4.3563,-4.3597,-4.3714,-4.3529,-4.3597,-4.3664,-4.3196,-4.3032,-4.3013,-4.292,-4.2957,-4.3032,-4.3032,-4.3142,-4.3214,-4.3214,-4.3214,-4.3233,-4.3286,-4.3478,-4.3631,-4.3714,-4.3876,-4.3939,-4.3763,-4.3876,-4.4098,-4.4358,-4.5138,-4.5472,-4.4878,-4.5325,-4.5335,-4.4247,-4.3968,-4.3631,-4.305,-4.3196,-4.3087,-4.2484,-4.2905,-4.2759,-4.1686,-4.3057,-4.4012,-4.425,-4.5285,-4.607,-4.6605,-4.6855,-4.6998,-4.6998,-4.6748,-4.6514,-4.6317,-4.5999,-4.6035,-4.6329,-4.5793,-4.5785,-4.6179,-4.5701,-4.5476,-4.5397,-4.5397,-4.5397,-4.5397,-4.5397,-4.5397,-4.5397,-4.6513,-4.7813,-4.889,-4.889,-4.889,-4.889,-4.889,-4.863,-4.8444,-4.8444,-4.7478,-4.6921,-4.7218,-4.6513,-4.6587,-4.7887,-4.8259,-4.7776,-4.6141,-4.6327,-4.5732,-4.4061,-4.3986,-4.3986,-4.3986,-4.3986,-4.3986,-4.3986,-4.3986,-4.3986,-4.3986,-4.3986,-4.3986,-4.3986,-4.3986,-4.3986,-4.3986,-4.3986,-4.3986,-4.3986,-4.3986,-4.3986,-4.3971,-4.3812,-4.3844,-4.3971,-4.3812,-4.386,-4.3955,-4.3812,-4.386,-4.3923,-4.3597,-4.3495,-4.3443,-4.3269,-4.3469,-4.3778,-4.3778,-4.4123,-4.445,-4.445,-4.445,-4.4322,-4.3887,-4.3784,-4.3697,-4.3495,-4.3664,-4.3763,-4.3495,-4.358,-4.3697,-4.3697,-4.4398,-4.4657,-4.3808,-4.4262,-4.4342,-4.3553,-4.3286,-4.3196,-4.3146,-4.3082,-4.3027,-4.3005,-4.291,-4.2676,-4.2282,-4.3588,-4.4443,-4.4607,-4.5677,-4.6498,-4.6998,-4.6998,-4.6998,-4.6998,-4.6906,-4.6708,-4.6447,-4.635,-4.6374,-4.6423,-4.5879,-4.5803,-4.603,-4.5572,-4.5397,-4.5397,-4.5397,-4.5397,-4.5397,-4.5397,-4.5397,-4.5397,-4.655,-4.7813,-4.889,-4.889,-4.889,-4.889,-4.889,-4.8259,-4.7776,-4.7776,-4.6475,-4.5807,-4.6513,-4.5881,-4.5658,-4.6438,-4.7256,-4.707,-4.5547,-4.6104,-4.5769,-4.4172,-4.4023,-4.3986,-4.3986,-4.3986,-4.3986,-4.3986,-4.3986,-4.3986,-4.3986,-4.3986,-4.3986,-4.3986,-4.3986,-4.3986,-4.3986,-4.3986,-4.3986,-4.3986,-4.3986,-4.3986,-4.3986,-4.3986,-4.3986,-4.3986,-4.3986,-4.3986,-4.3986,-4.3986,-4.3986,-4.3986,-4.3986,-4.3986,-4.3892,-4.3391,-4.4013,-4.4827,-4.4827,-4.5662,-4.6475,-4.6459,-4.6442,-4.6136,-4.5102,-4.4482,-4.398,-4.3468,-4.3501,-4.3569,-4.3324,-4.3251,-4.3214,-4.3214,-4.3834,-4.4053,-4.3324,-4.3816,-4.3998,-4.3251,-4.3196,-4.3394,-4.3828,-4.3195,-4.2969,-4.3486,-4.2751,-4.2644,-4.3422,-4.4489,-4.4905,-4.4656,-4.6154,-4.6975,-4.6952,-4.6952,-4.6952,-4.6952,-4.6684,-4.6447,-4.6144,-4.5895,-4.5955,-4.6119,-4.5598,-4.5546,-4.5803,-4.5528,-4.5397,-4.5397,-4.5397,-4.5397,-4.5397,-4.5397,-4.5397,-4.5397,-4.7293,-4.8221,-4.889,-4.889,-4.889,-4.889,-4.889,-4.8742,-4.863,-4.863,-4.8296,-4.7887,-4.7441,-4.6698,-4.629,-4.6475,-4.7256,-4.7553,-4.7144,-4.6735,-4.603,-4.5026,-4.4358,-4.3986,-4.3986,-4.3986,-4.3986,-4.3986,-4.3986,-4.3986,-4.3986,-4.3986,-4.3986,-4.3986,-4.3986,-4.3986,-4.3986,-4.3986,-4.3986,-4.3986,-4.3986,-4.3986,-4.3986,-4.3986,-4.3986,-4.3986,-4.3986,-4.3986,-4.3986,-4.3986,-4.3986,-4.3986,-4.3986,-4.3986,-4.3955,-4.3844,-4.4453,-4.5169,-4.5169,-4.5832,-4.6426,-4.6187,-4.5938,-4.5737,-4.5716,-4.5443,-4.5095,-4.5001,-4.4509,-4.4108,-4.4035,-4.3561,-4.3214,-4.3214,-4.336,-4.3433,-4.3251,-4.3121,-4.3025,-4.2825,-4.3188,-4.3473,-4.359,-4.3426,-4.3349,-4.35,-4.2751,-4.2561,-4.315,-4.3997,-4.4694,-4.5207,-4.6187,-4.659,-4.6398,-4.6398,-4.6398,-4.6398,-4.635,-4.6144,-4.587,-4.5819,-4.5819,-4.5905,-4.552,-4.5546,-4.5803,-4.5528,-4.5397,-4.5397,-4.5397,-4.5397,-4.5397,-4.5397,-4.5397,-4.5397,-4.7627,-4.837,-4.889,-4.889,-4.889,-4.889,-4.889,-4.889,-4.889,-4.889,-4.8593,-4.8036,-4.7256,-4.6773,-4.6513,-4.6513,-4.655,-4.6587,-4.6587,-4.6178,-4.5584,-4.4729,-4.4246,-4.3986,-4.3986,-4.3986,-4.3986,-4.3986,-4.3986,-4.3986,-4.3986,-4.3986,-4.3986,-4.3986,-4.3986,-4.3986,-4.3986,-4.3986,-4.3986,-4.3986,-4.3986,-4.3986,-4.3986,-4.3986,-4.3986,-4.3986,-4.3986,-4.3986,-4.3986,-4.3986,-4.3908,-4.3812,-4.3812,-4.373,-4.3631,-4.3631,-4.47,-4.5828,-4.5642,-4.6459,-4.7276,-4.6985,-4.6228,-4.5639,-4.6042,-4.5512,-4.4996,-4.5064,-4.4854,-4.4515,-4.4032,-4.3615,-4.3218,-4.284,-4.2804,-4.2804,-4.2804,-4.2632,-4.2658,-4.2996,-4.3319,-4.3786,-4.45,-4.4142,-4.4005,-4.4325,-4.354,-4.3324,-4.3908,-4.4366,-4.4812,-4.52,-4.5999,-4.6491,-4.6695,-4.6695,-4.647,-4.603,-4.603,-4.5879,-4.5624,-4.5624,-4.5624,-4.5598,-4.5476,-4.5502,-4.5598,-4.5476,-4.5397,-4.5397,-4.5397,-4.5397,-4.5397,-4.5397,-4.5397,-4.5397,-4.7664,-4.837,-4.889,-4.889,-4.889,-4.889,-4.889,-4.889,-4.889,-4.889,-4.8296,-4.7553,-4.6773,-4.6661,-4.6624,-4.6513,-4.5769,-4.5435,-4.5807,-4.5509,-4.5026,-4.4395,-4.4135,-4.3986,-4.3986,-4.3986,-4.3986,-4.3986,-4.3986,-4.3986,-4.3986,-4.3986,-4.3986,-4.3986,-4.3986,-4.3986,-4.3986,-4.3986,-4.3986,-4.3986,-4.3986,-4.3955,-4.3939,-4.3971,-4.3955,-4.3939,-4.3971,-4.3986,-4.3986,-4.3986,-4.3828,-4.3614,-4.3647,-4.3443,-4.3214,-4.3397,-4.4868,-4.6359,-4.601,-4.7077,-4.8212,-4.8052,-4.6892,-4.5936,-4.6447,-4.5642,-4.4844,-4.5078,-4.5198,-4.4957,-4.3948,-4.3635,-4.3257,-4.245,-4.2328,-4.2348,-4.2308,-4.2308,-4.2573,-4.333,-4.3544,-4.4185,-4.5575,-4.4923,-4.4703,-4.5328,-4.446,-4.419,-4.4903,-4.5043,-4.5159,-4.525,-4.5954,-4.6655,-4.7375,-4.7375,-4.6933,-4.61,-4.61,-4.597,-4.5742,-4.5657,-4.5622,-4.5569,-4.5484,-4.545,-4.5397,-4.5397,-4.5397,-4.5397,-4.5397,-4.5397,-4.5397,-4.5397,-4.5397,-4.5397,-4.7553,-4.837,-4.889,-4.889,-4.889,-4.889,-4.889,-4.889,-4.889,-4.889,-4.8779,-4.8407,-4.759,-4.7516,-4.7256,-4.655,-4.5769,-4.6178,-4.8221,-4.6438,-4.5547,-4.6104,-4.4766,-4.3986,-4.3986,-4.3986,-4.3986,-4.3986,-4.3986,-4.3986,-4.3986,-4.3986,-4.3986,-4.3986,-4.3986,-4.3986,-4.3986,-4.3986,-4.3986,-4.3986,-4.3986,-4.386,-4.3697,-4.3908,-4.386,-4.3697,-4.3908,-4.3986,-4.3986,-4.3986,-4.3828,-4.3647,-4.386,-4.3597,-4.336,-4.4287,-4.5291,-4.6008,-4.5736,-4.6613,-4.7705,-4.7951,-4.7398,-4.6952,-4.7591,-4.7384,-4.7114,-4.7409,-4.6742,-4.5833,-4.4998,-4.4293,-4.3508,-4.2456,-4.2494,-4.2573,-4.2328,-4.2308,-4.251,-4.3093,-4.3744,-4.4511,-4.5397,-4.5129,-4.5023,-4.5363,-4.446,-4.4119,-4.4634,-4.5306,-4.5866,-4.635,-4.6691,-4.7108,-4.7603,-4.7637,-4.7568,-4.741,-4.741,-4.7382,-4.732,-4.6933,-4.6629,-4.6389,-4.5927,-4.5598,-4.5397,-4.5397,-4.5397,-4.5397,-4.5397,-4.5397,-4.5397,-4.5397,-4.5397,-4.5397,-4.8259,-4.8667,-4.889,-4.889,-4.889,-4.889,-4.889,-4.889,-4.889,-4.889,-4.889,-4.8444,-4.7181,-4.7813,-4.7664,-4.5992,-4.5918,-4.6401,-4.7516,-4.5732,-4.4766,-4.5138,-4.4395,-4.3986,-4.3986,-4.3986,-4.3986,-4.3986,-4.3986,-4.3986,-4.3986,-4.3986,-4.3986,-4.3986,-4.3986,-4.3986,-4.3986,-4.3986,-4.3986,-4.3971,-4.3844,-4.3714,-4.3614,-4.358,-4.358,-4.3614,-4.358,-4.3747,-4.4045,-4.4309,-4.4083,-4.3704,-4.4264,-4.4137,-4.3944,-4.4419,-4.5462,-4.6488,-4.6983,-4.7288,-4.7578,-4.7911,-4.7316,-4.6866,-4.7781,-4.7563,-4.73,-4.7899,-4.7599,-4.6851,-4.5744,-4.491,-4.4118,-4.3306,-4.2569,-4.2207,-4.2461,-4.251,-4.275,-4.3449,-4.4225,-4.5047,-4.5988,-4.5666,-4.5544,-4.581,-4.5253,-4.5157,-4.5641,-4.6152,-4.6682,-4.7182,-4.7699,-4.7907,-4.7672,-4.828,-4.828,-4.77,-4.8028,-4.8001,-4.77,-4.7619,-4.721,-4.6596,-4.635,-4.5909,-4.5397,-4.5397,-4.5397,-4.5397,-4.5397,-4.5397,-4.5397,-4.5397,-4.5397,-4.5466,-4.8333,-4.863,-4.889,-4.889,-4.889,-4.889,-4.889,-4.889,-4.889,-4.889,-4.889,-4.837,-4.6921,-4.7887,-4.7813,-4.5769,-4.6141,-4.6513,-4.6513,-4.5138,-4.4283,-4.4283,-4.4098,-4.3986,-4.3986,-4.3986,-4.3986,-4.3986,-4.3986,-4.3986,-4.3986,-4.3986,-4.3986,-4.3986,-4.3986,-4.3986,-4.3986,-4.3986,-4.3986,-4.3971,-4.3779,-4.3724,-4.3752,-4.3482,-4.3536,-4.3716,-4.3482,-4.3795,-4.4363,-4.4778,-4.4586,-4.4294,-4.4972,-4.4947,-4.4747,-4.4985,-4.6009,-4.729,-4.8067,-4.7955,-4.7663,-4.7931,-4.7357,-4.6928,-4.7886,-4.7616,-4.7305,-4.7886,-4.7951,-4.7436,-4.6032,-4.5358,-4.4706,-4.3849,-4.2748,-4.215,-4.2725,-4.2728,-4.3033,-4.3933,-4.4563,-4.5302,-4.6328,-4.6005,-4.5898,-4.635,-4.6158,-4.6248,-4.6803,-4.7226,-4.7669,-4.8217,-4.8603,-4.8603,-4.8252,-4.9063,-4.9063,-4.8252,-4.8684,-4.8657,-4.8252,-4.8313,-4.78,-4.6872,-4.6719,-4.6201,-4.5397,-4.5397,-4.5397,-4.5397,-4.5397,-4.5397,-4.5397,-4.5397,-4.5397,-4.55,-4.6661,-4.7887,-4.889,-4.889,-4.889,-4.889,-4.889,-4.889,-4.889,-4.889,-4.889,-4.8556,-4.7701,-4.7738,-4.7404,-4.6475,-4.6475,-4.6513,-4.6513,-4.5695,-4.5212,-4.5212,-4.4432,-4.3986,-4.3986,-4.3986,-4.3986,-4.3986,-4.3986,-4.3986,-4.3986,-4.3986,-4.3986,-4.3986,-4.3986,-4.3986,-4.3986,-4.3986,-4.3986,-4.3986,-4.3971,-4.4107,-4.4218,-4.4005,-4.4073,-4.4236,-4.4022,-4.4475,-4.5212,-4.5233,-4.5514,-4.5877,-4.6264,-4.5989,-4.5697,-4.6709,-4.7592,-4.8234,-4.8075,-4.7992,-4.7972,-4.7992,-4.7955,-4.7979,-4.8307,-4.8271,-4.8175,-4.8114,-4.7756,-4.7025,-4.5766,-4.5498,-4.4968,-4.3395,-4.3107,-4.308,-4.3076,-4.2876,-4.3174,-4.4401,-4.4585,-4.4958,-4.5775,-4.5598,-4.5831,-4.6873,-4.668,-4.6865,-4.7596,-4.8286,-4.901,-4.9804,-4.9154,-4.912,-4.9838,-4.9936,-4.9936,-4.9838,-4.9867,-4.9867,-4.9804,-4.9361,-4.857,-4.7596,-4.7168,-4.6352,-4.5397,-4.5397,-4.5397,-4.5397,-4.5397,-4.5397,-4.5397,-4.5397,-4.5397,-4.5397,-4.7256,-4.7738,-4.8147,-4.8147,-4.8556,-4.889,-4.889,-4.889,-4.889,-4.889,-4.889,-4.8593,-4.7776,-4.8147,-4.7924,-4.6624,-4.6958,-4.7033,-4.6513,-4.6215,-4.5584,-4.4544,-4.4172,-4.3986,-4.3986,-4.3986,-4.3986,-4.3986,-4.3986,-4.3986,-4.3986,-4.3986,-4.3986,-4.3986,-4.3986,-4.3986,-4.3986,-4.3986,-4.3986,-4.4045,-4.4367,-4.4257,-4.3884,-4.4139,-4.4102,-4.392,-4.4156,-4.4711,-4.5419,-4.6271,-4.6439,-4.6433,-4.7036,-4.7083,-4.7202,-4.8585,-4.9195,-4.9547,-5.0009,-4.958,-4.9116,-4.927,-4.9543,-4.9743,-4.951,-4.9399,-4.9232,-4.8866,-4.8207,-4.7485,-4.6826,-4.6093,-4.5397,-4.4857,-4.4132,-4.3744,-4.4061,-4.4001,-4.4042,-4.436,-4.4793,-4.5286,-4.5768,-4.5996,-4.6358,-4.6952,-4.7333,-4.7761,-4.8355,-4.9148,-4.97,-5.0011,-4.97,-4.97,-5.0011,-5.0149,-5.0149,-5.0011,-5.0348,-5.0348,-5.0011,-4.9951,-4.9368,-4.8355,-4.7706,-4.6919,-4.6086,-4.5604,-4.5397,-4.5397,-4.5397,-4.5397,-4.5466,-4.5949,-4.6121,-4.6259,-4.7664,-4.7701,-4.7776,-4.8036,-4.8519,-4.889,-4.889,-4.889,-4.889,-4.889,-4.889,-4.8593,-4.7776,-4.8184,-4.7999,-4.6624,-4.7256,-4.7478,-4.6921,-4.6884,-4.6141,-4.4469,-4.4135,-4.4135,-4.4395,-4.4135,-4.4135,-4.4395,-4.4135,-4.3986,-4.3986,-4.3986,-4.3986,-4.3986,-4.3986,-4.3986,-4.4023,-4.4283,-4.4395,-4.4453,-4.4811,-4.4861,-4.4721,-4.4707,-4.4688,-4.4758,-4.5001,-4.5506,-4.6199,-4.7142,-4.7342,-4.7367,-4.7887,-4.8073,-4.8296,-4.941,-4.9707,-4.9856,-5.045,-5.0231,-4.9936,-5.0397,-5.0787,-5.0933,-5.0417,-5.0269,-4.9967,-4.8992,-4.8272,-4.7621,-4.7009,-4.6209,-4.5658,-4.5684,-4.4892,-4.4389,-4.4757,-4.4729,-4.4684,-4.4647,-4.5113,-4.558,-4.5996,-4.6393,-4.6884,-4.7549,-4.8043,-4.8585,-4.9148,-4.97,-5.0011,-5.0011,-5.0011,-5.0011,-5.0011,-5.0178,-5.0178,-5.0011,-5.0369,-5.0376,-5.0011,-5.0178,-4.9762,-4.8741,-4.8017,-4.7286,-4.6562,-4.5983,-4.5776,-4.5776,-4.6017,-4.6121,-4.619,-4.6741,-4.6975,-4.7113,-4.7553,-4.7701,-4.7961,-4.8742,-4.889,-4.889,-4.889,-4.889,-4.889,-4.889,-4.889,-4.8593,-4.7813,-4.7701,-4.7404,-4.6587,-4.7256,-4.7701,-4.7701,-4.7701,-4.6995,-4.5361,-4.4469,-4.4432,-4.5287,-4.4469,-4.4432,-4.5287,-4.4432,-4.3986,-4.3986,-4.3986,-4.3986,-4.3986,-4.4023,-4.4023,-4.4061,-4.4915,-4.5287,-4.5287,-4.5287,-4.6049,-4.7076,-4.5819,-4.6106,-4.715,-4.6672,-4.7033,-4.7701,-4.7701,-4.8259,-4.889,-4.8927,-4.8927,-4.8927,-4.8927,-4.8927,-4.8927,-4.8927,-4.9522,-5.0339,-5.1193,-5.1416,-5.1287,-5.089,-5.0752,-5.0185,-4.8317,-4.7784,-4.7329,-4.6069,-4.5829,-4.5725,-4.5435,-4.5235,-4.5069,-4.5021,-4.4827,-4.4893,-4.532,-4.5397,-4.5707,-4.6527,-4.6631,-4.7217,-4.8672,-4.881,-4.9154,-4.9976,-5.0011,-5.0011,-5.0011,-5.0011,-5.0011,-5.0011,-5.0011,-5.0011,-5.0011,-5.0011,-5.0011,-5.0011,-5.0011,-4.9562,-4.8775,-4.8017,-4.7293,-4.6631,-4.6631,-4.6631,-4.67,-4.7424,-4.7672,-4.7672,-4.7734,-4.7734,-4.7707,-4.7664,-4.7701,-4.7776,-4.8036,-4.8519,-4.889,-4.889,-4.889,-4.889,-4.889,-4.889,-4.8816,-4.8556,-4.8556,-4.8444,-4.8184,-4.8407,-4.8296,-4.7738,-4.7701,-4.7218,-4.6178,-4.5881,-4.5881,-4.6141,-4.5324,-4.5026,-4.5287,-4.4432,-4.3986,-4.3986,-4.3986,-4.3986,-4.4023,-4.4655,-4.4581,-4.4061,-4.4915,-4.5287,-4.5361,-4.5918,-4.6017,-4.5951,-4.6702,-4.6537,-4.5988,-4.6999,-4.7516,-4.7776,-4.837,-4.8704,-4.9002,-4.9559,-4.9782,-4.993,-5.0488,-5.1045,-5.1491,-5.1491,-5.1676,-5.1788,-5.1491,-5.1416,-5.1306,-5.0929,-5.0772,-5.0373,-4.9182,-4.8901,-4.865,-4.8134,-4.7771,-4.7369,-4.69,-4.6637,-4.6387,-4.6094,-4.5719,-4.5458,-4.5415,-4.588,-4.6355,-4.6596,-4.7562,-4.8327,-4.8775,-4.9292,-4.9769,-5.0011,-5.0011,-5.0011,-5.0011,-5.0011,-5.0011,-5.0011,-5.0011,-5.0011,-5.0011,-5.0011,-5.0011,-5.0011,-5.0011,-4.9873,-4.9597,-4.881,-4.8327,-4.8086,-4.7569,-4.7389,-4.7389,-4.7603,-4.7672,-4.7741,-4.8258,-4.8465,-4.8534,-4.811,-4.7924,-4.7813,-4.811,-4.8593,-4.889,-4.889,-4.889,-4.889,-4.889,-4.889,-4.8779,-4.8444,-4.8704,-4.8779,-4.8444,-4.8704,-4.8704,-4.8221,-4.8184,-4.7961,-4.7478,-4.7441,-4.7293,-4.6995,-4.5881,-4.5472,-4.5769,-4.4581,-4.4172,-4.4506,-4.4506,-4.4506,-4.4544,-4.5398,-4.5324,-4.4581,-4.5769,-4.6252,-4.629,-4.6773,-4.6661,-4.6364,-4.733,-4.7107,-4.6401,-4.7701,-4.8184,-4.8259,-4.8742,-4.9113,-4.9447,-4.9968,-5.0376,-5.0785,-5.1268,-5.1751,-5.2048,-5.1714,-5.1602,-5.1491,-5.1008,-5.1156,-5.1306,-5.0929,-5.1049,-5.0952,-4.9875,-4.9598,-4.9505,-4.9246,-4.8447,-4.7787,-4.7572,-4.7209,-4.6742,-4.628,-4.5995,-4.5805,-4.5864,-4.632,-4.6837,-4.7424,-4.8258,-4.8913,-4.9223,-4.9735,-5.0011,-5.0011,-5.0011,-5.0011,-5.0011,-5.0011,-5.0011,-5.0011,-5.0011,-5.0011,-5.0011,-5.0011,-5.0011,-5.0011,-5.0011,-5.0011,-4.9976,-4.912,-4.881,-4.8775,-4.8327,-4.812,-4.8155,-4.8493,-4.8631,-4.8665,-4.9085,-4.9258,-4.9327,-4.8779,-4.8296,-4.8036,-4.8779,-4.8964,-4.9002,-4.8927,-4.8964,-4.9002,-4.8927,-4.889,-4.863,-4.7887,-4.8444,-4.863,-4.7887,-4.8556,-4.9039,-4.9113,-4.9039,-4.9002,-4.9002,-4.8927,-4.8556,-4.7813,-4.629,-4.5881,-4.6624,-4.5026,-4.4618,-4.5398,-4.5398,-4.5398,-4.5435,-4.6252,-4.6104,-4.5398,-4.6921,-4.759,-4.759,-4.759,-4.7627,-4.7701,-4.7776,-4.7776,-4.7813,-4.863,-4.8964,-4.9039,-4.9113,-4.9596,-5.0228,-5.0302,-5.0859,-5.1528,-5.1528,-5.1565,-5.1416,-5.0488,-5.0265,-5.0302,-5.0228,-5.0822,-5.1306,-5.089,-5.1494,-5.172,-5.041,-5.017,-5.0073,-4.9683,-4.8419,-4.753,-4.789,-4.7192,-4.6493,-4.6,-4.5838,-4.5953,-4.652,-4.6665,-4.7224,-4.8672,-4.8844,-4.9189,-4.9942,-5.0011,-5.0011,-5.0011,-5.0011,-5.0011,-5.0011,-5.0011,-5.0011,-5.0011,-5.0011,-5.0011,-5.0011,-5.0011,-5.0011,-5.0011,-5.0011,-5.0011,-4.9976,-4.9252,-4.8913,-4.8913,-4.8913,-4.8913,-4.8982,-4.9735,-5.0011,-5.0011,-5.0011,-5.0011,-5.0011,-4.889,-4.8779,-4.8704,-4.889,-4.941,-4.9633,-4.9002,-4.9447,-4.9633,-4.9002,-4.889,-4.8816,-4.8667,-4.8816,-4.8816,-4.8667,-4.9373,-5.0116,-5.0822,-5.0228,-4.9856,-4.9856,-4.9262,-4.8816,-4.863,-4.7664,-4.7256,-4.7441,-4.6438,-4.6067,-4.6252,-4.6252,-4.6252,-4.629,-4.707,-4.6624,-4.5361,-4.6327,-4.6773,-4.6773,-4.6773,-4.7144,-4.7776,-4.8407,-4.8259,-4.7813,-4.863,-4.9299,-4.993,-5.0636,-5.0971,-5.1231,-5.1862,-5.2197,-5.2345,-5.2345,-5.2791,-5.2977,-5.1528,-5.1565,-5.1899,-5.1268,-5.1268,-5.1306,-5.0948,-5.1514,-5.1965,-5.139,-5.1497,-5.1509,-5.0882,-5.0268,-4.9651,-4.9067,-4.8008,-4.716,-4.6996,-4.6135,-4.5752,-4.6527,-4.7113,-4.781,-4.8706,-4.939,-4.9804,-5.0011,-5.0011,-5.0011,-5.0011,-5.0011,-5.0011,-5.0011,-5.0011,-5.0011,-5.0011,-5.0011,-5.0011,-5.0011,-5.0011,-5.0011,-5.0011,-5.0011,-5.0011,-5.0011,-4.9838,-4.9735,-4.9735,-4.9735,-4.9735,-4.9769,-4.9942,-5.0011,-5.0011,-5.0011,-5.0011,-5.0011,-4.889,-4.889,-4.889,-4.889,-4.9559,-4.9819,-4.9039,-4.9596,-4.9819,-4.9002,-4.889,-4.889,-4.889,-4.889,-4.889,-4.889,-4.9299,-4.9707,-5.019,-4.9782,-4.9522,-4.9522,-4.9113,-4.889,-4.889,-4.8481,-4.8073,-4.7701,-4.6884,-4.6698,-4.707,-4.707,-4.707,-4.7107,-4.7924,-4.759,-4.6513,-4.7293,-4.7627,-4.7627,-4.7627,-4.7664,-4.7776,-4.8593,-4.8407,-4.7813,-4.863,-4.941,-5.019,-5.0636,-5.1305,-5.2048,-5.2457,-5.2865,-5.3162,-5.3162,-5.346,-5.3534,-5.2308,-5.2271,-5.2419,-5.1602,-5.1676,-5.1825,-5.1268,-5.1748,-5.2242,-5.1919,-5.1857,-5.1824,-5.1488,-5.0546,-4.9706,-4.9346,-4.8432,-4.7683,-4.75,-4.6896,-4.6776,-4.7562,-4.7982,-4.8534,-4.9292,-4.9769,-5.0011,-5.0011,-5.0011,-5.0011,-5.0011,-5.0011,-5.0011,-5.0011,-5.0011,-5.0011,-5.0011,-5.0011,-5.0011,-5.0011,-5.0011,-5.0011,-5.0011,-5.0011,-5.0011,-5.0011,-5.0011,-5.0011,-5.0011,-5.0011,-5.0011,-5.0011,-5.0011,-5.0011,-5.0011,-5.0011,-5.0011,-5.0011,-4.889,-4.889,-4.889,-4.889,-4.9559,-4.9819,-4.9039,-4.9596,-4.9819,-4.9002,-4.889,-4.889,-4.889,-4.889,-4.8964,-4.9076,-4.9113,-4.9224,-4.9522,-4.9262,-4.9187,-4.9336,-4.9039,-4.889,-4.889,-4.889,-4.8556,-4.7924,-4.7256,-4.7256,-4.7924,-4.7924,-4.7924,-4.7924,-4.8593,-4.8444,-4.7738,-4.8407,-4.8704,-4.8704,-4.8704,-4.837,-4.7999,-4.8667,-4.8481,-4.7999,-4.8667,-4.9522,-5.0376,-5.0636,-5.1676,-5.2828,-5.2828,-5.3274,-5.3794,-5.3794,-5.3794,-5.3608,-5.2828,-5.2717,-5.2605,-5.1825,-5.2197,-5.2642,-5.1974,-5.2345,-5.2697,-5.2384,-5.2004,-5.1704,-5.1729,-5.0357,-4.9264,-4.9416,-4.8722,-4.8154,-4.7934,-4.7775,-4.7948,-4.8706,-4.8913,-4.9286,-4.9942,-5.0011,-5.0011,-5.0011,-5.0011,-5.0011,-5.0011,-5.0011,-5.0011,-5.0011,-5.0011,-5.0011,-5.0011,-5.0011,-5.0011,-5.0011,-5.0011,-5.0011,-5.0011,-5.0011,-5.0011,-5.0011,-5.0011,-5.0011,-5.0011,-5.0011,-5.0011,-5.0011,-5.0011,-5.0011,-5.0011,-5.0011,-5.0011,-5.0011,-4.889,-4.889,-4.889,-4.889,-4.9559,-4.9819,-4.9039,-4.9596,-4.9819,-4.9002,-4.889,-4.889,-4.889,-4.889,-4.9187,-4.9893,-4.993,-5.0562,-5.2011,-5.0785,-5.0339,-5.1045,-4.967,-4.889,-4.889,-4.889,-4.8853,-4.8742,-4.863,-4.863,-4.8742,-4.8742,-4.8742,-4.8742,-4.8853,-4.8444,-4.7701,-4.7813,-4.785,-4.785,-4.785,-4.8221,-4.8742,-4.8853,-4.8816,-4.8742,-4.8853,-4.9893,-5.1454,-5.2828,-5.346,-5.3645,-5.3645,-5.372,-5.3794,-5.3794,-5.3794,-5.3608,-5.2828,-5.3125,-5.346,-5.2642,-5.3051,-5.3608,-5.3497,-5.3571,-5.355,-5.3195,-5.2638,-5.2038,-5.1565,-5.0788,-5.0119,-4.9953,-4.924,-4.8694,-4.8637,-4.8086,-4.7948,-4.8706,-4.9396,-4.9873,-5.0011,-5.0011,-5.0011,-5.0011,-5.0011,-5.0011,-5.0011,-5.0011,-5.0011,-5.0011,-5.0011,-5.0011,-5.0011,-5.0011,-5.0011,-5.0011,-5.0011,-5.0011,-5.0011,-5.0011,-5.0011,-5.0011,-5.0011,-5.0011,-5.0011,-5.0011,-5.0011,-5.0011,-5.0011,-5.0011,-5.0011,-5.0011,-5.0011,-5.0011,-4.889,-4.889,-4.889,-4.889,-4.9596,-4.9856,-4.9039,-4.9596,-4.9819,-4.9002,-4.889,-4.889,-4.889,-4.9299,-4.993,-5.0748,-5.0413,-5.045,-5.1156,-5.0116,-4.9819,-5.0636,-4.9522,-4.9113,-4.9559,-4.915,-4.889,-4.889,-4.889,-4.889,-4.889,-4.889,-4.889,-4.889,-4.889,-4.8704,-4.837,-4.837,-4.837,-4.837,-4.837,-4.8593,-4.889,-4.889,-4.889,-4.889,-4.889,-4.9968,-5.1528,-5.2234,-5.3051,-5.3794,-5.3794,-5.3794,-5.3794,-5.3794,-5.3794,-5.372,-5.3385,-5.3534,-5.372,-5.3348,-5.3534,-5.3943,-5.4388,-5.4071,-5.3541,-5.2907,-5.2266,-5.1615,-5.0955,-5.083,-5.072,-5.0467,-5.0495,-5.0467,-5.04,-4.9808,-4.9444,-4.9453,-4.9804,-5.0011,-5.0011,-5.0011,-5.0011,-5.0011,-5.0011,-5.0011,-5.0011,-5.0011,-5.0011,-5.0011,-5.0011,-5.0011,-5.0011,-5.0011,-5.0011,-5.0011,-5.0011,-5.0011,-5.0011,-5.0011,-5.0011,-5.0011,-5.0011,-5.0011,-5.0011,-5.0011,-5.0011,-5.0011,-5.0011,-5.0011,-5.0011,-5.0011,-5.0011,-5.0011]},{"header":{"parameterUnit":"m.s-1","parameterCategory":1,"la1":30.6,"la2":28.766,"lo1":-90.7593,"lo2":-88.6598,"dy":0.0162,"dx":0.0183,"nx":116,"ny":114,"refTime":"2024-03-13T18:00:00:Z","depth":0,"parameterNumber":3,"parameterNumberName":"V-component_of_WINDS"},"data":[0.0,0.0,0.0,0.0,0.0,0.0,0.0,0.0,0.0,0.0,0.0,0.0,0.0,0.0,0.0,0.0,0.0,0.0,0.0,0.0,0.0,0.0,0.0,0.0,0.0,0.0,0.0,0.0,0.0,0.0,0.0,0.0,0.0,0.0,0.0,0.0,0.0,0.0,0.0,0.0,0.0,0.0,0.0,0.0,0.0,0.0,0.0,0.0,0.0,0.0,0.0,0.0,0.0,0.0,0.0,0.0,0.0,0.0,0.0,0.0,0.0,0.0,0.0,0.0,0.0,0.0,0.0,0.0,0.0,0.0,0.0,0.0,0.0,0.0,0.0,0.0,0.0,0.0,0.0,0.0,0.0,0.0,0.0,0.0,0.0,0.0,0.0,0.0,0.0,0.0,0.0,0.0,0.0,0.0,0.0,0.0,0.0,0.0,0.0,0.0,0.0,0.0,0.0,0.0,0.0,0.0,0.0,0.0,0.0,0.0,0.0,0.0,0.0,0.0,0.0,0.0,0.0,0.0,0.0,0.0,0.0,0.0,0.0,0.0,0.0,0.0,0.0,0.0,0.0,0.0,0.0,0.0,0.0,0.0,0.0,0.0,0.0,0.0,0.0,0.0,0.0,0.0,0.0,0.0,0.0,0.0,0.0,0.0,0.0,0.0,0.0,0.0,0.0,0.0,0.0,0.0,0.0,0.0,0.0,0.0,0.0,0.0,0.0,0.0,0.0,0.0,0.0,0.0,0.0,0.0,0.0,0.0,0.0,0.0,0.0,0.0,0.0,0.0,0.0,0.0,0.0,0.0,0.0,0.0,0.0,0.0,0.0,0.0,0.0,0.0,0.0,0.0,0.0,0.0,0.0,0.0,0.0,0.0,0.0,0.0,0.0,0.0,0.0,0.0,0.0,0.0,0.0,0.0,0.0,0.0,0.0,0.0,0.0,0.0,0.0,0.0,0.0,0.0,0.0,0.0,0.0,0.0,0.0,0.0,0.0,0.0,0.0,0.0,0.0,0.0,0.0,0.0,0.0,0.0,0.0,0.0,0.0,0.0,0.0,0.0,0.0,0.0,0.0,0.0,0.0,0.0,0.0,0.0,0.0,0.0,0.0,0.0,0.0,0.0,0.0,0.0,0.0,0.0,0.0,0.0,0.0,0.0,0.0,0.0,0.0,0.0,0.0,0.0,0.0,0.0,0.0,0.0,0.0,0.0,0.0,0.0,0.0,0.0,0.0,0.0,0.0,0.0,0.0,0.0,0.0,0.0,0.0,0.0,0.0,0.0,0.0,0.0,0.0,0.0,0.0,0.0,0.0,0.0,0.0,0.0,0.0,0.0,0.0,0.0,0.0,0.0,0.0,0.0,0.0,0.0,0.0,0.0,0.0,0.0,0.0,0.0,0.0,0.0,0.0,0.0,0.0,0.0,0.0,0.0,0.0,0.0,0.0,0.0,0.0,0.0,0.0,0.0,0.0,0.0,0.0,0.0,0.0,0.0,0.0,0.0,0.0,0.0,0.0,0.0,0.0,0.0,0.0,0.0,0.0,0.0,0.0,0.0,0.0,0.0,0.0,0.0,0.0,0.0,0.0,0.0,0.0,0.0,0.0,0.0,0.0,0.0,0.0,0.0,0.0,0.0,0.0,0.0,0.0,0.0,0.0,0.0,0.0,0.0,0.0,0.0,0.0,0.0,0.0,0.0,0.0,0.0,0.0,0.0,0.0,0.0,0.0,0.0,0.0,0.0,0.0,0.0,0.0,0.0,0.0,0.0,0.0,0.0,0.0,0.0,0.0,0.0,0.0,0.0,0.0,0.0,0.0,0.0,0.0,0.0,0.0,0.0,0.0,0.0,0.0,0.0,0.0,0.0,0.0,0.0,0.0,0.0,0.0,0.0,0.0,0.0,0.0,0.0,0.0,0.0,0.0,0.0,0.0,0.0,0.0,0.0,0.0,0.0,0.0,0.0,0.0,0.0,0.0,0.0,0.0,0.0,0.0,0.0,0.0,0.0,0.0,0.0,0.0,0.0,0.0,0.0,0.0,0.0,0.0,0.0,0.0,0.0,0.0,0.0,0.0,0.0,0.0,0.0,0.0,0.0,0.0,0.0,0.0,0.0,0.0,0.0,0.0,0.0,0.0,0.0,0.0,0.0,0.0,0.0,0.0,0.0,0.0,0.0,0.0,0.0,0.0,0.0,0.0,0.0,0.0,0.0,0.0,0.0,0.0,0.0,0.0,0.0,0.0,0.0,0.0,0.0,0.0,0.0,0.0,0.0,0.0,0.0,0.0,0.0,0.0,0.0,0.0,0.0,0.0,0.0,0.0,0.0,0.0,0.0,0.0,0.0,0.0,0.0,0.0,0.0,0.0,0.0,0.0,0.0,0.0,0.0,0.0,0.0,0.0,0.0,0.0,0.0,0.0,0.0,0.0,0.0,0.0,0.0,0.0,0.0,0.0,0.0,0.0,0.0,0.0,0.0,0.0,0.0,0.0,0.0,0.0,0.0,0.0,0.0,0.0,0.0,0.0,0.0,0.0,0.0,0.0,0.0,0.0,0.0,0.0,0.0,0.0,0.0,0.0,0.0,0.0,0.0,0.0,0.0,0.0,0.0,0.0,0.0,0.0,0.0,0.0,0.0,0.0,0.0,0.0,0.0,0.0,0.0,0.0,0.0,0.0,0.0,0.0,0.0,0.0,0.0,0.0,0.0,0.0,0.0,0.0,0.0,0.0,0.0,0.0,0.0,0.0,0.0,0.0,0.0,0.0,0.0,0.0,0.0,0.0,0.0,0.0,0.0,0.0,0.0,0.0,0.0,0.0,0.0,0.0,0.0,0.0,0.0,0.0,0.0,0.0,0.0,0.0,0.0,0.0,0.0,0.0,0.0,0.0,0.0,0.0,0.0,0.0,0.0,0.0,0.0,0.0,0.0,0.0,0.0,0.0,0.0,0.0,0.0,0.0,0.0,0.0,0.0,0.0,0.0,0.0,0.0,0.0,0.0,0.0,0.0,0.0,0.0,0.0,0.0,0.0,0.0,0.0,0.0,0.0,0.0,0.0,0.0,0.0,0.0,0.0,0.0,0.0,0.0,0.0,0.0,0.0,0.0,0.0,0.0,0.0,0.0,0.0,0.0,0.0,0.0,0.0,0.0,0.0,0.0,0.0,0.0,0.0,0.0,0.0,0.0,0.0,0.0,0.0,0.0,0.0,0.0,0.0,0.0,0.0,0.0,0.0,0.0,0.0,0.0,0.0,0.0,0.0,0.0,0.0,0.0,0.0,0.0,0.0,0.0,0.0,0.0,0.0,0.0,0.0,0.0,0.0,0.0,0.0,0.0,0.0,0.0,0.0,0.0,0.0,0.0,0.0,0.0,0.0,0.0,0.0,0.0,0.0,0.0,0.0,0.0,0.0,0.0,0.0,0.0,0.0,0.0,0.0,0.0,0.0,0.0,0.0,0.0,0.0,0.0,0.0,0.0,0.0,0.0,0.0,0.0,0.0,0.0,0.0,0.0,0.0,0.0,0.0,0.0,0.0,0.0,0.0,0.0,0.0,0.0,0.0,0.0,0.0,0.0,0.0,0.0,0.0,0.0,0.0,0.0,0.0,0.0,0.0,0.0,0.0,0.0,0.0,0.0,0.0,0.0,0.0,0.0,0.0,0.0,0.0,0.0,0.0,0.0,0.0,0.0,0.0,0.0,0.0,0.0,0.0,0.0,0.0,0.0,0.0,0.0,0.0,0.0,0.0,0.0,0.0,0.0,0.0,0.0,0.0,0.0,0.0,0.0,0.0,0.0,0.0,0.0,0.0,0.0,0.0,0.0,0.0,0.0,0.0,0.0,0.0,0.0,0.0,0.0,0.0,0.0,0.0,0.0,0.0,0.0,0.0,0.0,0.0,0.0,0.0,0.0,0.0,0.0,0.0,0.0,0.0,0.0,0.0,0.0,0.0,0.0,0.0,0.0,0.0,0.0,0.0,0.0,0.0,0.0,0.0,0.0,0.0,0.0,0.0,0.0,0.0,0.0,0.0,0.0,0.0,0.0,0.0,0.0,0.0,0.0,0.0,0.0,0.0,0.0,0.0,0.0,0.0,0.0,0.0,0.0,0.0,0.0,0.0,0.0,0.0,0.0,0.0,0.0,0.0,0.0,0.0,0.0,0.0,0.0,0.0,0.0,0.0,0.0,0.0,0.0,0.0,0.0,0.0,0.0,0.0,0.0,0.0,0.0,0.0,0.0,0.0,0.0,0.0,0.0,0.0,0.0,0.0,0.0,0.0,0.0,0.0,0.0,0.0,0.0,0.0,0.0,0.0,0.0,0.0,0.0,0.0,0.0,0.0,0.0,0.0,0.0,0.0,0.0,0.0,0.0,0.0,0.0,0.0,0.0,0.0,0.0,0.0,0.0,0.0,0.0,0.0,0.0,0.0,0.0,0.0,0.0,0.0,0.0,0.0,0.0,0.0,0.0,0.0,0.0,0.0,0.0,0.0,0.0,0.0,0.0,0.0,0.0,0.0,0.0,0.0,0.0,0.0,0.0,0.0,0.0,0.0,0.0,0.0,0.0,0.0,0.0,0.0,0.0,0.0,0.0,0.0,0.0,0.0,0.0,0.0,0.0,0.0,0.0,0.0,0.0,0.0,0.0,0.0,0.0,0.0,0.0,0.0,0.0,0.0,0.0,0.0,0.0,0.0,0.0,0.0,0.0,0.0,0.0,0.0,0.0,0.0,0.0,0.0,0.0,0.0,0.0,0.0,0.0,0.0,0.0,0.0,0.0,0.0,0.0,0.0,0.0,0.0,0.0,0.0,0.0,0.0,0.0,0.0,0.0,0.0,0.0,0.0,0.0,0.0,0.0,0.0,0.0,0.0,0.0,0.0,0.0,0.0,0.0,0.0,0.0,0.0,0.0,0.0,0.0,0.0,0.0,0.0,0.0,0.0,0.0,0.0,0.0,0.0,0.0,0.0,0.0,0.0,0.0,0.0,0.0,0.0,0.0,0.0,0.0,0.0,0.0,0.0,0.0,0.0,0.0,0.0,0.0,0.0,0.0,0.0,0.0,0.0,0.0,0.0,0.0,0.0,0.0,0.0,0.0,0.0,0.0,0.0,0.0,0.0,0.0,0.0,0.0,0.0,0.0,0.0,0.0,0.0,0.0,0.0,0.0,0.0,0.0,0.0,0.0,0.0,0.0,0.0,0.0,0.0,0.0,0.0,0.0,0.0,0.0,0.0,0.0,0.0,0.0,0.0,0.0,0.0,0.0,0.0,0.0,0.0,0.0,0.0,0.0,0.0,0.0,0.0,0.0,0.0,0.0,0.0,0.0,0.0,0.0,0.0,0.0,0.0,0.0,0.0,0.0,0.0,0.0,0.0,0.0,0.0,0.0,0.0,0.0,0.0,0.0,0.0,0.0,0.0,0.0,0.0,0.0,0.0,0.0,0.0,0.0,0.0,0.0,0.0,0.0,0.0,0.0,0.0,0.0,0.0,0.0,0.0,0.0,0.0,0.0,0.0,0.0,0.0,0.0,0.0,0.0,0.0,0.0,0.0,0.0,0.0,0.0,0.0,0.0,0.0,0.0,0.0,0.0,0.0,0.0,0.0,0.0,0.0,0.0,0.0,0.0,0.0,0.0,0.0,0.0,0.0,0.0,0.0,0.0,0.0,0.0,0.0,0.0,0.0,0.0,0.0,0.0,0.0,0.0,0.0,0.0,0.0,0.0,0.0,0.0,0.0,0.0,0.0,0.0,0.0,0.0,0.0,0.0,0.0,0.0,0.0,0.0,0.0,0.0,0.0,0.0,0.0,0.0,0.0,0.0,0.0,0.0,0.0,0.0,0.0,0.0,0.0,0.0,0.0,0.0,0.0,0.0,0.0,0.0,0.0,0.0,0.0,0.0,0.0,0.0,0.0,0.0,0.0,0.0,0.0,0.0,0.0,0.0,0.0,0.0,0.0,0.0,0.0,0.0,0.0,0.0,0.0,0.0,0.0,0.0,0.0,0.0,0.0,0.0,0.0,0.0,0.0,0.0,0.0,0.0,0.0,0.0,0.0,0.0,0.0,0.0,0.0,0.0,0.0,0.0,0.0,0.0,0.0,0.0,0.9663,0.9221,0.0,0.0,0.0,0.0,0.0,0.0,0.0,0.0,0.0,0.0,0.0,0.0,0.0,0.0,0.0,0.0,0.0,0.0,0.0,0.0,0.0,0.0,0.0,0.0,0.0,0.0,0.0087,0.0344,0.0967,0.0998,0.1157,0.1488,0.1819,0.1997,0.1997,0.2329,0.2526,0.2553,0.2553,0.26,0.2687,0.2657,0.2627,0.2597,0.0,0.0,0.0,0.0,0.0,0.0,0.0,0.0,0.0,0.0,0.0,0.0,0.0,0.0,0.0,0.0,0.0,0.0,0.0,0.0,0.0,0.0,0.0,0.0,0.0,0.0,0.0,0.0,0.0,0.0,0.0,0.0,0.0,0.0,0.0,0.0,0.0,0.0,0.0,0.0,0.0,0.0,0.0,0.0,0.0,0.0,0.0,0.0,0.0,0.0,0.0,0.0,0.0,0.0,0.0,0.0,0.0,0.0,0.0,0.0,0.0,0.0,0.0,0.0,0.0,0.0,0.0,0.0,0.0,0.0,1.0499,1.0082,0.0,0.0,0.0,0.0,0.0,0.0,0.0,0.0,0.0,0.0,0.0,0.0,0.0,0.0,0.0,0.0,0.0,0.0,0.0,0.0,0.0,0.0,0.0,0.0269,0.0667,0.0696,0.0782,0.1074,0.1717,0.1725,0.1946,0.2546,0.2537,0.251,0.251,0.251,0.254,0.2602,0.2632,0.27,0.2798,0.282,0.2804,0.2755,0.2733,0.0,0.0,0.0,0.0,0.0,0.0,0.0,0.0,0.0,0.0,0.0,0.0,0.0,0.0,0.0,0.0,0.0,0.0,0.0,0.0,0.0,0.0,0.0,0.0,0.0,0.0,0.0,0.0,0.0,0.0,0.0,0.0,0.0,0.0,0.0,0.0,0.0,0.0,0.0,0.0,0.0,0.0,0.0,0.0,0.0,0.0,0.0,0.0,0.0,0.0,0.0,0.0,0.0,0.0,0.0,0.0,0.0,0.0,0.0,0.0,0.0,0.0,0.0,1.1979,1.2042,1.2012,1.2216,1.248,1.2727,1.1716,1.1464,1.175,1.1261,0.0,0.0,0.0,0.0,0.0,0.0,0.0,0.0,0.0,0.0,0.0,0.0,0.0,0.0,0.0,0.0,0.0,0.0,0.0,0.0,0.0,0.0224,0.0667,0.1174,0.1434,0.1835,0.2414,0.2442,0.2457,0.2523,0.2515,0.251,0.251,0.251,0.254,0.2602,0.276,0.2892,0.2908,0.3014,0.3058,0.3044,0.2942,0.2922,0.2958,0.0,0.0,0.0,0.0,0.0,0.0,0.0,0.0,0.0,0.0,0.0,0.0,0.0,0.0,0.0,0.0,0.0,0.0,0.0,0.0,0.0,0.0,0.0,0.0,0.0,0.0,0.0,0.0,0.0,0.0,0.0,0.0,0.0,0.0,0.0,0.0,0.0,0.0,0.0,0.0,0.0,1.0279,1.0279,0.0,0.0,0.0,0.0,0.0,0.0,0.0,0.0,0.0,0.0,0.0,0.0,0.0,1.1728,1.1772,1.2417,1.2647,1.2461,1.3008,1.3106,1.2752,1.2954,1.3342,1.3808,1.3607,0.0,1.3309,1.1904,0.0,0.0,0.0,0.0,0.0,0.0,0.0,0.0,0.0,0.0,0.0,0.0,0.0,0.0,0.0,0.0,0.0,0.0,0.0,0.0,0.0,0.1323,0.1828,0.2289,0.2402,0.2534,0.276,0.2689,0.2624,0.2564,0.2529,0.251,0.251,0.2545,0.2624,0.2755,0.2947,0.2989,0.3025,0.3076,0.3136,0.3249,0.3491,0.3562,0.3518,0.3881,0.0,0.0,0.0,0.0,0.0,0.0,0.0,0.0,0.0,0.0,0.0,0.0,0.0,0.0,0.0,0.0,0.0,0.0,0.0,0.0,0.0,0.0,0.0,0.0,0.0,0.0,0.0,0.0,0.0,0.0,0.0,0.0,0.0,0.0,0.0,0.0,0.0,0.0,0.0,1.0279,1.0493,1.0465,1.0696,1.0801,0.0,0.0,0.0,0.0,0.0,0.0,0.0,0.0,0.0,1.3875,1.3753,1.3833,1.4178,1.4156,1.4097,1.3993,1.4279,1.4565,1.4838,1.4471,1.4992,1.6225,1.5632,1.5853,1.6551,1.436,1.3459,1.3484,0.0,0.0,0.0,0.0,1.395,1.4254,0.0,0.0,0.0,0.0,0.0,0.0,0.0,0.0,0.0,0.0,0.0,0.0,0.1479,0.2243,0.2736,0.2999,0.3008,0.2997,0.2925,0.2774,0.2681,0.2605,0.2542,0.2518,0.2534,0.2624,0.2738,0.292,0.3055,0.3095,0.309,0.3122,0.3285,0.3529,0.4011,0.4123,0.3988,0.4574,0.4851,0.497,0.0,0.0,0.0,0.0,0.0,0.0,0.0,0.0,0.0,0.0,0.0,0.0,0.0,0.0,0.0,0.0,0.0,0.0,0.0,0.0,0.0,0.0,0.0,0.0,0.0,0.0,0.0,0.0,0.0,0.0,0.0,0.0,0.0,0.0,0.0,0.0,0.0,1.0584,1.0912,1.0865,1.1353,1.1531,0.0,0.0,0.0,0.0,0.0,0.0,1.4393,1.4276,1.4882,1.6469,1.5963,1.6028,1.6764,1.6394,1.6188,1.6073,1.6188,1.6459,1.6877,1.6343,1.6806,1.8044,1.7276,1.7654,1.8672,1.645,1.5429,1.5267,1.5416,1.5505,1.559,1.5821,1.5951,1.6067,0.0,0.0,0.0,0.0,0.0,0.0,0.0,0.0,0.0,0.0,0.0,0.0801,0.1761,0.2441,0.2767,0.2719,0.2951,0.3041,0.2928,0.2815,0.2725,0.2605,0.2542,0.2537,0.2597,0.2771,0.2908,0.292,0.3049,0.3087,0.3093,0.3208,0.3623,0.415,0.4274,0.4208,0.4171,0.507,0.5365,0.527,0.5389,0.0,0.0,0.0,0.0,0.0,0.0,0.0,0.0,0.0,0.0,0.0,0.0,0.0,0.0,0.0,0.0,0.0,0.0,0.0,0.0,0.0,0.0,0.0,0.0,0.0,0.0,0.0,0.0,0.0,0.0,0.0,0.0,0.0,0.0,0.0,0.0,0.0,0.0,1.1547,1.2249,0.0,0.0,0.0,0.0,1.3655,1.5187,1.6419,1.7055,1.685,1.7257,1.8504,1.7915,1.8023,1.8946,1.9148,1.9094,1.8733,1.9094,1.894,1.8328,1.8607,1.8593,1.8394,1.8328,1.8212,1.7992,1.7344,1.7496,1.801,1.7073,1.6909,1.7176,1.7191,1.7397,1.766,0.0,0.0,0.0,0.0,0.0,0.0,0.0,0.0,-0.1701,-0.0224,0.0367,0.1082,0.211,0.246,0.2766,0.3125,0.3195,0.3191,0.3109,0.294,0.2823,0.2779,0.2643,0.2635,0.2774,0.2922,0.2967,0.3046,0.3098,0.3168,0.3256,0.4068,0.4713,0.5194,0.6401,0.6984,0.6987,0.6157,0.6498,0.7515,0.6985,0.677,0.0,0.0,0.0,0.0,0.0,0.0,0.0,0.0,0.0,0.0,0.0,0.0,0.0,0.0,0.0,0.0,0.0,0.0,0.0,0.0,0.0,0.0,0.0,0.0,0.0,0.0,0.0,0.0,0.0,0.0,0.0,0.0,0.0,0.0,0.0,0.0,0.0,1.2875,1.422,0.0,1.4493,1.5602,1.6327,1.6293,1.7147,1.8102,1.9147,1.9153,1.9641,2.078,2.0028,1.9816,2.0141,1.9714,1.944,1.9273,1.944,1.9656,1.9857,1.922,1.944,2.0302,1.9554,1.9494,1.9836,1.9643,1.9193,1.854,1.871,1.8891,1.8941,1.8738,1.8863,1.9097,0.0,0.0,0.0,0.0,0.0,0.0,0.0,0.0,-0.135,0.0274,0.0932,0.1486,0.2239,0.2543,0.2796,0.3218,0.3272,0.3256,0.3174,0.2984,0.2908,0.2889,0.2747,0.2749,0.2917,0.297,0.3068,0.312,0.3181,0.3497,0.3975,0.4886,0.5753,0.6688,0.7979,0.8926,0.9414,0.7867,0.7859,0.8833,0.8181,0.7927,0.7887,0.0,0.0,0.0,0.0,0.0,0.0,0.0,0.0,0.0,0.0,0.0,0.0,0.0,0.0,0.0,0.0,0.0,0.0,0.0,0.0,0.0,0.0,0.0,0.0,0.0,0.0,0.0,0.0,0.0,0.0,0.0,0.0,0.0,0.0,1.3253,1.417,1.44,1.6113,1.7186,1.6833,1.7875,1.8556,1.8557,1.917,2.0016,2.1002,2.087,2.1239,2.2307,2.1469,2.1138,2.1469,2.0918,2.0597,2.0479,2.0479,2.0749,2.1117,2.0297,2.0468,2.1381,2.0622,2.0519,2.0925,2.0925,2.0335,1.9514,2.0027,2.0146,2.0019,1.9797,1.9717,1.967,0.0,0.0,0.0,0.0,0.0,0.0,0.0,-0.2014,-0.1046,0.0,0.1212,0.1992,0.2118,0.2636,0.2964,0.2912,0.3063,0.3183,0.3108,0.2986,0.2892,0.2788,0.2889,0.2922,0.2928,0.3052,0.312,0.3184,0.3292,0.3975,0.521,0.562,0.6743,0.8481,0.8838,0.9794,1.1063,1.0124,0.9489,0.9208,0.8931,0.8891,0.8806,0.0,0.0,0.0,0.0,0.0,0.0,0.0,0.0,0.0,0.0,0.0,0.0,0.0,0.0,0.0,0.0,0.0,0.0,0.0,0.0,0.0,0.0,0.0,0.0,0.0,0.0,0.0,0.0,0.0,0.0,0.0,0.0,0.0,1.2905,1.4582,1.5908,1.6157,1.7912,1.8939,1.8417,1.9317,2.0008,2.0378,2.1408,2.2202,2.2482,2.1959,2.2085,2.2965,2.2142,2.2085,2.3022,2.3022,2.2847,2.2553,2.2553,2.2377,2.2043,2.2027,2.1783,2.1412,2.1381,2.119,2.0925,2.0925,2.0925,2.0925,2.0925,2.0702,2.04,2.04,2.002,1.9478,0.0,0.0,0.0,0.0,0.0,0.0,0.0,-0.1566,-0.0772,0.0901,0.1438,0.1774,0.2153,0.2337,0.2551,0.2964,0.2966,0.304,0.3074,0.2965,0.2911,0.2895,0.295,0.2976,0.3065,0.3066,0.3141,0.3297,0.4185,0.4837,0.5306,0.7379,0.8689,0.9454,1.0655,1.15,1.2001,1.1729,1.1585,1.1389,1.0492,1.028,1.0484,0.0,0.0,0.0,0.0,0.0,0.0,0.0,0.0,0.0,0.0,0.0,0.0,0.0,0.0,0.0,0.0,0.0,0.0,0.0,0.0,0.0,0.0,0.0,0.0,0.0,0.0,0.0,0.0,0.0,0.0,0.0,1.3945,1.4425,1.5073,1.5619,1.6569,1.8342,1.9402,2.0074,2.0317,2.1408,2.2041,2.1923,2.2419,2.2768,2.2863,2.2733,2.2724,2.3006,2.2724,2.295,2.3641,2.3641,2.3592,2.355,2.355,2.3206,2.2704,2.225,2.1963,2.1798,2.129,2.1004,2.0925,2.0925,2.0925,2.0925,2.0925,2.0861,2.075,2.0496,2.036,2.0408,0.0,0.0,0.0,0.0,0.0,0.0,0.0,-0.203,-0.1339,0.0679,0.0928,0.1156,0.1945,0.215,0.2291,0.2611,0.2758,0.2879,0.2867,0.2934,0.2967,0.2992,0.3027,0.3117,0.3162,0.3189,0.33,0.3395,0.4077,0.4988,0.611,0.7798,0.9214,1.0406,1.1509,1.211,1.2219,1.2327,1.2438,1.2495,1.1675,1.1517,1.169,1.1397,1.1057,1.0707,1.0583,1.0621,1.0688,1.0575,0.0,0.0,0.0,0.0,0.0,0.0,0.0,0.0,0.0,0.0,0.0,0.0,0.0,0.0,0.0,0.0,0.0,0.0,0.0,0.0,0.0,0.0,0.0,0.0,1.5035,1.6062,1.7333,1.745,1.7953,1.9472,2.0698,2.1571,2.1882,2.2783,2.3319,2.3109,2.351,2.3736,2.3736,2.3736,2.3736,2.3736,2.3736,2.3904,2.4295,2.4033,2.3921,2.3921,2.3478,2.3199,2.299,2.233,2.2119,2.2317,2.1752,2.1515,2.1573,2.1573,2.1573,2.1522,0.0,0.0,0.0,0.0,2.1147,2.1271,0.0,0.0,0.0,0.0,0.0,0.0,0.0,-0.2873,-0.2077,-0.005,0.0201,0.0569,0.167,0.201,0.2126,0.213,0.2474,0.2681,0.2626,0.2857,0.3044,0.3113,0.318,0.3219,0.333,0.3384,0.3439,0.3496,0.366,0.4896,0.7083,0.7581,0.8975,1.116,1.1737,1.2028,1.2073,1.2292,1.2578,1.2786,1.2449,1.2365,1.2382,1.2039,1.1869,1.1803,1.1435,1.1189,1.1028,1.1009,0.0,0.0,0.0,0.0,0.0,0.0,0.0,0.0,0.0,0.0,0.0,0.0,0.0,0.0,0.0,0.0,0.0,0.0,0.0,0.0,0.0,0.0,0.0,0.0,1.6177,1.7675,1.9373,1.9777,1.996,2.0259,2.1876,2.3022,2.3126,2.3657,2.4033,2.4033,2.4518,2.4778,2.4778,2.4778,0.0,0.0,0.0,2.4834,2.4889,2.4295,2.4033,2.396,2.3132,2.2855,2.2983,2.2423,2.2424,2.2802,2.249,2.2399,2.2485,2.2485,2.2535,2.2535,2.1979,2.1776,2.1844,2.2042,2.2152,2.2063,0.0,0.0,0.0,0.0,0.0,0.0,0.0,-0.2233,-0.1226,0.005,0.0846,0.143,0.1779,0.1774,0.1942,0.2394,0.227,0.2286,0.2578,0.2896,0.3127,0.3191,0.3264,0.3332,0.3392,0.3406,0.3439,0.3496,0.4473,0.5718,0.7138,0.8416,0.9876,1.1355,1.1799,1.2183,1.2466,1.2413,1.2663,1.2937,1.1984,1.2024,1.2673,1.2417,1.2165,1.2015,1.193,1.1883,1.1817,1.1699,1.1614,1.152,1.1179,1.0962,0.0,0.0,0.0,0.0,0.0,0.0,0.0,0.0,0.0,0.0,0.0,0.0,0.0,0.0,0.0,0.0,0.0,0.0,0.0,1.651,1.7644,1.8691,1.9975,2.1264,2.2285,2.2724,2.2663,2.2972,2.4016,2.4407,2.4629,2.4629,2.4723,2.4778,2.4778,2.4778,2.4778,2.4778,2.4778,2.5,2.5514,2.4962,2.4629,2.4612,2.4433,0.0,2.3222,2.3335,2.3248,2.2995,2.2605,2.2502,2.2485,2.2485,2.2719,2.307,2.2568,2.2333,2.2417,2.29,2.2821,2.2585,0.0,0.0,0.0,0.0,0.0,0.0,0.0,-0.3188,-0.2349,-0.0741,-0.0149,0.051,0.163,0.1684,0.1748,0.2022,0.2125,0.2369,0.2808,0.3081,0.327,0.336,0.3422,0.3496,0.3589,0.3561,0.3575,0.3632,0.4255,0.5516,0.7323,0.8061,0.9468,1.1322,1.1673,1.1959,1.2184,1.2283,1.2218,1.2033,1.1951,1.1988,1.2078,1.2078,1.2302,1.2587,1.2493,1.238,1.2222,1.2109,1.1992,1.1803,1.1699,1.1453,1.1123,0.0,0.0,0.0,0.0,0.0,0.0,0.0,0.0,0.0,0.0,0.0,0.0,0.0,0.0,1.387,1.4413,0.0,1.6279,1.7738,1.8787,1.9899,2.1306,2.2408,2.3148,2.3257,2.3413,2.3821,2.4815,2.513,2.5238,2.5238,2.5514,2.5679,2.5679,2.5679,2.5679,2.5679,2.5679,2.5861,2.6136,2.5238,2.4944,2.5238,2.4629,2.4149,2.3725,2.373,2.3617,2.3495,2.3112,2.3088,2.3338,2.3338,2.3488,2.3737,2.3438,2.3338,2.3388,2.3637,2.3484,2.3105,0.0,0.0,0.0,0.0,0.0,0.0,0.0,-0.4195,-0.3415,-0.1551,-0.1189,-0.0406,0.1471,0.164,0.1609,0.1609,0.2121,0.2596,0.2974,0.3221,0.3441,0.3512,0.3594,0.3681,0.3824,0.3744,0.3744,0.3827,0.3841,0.4954,0.7094,0.7115,0.8488,1.0914,1.0973,1.1187,1.1469,1.1502,1.1151,1.0612,1.1273,1.1355,1.1053,1.1339,1.2179,1.3098,1.2899,1.2625,1.2382,1.2382,1.2137,1.1907,1.2034,1.1827,1.1491,1.1075,1.0896,0.0,0.0,0.0,0.0,0.0,0.0,0.0,0.0,0.0,1.358,1.4111,1.422,1.4449,1.5197,1.6172,1.7303,1.8619,1.9757,2.1059,2.2822,2.3523,2.3905,2.3953,2.4507,2.5121,2.5651,2.5937,2.6095,2.5968,2.6427,2.6664,2.6591,2.6591,2.6591,2.6591,2.6591,2.6591,2.6591,2.5514,2.5238,2.5679,2.4616,2.4175,2.4272,2.3999,2.393,2.3952,2.363,2.3737,2.4202,2.4202,2.4202,2.4202,2.4202,2.4202,2.4202,2.4202,2.3895,2.3444,0.0,0.0,0.0,0.0,0.0,0.0,0.0,0.0,-0.2562,-0.1428,-0.0582,0.0347,0.147,0.1596,0.1577,0.1577,0.2272,0.2638,0.257,0.3108,0.3461,0.3572,0.3739,0.3869,0.383,0.3869,0.3869,0.3827,0.3883,0.4532,0.5752,0.5776,0.7295,0.9935,0.8787,0.9229,1.0628,0.9286,0.8834,0.8897,0.8531,0.8948,0.9894,1.0495,1.1703,1.3098,1.2899,1.2625,1.2382,1.2382,1.2231,1.2053,1.2081,1.1973,1.1699,1.1283,1.0896,1.0602,1.0355,1.0631,1.1285,1.2462,1.2905,1.3274,0.0,0.0,1.469,1.5209,1.5318,1.5487,1.6042,1.649,1.7396,1.9444,2.0566,2.195,2.4014,2.4825,2.5694,2.6883,2.676,2.6606,2.6664,2.72,2.7433,2.7086,2.7105,2.6958,2.6609,2.6591,2.6591,2.6591,2.6591,2.6591,2.6591,2.5916,2.5624,2.5679,2.5179,2.4809,2.4456,2.4602,2.4509,2.4157,2.4121,2.4152,2.4202,2.4202,2.4202,2.4202,2.4202,2.4202,2.4202,2.4202,2.3895,2.348,0.0,0.0,0.0,0.0,0.0,0.0,0.0,0.0,0.0,-0.2285,-0.1902,-0.1062,0.0537,0.12,0.1566,0.1708,0.2088,0.2463,0.2785,0.3172,0.3522,0.3744,0.3886,0.3948,0.3924,0.3973,0.3992,0.3976,0.4003,0.4621,0.5822,0.5858,0.6892,0.8756,0.8193,0.8374,0.903,0.847,0.8251,0.8324,0.8617,0.8913,0.9294,1.0004,1.1012,1.2129,1.2627,1.255,0.0,1.2212,1.1996,1.177,1.2006,1.1822,1.1425,1.1246,1.0896,0.0,1.0516,1.0863,1.1461,0.0,1.2944,1.3607,1.4674,1.4944,1.5137,1.5813,1.5958,1.6115,1.6658,1.7291,1.842,0.0,2.0988,2.2213,2.5044,2.5277,2.5601,2.6941,2.7301,2.7513,2.7691,2.7578,2.7361,2.7196,2.6958,2.6756,2.6591,2.6591,2.6591,2.6591,2.6591,2.6591,2.6591,2.6026,2.5861,2.619,2.5469,2.5058,2.5032,2.4856,2.4606,2.4202,2.4202,2.4202,2.4202,2.4202,2.4202,2.4202,2.4202,2.4202,2.4202,2.4202,2.3895,2.3499,0.0,0.0,0.0,0.0,0.0,0.0,0.0,0.0,0.0,0.0,-0.2951,-0.2325,-0.052,0.0278,0.0737,0.0885,0.1406,0.1975,0.2441,0.3075,0.3569,0.3858,0.3989,0.3997,0.3997,0.4093,0.4115,0.4125,0.4142,0.4591,0.5533,0.5555,0.6271,0.7498,0.714,0.7219,0.7532,0.7228,0.7077,0.7028,0.7827,0.8142,0.8233,0.9096,0.9856,1.0619,1.1744,1.2061,1.1902,1.1846,1.1642,1.1406,1.1714,1.1529,1.1113,1.1113,1.082,1.0535,1.0535,1.0898,0.0,1.2294,1.3116,1.3997,1.508,1.5439,1.5728,1.6368,1.6501,1.6646,1.7117,1.7765,1.8848,2.0855,2.1184,2.2301,2.5403,2.5283,2.5326,2.6553,2.6981,2.743,2.8022,2.7728,2.7416,2.7196,2.7013,2.6811,2.6591,2.6591,2.6591,2.6591,2.6591,2.6591,2.6591,2.6082,2.6028,2.6408,2.5468,2.5071,2.5197,2.4845,2.4496,2.4202,2.4202,2.4202,2.4202,2.4202,2.4202,2.4202,2.4202,2.4202,2.4202,2.4202,2.3895,2.3499,0.0,0.0,0.0,0.0,0.0,0.0,0.0,0.0,0.0,0.0,0.0,0.0,0.0,-0.1315,-0.1321,-0.1374,0.0048,0.0984,0.1058,0.2641,0.3676,0.3913,0.403,0.4123,0.4123,0.424,0.4243,0.4125,0.4185,0.4183,0.419,0.4251,0.4998,0.6304,0.5005,0.5168,0.636,0.4961,0.4378,0.4484,0.4932,0.5471,0.6127,0.7514,0.8182,0.8588,1.0023,1.099,1.151,1.1293,1.1085,1.0953,1.1161,1.1075,0.0,1.0905,1.0612,1.0327,1.0327,1.0621,1.122,1.2453,1.355,1.4567,1.5648,1.6272,1.673,1.7008,1.7068,1.7153,1.7418,1.7525,1.8257,2.0427,2.1089,2.22,2.4659,2.501,2.5326,2.6204,2.6,2.615,2.7122,2.7911,2.8022,2.7233,2.7583,2.7398,2.6628,2.6591,2.6591,2.6591,2.6591,2.6591,2.6591,2.6188,2.5968,2.6021,2.5197,2.4812,2.4794,2.4404,2.422,2.4202,2.4202,2.4202,2.4202,2.4202,2.4202,2.4202,2.4202,2.4202,2.4202,2.4202,2.3895,2.3499,0.0,0.0,0.0,0.0,0.0,0.0,0.0,0.0,0.0,0.0,0.0,0.0,0.0,0.0,0.0,0.0,-0.108,-0.0252,0.09,0.161,0.2524,0.3736,0.3986,0.4106,0.4065,0.4224,0.4286,0.4245,0.4267,0.4267,0.4245,0.4267,0.4542,0.4942,0.4498,0.4574,0.4973,0.4484,0.453,0.4961,0.4983,0.5383,0.6039,0.6628,0.715,0.7557,0.0,0.9161,1.0248,1.066,1.065,1.0518,1.0716,1.0641,1.0497,1.0355,1.0412,1.0516,1.0516,1.1162,1.2123,1.325,1.425,1.5251,1.6442,1.6827,1.6984,1.7068,1.696,1.6803,1.6706,1.6694,1.7291,1.9048,1.9717,2.0763,2.2913,2.361,2.4305,2.5264,2.5576,2.6007,2.672,2.7031,2.7196,2.7178,2.7068,2.6866,2.6609,2.6591,2.6591,2.6591,2.6591,2.6591,2.6591,2.6223,2.6021,2.6002,2.5161,2.4629,2.4404,2.4257,2.4202,2.4202,2.4202,2.4202,2.4202,2.4202,2.4202,2.4202,2.4202,2.4202,2.4202,2.4202,2.3895,2.3535,0.0,0.0,0.0,0.0,0.0,0.0,0.0,0.0,0.0,0.0,0.0,0.0,0.0,0.0,0.0,0.0,0.0,-0.1368,0.0157,0.0875,0.1971,0.3501,0.3804,0.3967,0.3973,0.4065,0.4125,0.4147,0.4147,0.4169,0.421,0.421,0.4221,0.4243,0.4243,0.4253,0.4273,0.4229,0.4461,0.4884,0.463,0.4936,0.5487,0.5532,0.5912,0.0,0.6828,0.7783,0.9022,0.9749,1.0083,1.0222,1.0355,1.0308,1.0194,1.0127,1.0355,1.0649,1.0801,1.1433,1.2353,1.3341,1.4396,1.5456,1.641,1.6906,1.7068,1.6972,1.6658,1.6356,1.6175,1.6151,1.6624,1.8059,1.87,1.9573,2.1263,2.218,2.297,2.3715,2.4616,2.5429,0.0,2.6263,2.6536,2.694,2.6866,2.6738,2.6591,2.6591,2.6591,2.6591,2.6591,2.6591,2.6591,2.6076,2.5653,2.5359,2.4845,2.4459,2.4202,2.4202,2.4202,2.4202,2.4202,2.4202,2.4202,2.4202,2.4202,2.4202,2.4202,2.4202,2.4202,2.4202,2.3895,2.3535,0.0,0.0,0.0,0.0,0.0,0.0,0.0,0.0,0.0,0.0,0.0,0.0,0.0,0.0,0.0,0.0,0.0,0.0,-0.1236,0.0368,0.1845,0.3139,0.3496,0.3728,0.3902,0.3855,0.3858,0.3916,0.3916,0.3913,0.4022,0.4022,0.4052,0.4106,0.4106,0.4139,0.4185,0.4071,0.4052,0.4079,0.3847,0.4064,0.4488,0.4199,0.4657,0.5518,0.6002,0.6873,0.79,0.864,0.9393,1.0032,1.0042,1.0032,1.007,1.0289,1.0452,1.0744,1.1113,1.1529,1.2002,1.2856,1.4056,1.5117,1.5682,1.649,1.6996,1.6718,1.6223,1.5837,0.0,0.0,1.6242,1.7499,1.7934,1.8584,1.978,2.075,2.1476,0.0,0.0,0.0,0.0,0.0,2.6205,2.6554,2.694,2.6995,2.6628,2.6591,2.6591,2.6591,2.6591,2.6591,2.6591,2.5784,2.501,2.4202,2.4202,2.4202,2.4202,2.4202,2.4202,2.4202,2.4202,2.4202,2.4202,2.4202,2.4202,2.4202,2.4202,2.4202,2.4202,2.4202,2.3914,2.3535,0.0,0.0,0.0,0.0,0.0,0.0,0.0,0.0,0.0,0.0,0.0,0.0,0.0,0.0,0.0,0.0,0.0,0.0,-0.2431,-0.1186,0.021,0.1754,0.2762,0.3454,0.3657,0.373,0.3836,0.3852,0.3852,0.3807,0.3837,0.3837,0.3845,0.3861,0.3861,0.3869,0.388,0.385,0.3793,0.3714,0.3608,0.3642,0.3733,0.393,0.439,0.4984,0.5499,0.6372,0.7448,0.8697,0.0,1.0488,1.0603,1.0592,1.0497,1.0679,1.0877,1.1132,1.1548,1.1964,1.2478,1.3507,1.4347,1.5104,1.5852,1.6433,1.667,1.6199,1.568,1.5185,0.0,0.0,0.0,1.5986,1.6802,0.0,1.9013,2.0109,0.0,2.2204,0.0,2.4861,2.5482,2.61,2.6481,2.6573,2.6683,2.683,2.7013,2.6756,2.6591,2.6591,2.6591,2.6591,2.6591,2.5784,2.501,2.4202,2.4202,2.4202,2.4202,2.4202,2.4202,2.4202,2.4202,2.4202,2.4202,2.4202,2.4202,2.4202,2.4202,2.4202,2.4202,2.4202,2.4128,2.4005,0.0,0.0,0.0,0.0,0.0,0.0,0.0,0.0,0.0,0.0,0.0,0.0,0.0,0.0,0.0,0.0,0.0,0.0,0.0,-0.1371,-0.0103,0.1915,0.2753,0.328,0.3469,0.3537,0.3572,0.3572,0.36,0.3613,0.3613,0.3638,0.3635,0.3616,0.3668,0.3689,0.3687,0.3659,0.3624,0.0,0.0,0.3401,0.336,0.3537,0.3934,0.4369,0.0,0.0,0.0,0.0,0.0,1.0344,1.0461,1.072,1.1047,1.135,0.0,1.1794,1.203,1.2398,1.2804,1.3341,1.4015,1.4632,1.512,1.553,1.5671,1.5279,1.4775,1.4316,1.4014,1.4268,1.463,0.0,0.0,0.0,1.7648,1.877,1.9844,0.0,2.2846,0.0,2.4667,2.5348,2.6098,2.683,2.6683,2.6683,2.6903,2.6701,2.6591,2.6591,2.6591,2.6426,2.6059,2.5436,2.4845,2.4202,2.4202,2.4202,2.4202,2.4202,2.4202,2.4202,2.4202,2.4202,2.4202,2.4202,2.4202,2.4202,2.4202,2.4202,2.4202,2.4202,2.4202,2.4202,0.0,0.0,0.0,0.0,0.0,0.0,0.0,0.0,0.0,0.0,0.0,0.0,0.0,0.0,0.0,0.0,0.0,0.0,0.0,0.0,0.0,0.2529,0.2951,0.3203,0.3308,0.3311,0.3311,0.3311,0.3362,0.3387,0.339,0.3439,0.3436,0.3392,0.3493,0.354,0.3537,0.3485,0.3488,0.3515,0.336,0.3297,0.3286,0.0,0.0,0.0,0.0,0.0,0.0,0.0,0.9191,0.9846,1.0046,1.0736,1.1513,1.2053,1.2297,1.2438,1.2512,1.2786,1.3079,1.2908,1.3397,1.3938,1.405,1.4292,1.4458,1.4256,1.3857,1.3507,1.3471,1.387,1.4232,1.434,0.0,1.6023,1.6496,1.7461,1.8381,1.8989,2.143,2.3143,2.3143,2.3983,2.5138,2.679,2.6555,2.6446,2.6664,2.6609,2.6591,2.6591,2.6536,2.6133,2.5433,2.4977,2.4624,2.4202,2.4202,2.4202,2.4202,2.4202,2.4202,2.4202,2.4202,2.4202,2.4202,2.4202,2.4202,2.4202,2.4202,2.4202,2.4202,2.4202,2.4202,2.4202,0.0,0.0,0.0,0.0,0.0,0.0,0.0,0.0,0.0,0.0,-0.4928,-0.4784,0.0,0.0,0.0,0.0,0.0,0.0,0.0,0.0,0.0,0.0,0.2273,0.2982,0.3195,0.3195,0.3195,0.3195,0.3205,0.3211,0.3211,0.3273,0.327,0.3211,0.3283,0.3292,0.3292,0.3281,0.3203,0.3165,0.3133,0.3122,0.312,0.0,0.0,0.0,0.0,0.0,0.0,0.0,0.8059,0.9532,1.0572,1.1011,1.1296,1.2367,1.2682,1.2748,1.2918,1.3013,1.3117,1.3079,1.3233,1.3464,1.3731,1.3905,0.0,0.0,1.3725,1.3447,1.323,1.3447,1.387,1.4533,1.5161,1.6152,1.7884,1.829,1.8844,0.0,2.0916,2.1586,2.19,2.2507,0.0,2.5103,2.5162,2.571,2.6994,2.6756,2.6591,2.6591,2.6296,2.5892,2.5381,2.4977,2.4624,2.4202,2.4202,2.4202,2.4202,2.4202,2.4202,2.4202,2.4202,2.4202,2.4202,2.4202,2.4202,2.4202,2.4202,2.4202,2.4202,2.4202,2.4202,2.4202,0.0,0.0,0.0,0.0,0.0,0.0,0.0,-0.4973,-0.5039,-0.5226,-0.5132,-0.4978,-0.4981,-0.4638,-0.4383,0.0,0.0,0.0,0.0,0.0,0.0,0.0,0.0,0.0,0.3181,0.3211,0.3211,0.3181,0.0,0.3195,0.3133,0.3165,0.3196,0.3139,0.3202,0.3162,0.3136,0.3168,0.3162,0.3138,0.3138,0.3138,0.0,0.0,0.0,0.0,0.0,0.0,0.0,0.0,0.7217,0.817,0.9471,1.061,1.1591,1.2307,1.2834,1.3249,1.324,1.3306,1.3334,1.3117,1.3058,1.3073,1.3226,0.0,0.0,0.0,1.3181,1.3049,1.2928,1.335,0.0,1.4232,1.4968,1.5936,1.7159,1.7466,1.7888,1.8771,1.9781,2.0515,2.0644,2.1202,2.2379,2.4411,2.4094,2.4735,2.6793,2.6481,2.6261,2.6261,2.5674,2.5252,2.5069,2.4716,2.4404,2.4202,2.4202,2.4202,2.4202,2.4202,2.4202,2.4202,2.4202,2.4202,2.4202,2.4202,2.4202,2.4202,2.4202,2.4202,2.4202,2.4202,2.4202,2.4202,0.0,0.0,0.0,0.0,0.0,0.0,0.0,-0.5063,-0.5137,-0.5431,-0.5386,-0.5249,-0.523,-0.4504,-0.4068,0.0,0.0,0.0,0.0,0.0,0.0,0.0,0.0,0.0,0.0,0.0,0.0,0.3219,0.3316,0.0,0.0,0.0,0.0,0.0,0.3188,0.3154,0.3112,0.316,0.3181,0.0,0.0,0.3181,0.0,0.0,0.0,0.0,0.0,0.0,0.0,0.0,0.6703,0.7015,0.8103,0.971,1.1336,1.1938,1.2746,1.3361,1.3426,1.357,1.3589,1.3173,1.2975,1.275,1.2709,1.2474,0.0,1.2522,1.2613,1.2699,1.2699,1.3218,1.3701,0.0,1.4606,1.5403,1.6103,1.6441,1.6815,0.0,1.8538,0.0,1.939,1.9839,2.113,2.3559,2.3631,2.4445,2.6482,2.6241,2.6021,2.6021,2.4972,2.4452,2.4452,2.3802,2.3587,2.3854,2.3854,2.3954,2.4202,2.4202,2.4202,2.4202,2.4202,2.4202,2.4202,2.4202,2.4202,2.4202,2.4202,2.4202,2.4202,2.4202,2.4202,2.4202,0.0,0.0,0.0,0.0,0.0,0.0,0.0,-0.5169,-0.5345,-0.5696,-0.5663,-0.5544,-0.5536,-0.4797,-0.4184,0.0,0.0,0.0,0.0,0.0,0.0,0.0,0.0,0.0,0.0,0.0,0.0,0.3395,0.3401,0.0,0.0,0.0,0.0,0.0,0.0,0.3179,0.3173,0.3179,0.0,0.0,0.0,0.0,0.0,0.0,0.0,0.0,0.0,0.0,0.0,0.0,0.0,0.6828,0.7078,0.806,0.9439,1.138,0.0,0.0,1.3429,1.3674,1.3589,1.3173,1.2975,1.2657,1.2104,0.0,1.2245,1.2088,1.24,1.2699,1.2699,1.2771,1.3061,1.3785,0.0,1.4497,1.5753,1.6163,1.6537,1.7068,0.0,0.0,1.8135,1.8194,1.9229,2.1672,2.4094,2.5789,2.6537,2.6241,2.6021,2.6021,2.4209,2.3238,2.3238,2.1874,2.1709,2.2686,2.2686,2.3188,2.4202,2.4202,2.4202,2.4202,2.4202,2.4202,2.4202,2.4202,2.4202,2.4202,2.4202,2.4202,2.4202,2.4202,2.4202,2.4202,0.0,0.0,0.0,0.0,0.0,0.0,-0.4142,-0.4134,-0.427,-0.4596,-0.4577,-0.4488,-0.4533,-0.3896,-0.3531,-0.3609,0.0,0.0,0.0,0.0,0.0,0.0,0.0,0.0,0.0,0.0,0.3371,0.3357,0.3395,0.0,0.0,0.0,0.0,0.0,0.0,0.3213,0.3181,0.3181,0.0,0.0,0.0,0.0,0.0,0.0,0.0,0.0,0.0,0.0,0.6142,0.0,0.0,0.0,0.6638,0.7031,0.0,0.0,1.0946,1.2119,1.2613,1.3232,1.3589,1.3173,1.2814,1.2431,1.1994,0.0,1.2118,1.201,1.2357,1.2699,1.2699,1.2843,1.3109,1.3592,0.0,0.0,1.5282,1.5511,1.5897,1.6754,1.6948,0.0,0.0,0.0,1.8997,2.1388,2.3815,2.511,2.5,2.4963,2.4809,2.4615,2.314,2.2189,2.2029,2.2105,2.2399,2.2809,2.3294,2.3755,2.4202,2.4202,2.4202,2.4202,2.4202,2.4202,2.4202,2.4202,2.4202,2.4202,2.4202,2.4202,2.4202,2.4202,2.4202,2.4202,0.0,0.0,0.0,0.0,0.0,-0.3782,-0.3556,-0.3523,-0.3619,-0.3883,-0.388,-0.3875,-0.3815,-0.3284,-0.2853,-0.2795,-0.1349,0.0,0.0,0.0,0.0,0.0,0.0,0.0,0.0,0.0,0.3425,0.3401,0.3444,0.3455,0.0,0.0,0.3406,0.3346,0.0,0.0,0.0,0.0,0.0,0.0,0.0,0.0,0.0,0.0,0.0,0.0,0.0,0.0,0.0,0.0,0.0,0.0,0.0,0.0,0.0,0.0,1.0085,1.1444,1.2218,1.298,1.3438,1.3193,1.2748,1.2272,0.0,0.0,1.204,1.1826,1.2272,1.2699,1.2699,1.2928,1.3206,0.0,0.0,1.4159,1.4896,1.5065,1.5415,1.6247,0.0,1.667,1.7201,1.8093,1.9461,2.1331,2.3087,2.3983,2.376,2.3386,2.3184,2.3322,2.2027,2.1156,2.0962,2.1771,2.2366,2.2664,2.3489,2.4067,2.4385,2.4257,2.4202,2.4202,2.4202,2.4202,2.4202,2.4202,2.4202,2.4202,2.4202,2.4202,2.4202,2.4202,2.4202,2.4202,0.0,0.0,0.0,0.0,0.0,0.0,-0.3559,-0.3586,-0.3708,-0.3951,-0.3976,-0.3998,-0.3876,-0.331,-0.2526,-0.1491,-0.0809,0.0,0.0,0.0,0.0,0.0,0.0,0.0,0.0,0.0,0.3526,0.3583,0.3586,0.3553,0.3496,0.3496,0.3466,0.3409,0.0,0.0,0.0,0.0,0.0,0.0,0.0,0.0,0.0,0.0,0.0,0.0,0.0,0.0,0.0,0.0,0.0,0.0,0.0,0.6936,0.7842,0.0,0.9655,1.0374,1.2493,1.3069,1.3127,1.3127,1.2748,1.2165,0.0,1.175,1.2106,1.1434,1.2057,1.2699,1.2699,1.2928,1.3206,1.3471,1.3737,0.0,1.4642,1.4944,1.5209,0.0,1.5741,1.6115,1.6658,1.8884,2.0486,2.1073,2.1998,2.2805,2.3368,2.1699,2.1267,2.2379,2.0903,2.0139,2.0124,2.0263,2.0846,2.1894,2.2716,2.37,2.4757,2.4385,2.4202,2.4202,2.4202,2.4202,2.4202,2.4202,2.4202,2.4202,2.4202,2.4202,2.4202,2.4202,2.4202,2.4202,0.0,0.0,0.0,0.0,0.0,0.0,0.0,-0.1947,-0.2445,-0.2539,-0.2551,-0.2577,-0.2585,-0.2391,-0.1812,-0.0876,0.0,0.0,0.0,0.0,0.0,0.0,0.0,0.0,0.0,0.0,0.3548,0.3526,0.3567,0.3578,0.3559,0.3559,0.3526,0.3469,0.345,0.342,0.0,0.0,0.0,0.0,0.0,0.0,0.3584,0.0,0.0,0.0,0.0,0.0,0.0,0.0,0.0,0.0,0.0,0.0,0.0,0.87,0.9626,1.0531,1.1313,1.2083,1.2606,1.2465,1.2219,1.1831,1.1151,1.1293,1.1446,1.0922,1.1585,1.2229,1.2229,1.2556,1.2988,1.3435,1.358,0.0,0.0,0.0,0.0,1.5716,1.6489,1.7044,1.7213,1.9123,2.0385,2.0544,2.1388,2.1786,2.1559,2.0415,2.0088,2.0955,2.0076,1.9921,2.0475,2.1076,2.1926,2.3101,2.3613,2.4035,2.4404,2.4257,2.4202,2.4202,2.4202,2.4202,2.4202,2.4202,2.4202,2.4202,2.4202,2.4202,2.4202,2.4202,2.4202,2.4202,0.0,0.0,0.0,0.0,0.0,0.0,0.0,-0.0443,-0.0842,-0.0865,-0.0863,-0.0872,-0.0966,-0.0885,-0.0465,0.0412,0.1065,0.0,0.0,0.0,0.0,0.0,0.0,0.0,0.3531,0.3567,0.3591,0.36,0.3638,0.3657,0.3657,0.3657,0.361,0.3529,0.3507,0.3477,0.0,0.0,0.0,0.0,0.0,0.0,0.3938,0.0,0.0,0.0,0.0,0.0,0.0,0.0,0.0,0.0,0.0,0.0,0.0,0.0,0.9527,1.0476,1.1037,1.146,1.1763,1.2046,1.1808,1.1463,1.1,0.0,1.1081,1.0663,1.137,1.2015,1.2015,1.2482,1.2976,1.327,1.3532,1.3809,0.0,0.0,0.0,1.597,1.6887,1.7479,1.7479,1.8972,1.9914,1.9914,2.0326,2.0429,2.0026,1.9216,1.8968,1.9287,1.9535,1.989,2.0299,2.1775,2.2728,2.326,2.4074,2.444,2.444,2.4275,2.4202,2.4202,2.4202,2.4202,0.0,2.4202,2.4202,2.4202,2.4202,2.4202,2.4202,2.4202,2.4202,2.4202,0.0,0.0,0.0,0.0,0.0,0.0,0.0,0.0884,0.0825,0.0895,0.0829,0.0779,0.0817,0.0856,0.1249,0.2106,0.0,0.0,0.0,0.0,0.0,0.0,0.0,0.0,0.3589,0.3589,0.3643,0.3816,0.3819,0.3822,0.3822,0.3824,0.3706,0.3591,0.3534,0.3507,0.3501,0.3501,0.3537,0.3589,0.3642,0.3941,0.0,0.0,0.0,0.0,0.0,0.0,0.0,0.0,0.0,0.0,0.0,0.0,0.0,0.0,0.0,0.0,0.0,1.1189,1.0819,1.1773,1.1586,1.1094,1.0896,0.0,0.0,1.0599,1.1284,1.1929,1.1952,1.2537,1.3065,1.3125,1.3568,1.3978,0.0,1.4847,0.0,0.0,1.7032,1.7491,1.7455,1.8572,1.9272,1.9272,1.9024,1.8939,1.8997,1.8428,1.7952,1.778,1.9372,2.0089,1.9752,2.2215,2.3243,2.2835,2.4118,2.4776,2.4776,2.4422,2.4238,2.4202,2.4202,2.4202,2.4202,2.4202,2.4202,2.4202,2.4202,2.4202,2.4202,2.4202,2.4202,2.4202,0.0,0.0,0.0,0.0,0.0,0.0,0.0,0.0,0.0,0.0,0.0829,0.0828,0.0849,0.0901,0.1237,0.0,0.0,0.0,0.0,0.0,0.0,0.0,0.0,0.0,0.3589,0.3589,0.3602,0.363,0.3676,0.37,0.37,0.3747,0.373,0.3657,0.3643,0.361,0.3567,0.3567,0.3575,0.3645,0.4089,0.427,0.0,0.0,0.0,0.0,0.627,0.643,0.0,0.0,0.0,0.0,0.0,0.0,0.0,0.0,0.8924,0.9361,1.0733,0.0,1.0842,1.0924,1.083,1.0669,0.0,1.0438,0.0,0.0,0.0,0.0,0.0,1.2023,1.2563,1.3525,1.3664,1.3845,1.4521,1.5608,0.0,1.6851,1.7418,1.7624,1.7225,1.8293,1.8972,1.8972,1.892,1.9229,1.9924,1.9171,1.8968,1.9569,2.0553,2.0912,2.0475,2.1384,2.2623,2.414,2.4118,2.4368,2.4776,2.4684,2.4514,2.4202,2.4202,2.4202,2.4202,2.4202,2.4202,2.4202,2.4202,2.4202,2.4202,2.4202,2.4202,2.4202,0.0,0.0,0.0,0.0,0.0,0.0,0.0,0.0,0.0,0.0,0.0,0.209,0.2125,0.213,0.0,0.0,0.0,0.0,0.0,0.0,0.0,0.0,0.0,0.3589,0.3589,0.3589,0.363,0.3711,0.3747,0.3777,0.3804,0.3809,0.3822,0.3676,0.3649,0.3619,0.3589,0.3589,0.3589,0.3642,0.4257,0.0,0.0,0.0,0.0,0.0,0.6308,0.6387,0.0,0.6452,0.643,0.6398,0.0,0.0,0.0,0.0,0.9072,0.9559,1.0498,1.0648,1.0548,1.0679,1.065,1.0592,1.0478,0.0,0.0,0.0,0.0,0.0,0.0,1.2157,1.2765,1.3594,1.3809,1.4195,0.0,0.0,1.6694,1.7213,1.7624,1.7817,1.766,1.8121,1.8429,1.8429,1.8315,1.8473,1.8997,1.8939,1.9083,1.9414,2.0494,2.0894,2.0635,2.1703,2.2723,2.3668,2.3916,2.4231,2.4551,2.4551,2.4422,2.4202,2.4202,2.4202,2.4202,2.4202,2.4202,2.4202,2.4202,2.4202,2.4202,2.4202,2.4202,2.4202,0.0,0.0,0.0,0.0,0.0,0.0,0.0,0.0,0.0,0.0,0.0,0.0,0.0,0.0,0.0,0.0,0.0,0.0,0.0,0.0,0.0,0.0,0.3591,0.3591,0.3602,0.3591,0.3668,0.3891,0.391,0.3886,0.3873,0.3902,0.3818,0.3689,0.363,0.3597,0.3589,0.3698,0.3754,0.381,0.448,0.0,0.0,0.0,0.0,0.0,0.0,0.0,0.0,0.6556,0.6473,0.6453,0.6658,0.0,0.0,0.0,0.0,0.0,1.0538,1.0428,1.0294,1.0688,1.0641,1.0564,1.0535,0.0,0.0,0.0,0.0,0.0,0.0,1.2393,0.0,0.0,0.0,1.4847,1.5922,1.6332,1.6767,1.7406,1.7756,1.7986,1.8094,1.7925,1.7817,1.7817,1.7681,1.7723,1.7948,1.8771,1.9189,1.9007,2.019,2.0734,2.0551,2.2113,2.2804,2.2603,2.3577,2.4144,2.4293,2.4293,2.4257,2.4202,2.4202,2.4202,2.4202,2.4202,2.4202,2.4202,2.4202,2.4202,2.4202,2.4202,2.4202,2.4202,0.0,0.0,0.0,0.0,0.0,0.0,0.0,0.0,0.0,0.0,0.0,0.0,0.0,0.0,0.0,0.0,0.0,0.0,0.0,0.0,0.0,0.3665,0.3616,0.361,0.3662,0.3613,0.3627,0.3706,0.3869,0.3924,0.3877,0.3965,0.3918,0.3811,0.3692,0.3635,0.3645,0.4145,0.4369,0.448,0.5592,0.0,0.0,0.0,0.0,0.0,0.0,0.0,0.0,0.6408,0.6403,0.6537,0.7203,0.0,0.0,0.0,0.0,0.0,1.0724,1.0922,1.0874,1.0282,1.0251,1.0317,1.0127,0.0,0.0,0.0,0.0,0.0,0.0,1.1968,1.2406,0.0,1.4811,1.5692,1.6754,1.7322,1.7599,1.7491,1.7925,1.7974,1.7334,1.7443,1.7539,1.7539,1.7923,1.8664,1.9795,2.0416,2.0966,2.1441,2.1665,2.1496,2.085,2.1146,2.1874,2.2997,2.3203,2.3783,2.4684,2.4684,2.4532,2.4202,2.4202,2.4202,2.4202,2.4202,2.4202,2.4202,2.4202,2.4202,2.4202,2.4202,2.4202,2.4202,0.0,0.0,0.0,0.0,0.0,0.0,0.0,0.0,0.0,0.0,0.0,0.0,0.0,0.0,0.0,0.0,0.0,0.0,0.0,0.0,0.3741,0.3833,0.3719,0.3684,0.3679,0.3684,0.373,0.3826,0.3913,0.397,0.4003,0.3959,0.3861,0.3717,0.3657,0.3839,0.4089,0.4369,0.4704,0.5039,0.0,0.0,0.0,0.0,0.0,0.0,0.0,0.0,0.0,0.0,0.6441,0.6548,0.7421,0.0,0.0,0.0,0.0,0.0,1.0688,1.0792,1.0735,1.0298,1.0327,1.0431,0.0,0.0,0.0,0.0,0.0,0.0,0.0,0.0,1.321,1.4903,1.5596,1.6211,1.6984,1.7177,1.7298,1.7467,1.7575,1.7551,1.7322,1.7406,1.7479,1.7479,1.8033,1.8547,1.9206,2.0228,2.0988,2.1202,2.1515,2.1528,2.1159,2.0968,2.1552,2.2775,2.308,2.3503,2.3975,2.3975,2.3867,2.3737,2.4053,2.4202,2.4202,2.4202,2.4202,2.4202,2.4202,2.4202,2.4202,2.4202,2.4202,2.4202,0.0,0.0,0.0,0.0,0.0,0.0,0.0,0.0,0.0,0.0,0.0,0.0,0.0,0.0,0.0,0.0,0.0,0.0,0.0,0.3744,0.3855,0.3919,0.3874,0.3782,0.3763,0.3779,0.385,0.3908,0.3965,0.4079,0.4123,0.397,0.3828,0.3698,0.3791,0.4033,0.4533,0.472,0.5099,0.5618,0.0,0.0,0.0,0.0,0.0,0.0,0.0,0.0,0.0,0.0,0.0,0.0,0.0,0.0,0.0,1.0068,1.0572,1.0858,1.0697,1.0659,1.0573,1.0365,0.0,0.0,0.0,0.0,0.0,0.0,0.0,0.0,0.0,1.331,1.4301,1.5688,1.6235,1.667,1.7201,1.7165,1.7201,1.7539,1.7394,1.7334,1.7467,1.743,1.7511,1.7674,1.8153,1.8549,1.8841,2.0062,2.0809,2.0809,2.1221,2.1365,2.127,2.1251,2.1671,2.2485,2.2787,2.307,2.327,2.327,2.327,2.3338,2.4045,2.4349,2.4349,2.4349,2.4349,2.433,2.4238,2.4202,2.422,2.4312,2.4293,2.4202,0.0,0.0,0.0,0.0,0.0,0.0,0.0,0.0,0.0,0.0,0.0,0.0,0.0,0.0,0.0,0.0,0.0,0.0,0.0,0.3824,0.3855,0.3919,0.3916,0.3902,0.4006,0.3907,0.391,0.3965,0.409,0.4123,0.4125,0.4055,0.3929,0.3816,0.4205,0.4424,0.4582,0.5414,0.5875,0.6117,0.6551,0.0,0.0,0.0,0.0,0.0,0.0,0.0,0.0,0.0,0.0,0.0,0.0,0.0,1.0068,1.0904,1.1008,1.0896,1.0877,1.0726,1.0573,1.0365,1.0327,0.0,1.0564,1.0441,0.0,1.1197,0.0,0.0,0.0,1.4143,1.5182,1.5801,1.6537,1.7213,1.7744,1.8022,1.8094,1.7877,1.7829,1.7732,1.7503,1.7261,1.7461,1.8179,1.8562,1.9229,2.0347,2.1032,2.1323,2.1323,2.136,2.1238,2.0956,2.1778,2.2278,2.2467,2.203,2.2333,2.327,2.327,2.327,2.3356,2.4303,2.4739,2.4739,2.4739,2.4739,2.4702,2.4349,2.4202,2.4257,2.4643,2.4532,2.4202,0.0,0.0,0.0,0.0,0.0,0.0,0.0,0.0,0.0,0.0,0.0,0.0,0.0,0.0,0.0,0.0,0.0,0.0,0.0,0.3711,0.3816,0.3916,0.3921,0.3899,0.3919,0.4011,0.4065,0.4147,0.4172,0.4164,0.4123,0.3989,0.403,0.4226,0.4313,0.4742,0.5503,0.5803,0.6178,0.665,0.6744,0.673,0.0,0.0,0.0,0.0,0.0,0.0,0.0,0.0,0.7329,0.7826,0.9122,0.9772,1.0167,1.0953,1.0962,1.0697,1.0697,1.0592,1.0441,1.0452,1.0507,0.0,0.0,1.0697,1.0977,1.1054,1.1844,0.0,0.0,0.0,1.5523,1.6042,1.6815,1.7455,1.7817,1.7962,1.7925,1.766,1.7491,1.7346,1.7249,1.7008,1.7252,1.8254,1.8618,1.9249,2.0238,2.0783,2.1064,2.1064,2.1064,2.1111,2.119,2.1542,2.2074,2.268,2.2291,2.2484,2.3201,2.3184,2.3388,2.3728,2.4754,2.5142,2.5142,2.5142,2.5142,2.5106,2.4753,2.4537,2.4587,2.4477,2.433,2.4202,0.0,0.0,0.0,0.0,0.0,0.0,0.0,0.0,0.0,0.0,0.0,0.0,0.0,0.0,0.0,0.0,0.0,0.0,0.3673,0.3679,0.3725,0.3888,0.391,0.388,0.3921,0.4055,0.4145,0.4188,0.4207,0.4231,0.4319,0.423,0.4397,0.485,0.4838,0.5385,0.6198,0.6153,0.6442,0.6915,0.6752,0.6638,0.0,0.0,0.0,0.0,0.0,0.0,0.0,0.0,0.7925,0.8528,0.9673,1.0167,1.0453,1.0977,1.0896,1.066,1.064,1.0469,1.0365,1.0573,0.0,0.0,1.0556,1.1135,1.1654,1.1706,1.2847,1.4004,1.4561,0.0,1.5765,1.6211,1.696,1.7515,1.7612,1.7624,1.7527,1.7274,1.708,1.6972,1.6972,1.6955,1.7414,1.8374,1.8862,1.9473,2.0332,2.069,2.0972,2.1032,2.1032,2.1258,2.1608,2.1666,2.2055,2.2673,2.2482,2.2673,2.3288,2.3479,2.379,2.4205,2.5172,2.5617,2.5617,2.5617,2.547,2.5231,2.5084,2.4812,2.4574,2.4459,2.4312,2.4202,0.0,0.0,0.0,0.0,0.0,0.0,0.0,0.0,0.0,0.0,0.0,0.0,0.0,0.0,0.0,0.0,0.0,0.0,0.3673,0.3679,0.3703,0.3824,0.3885,0.3919,0.3919,0.403,0.4123,0.4125,0.4185,0.4444,0.4807,0.4794,0.5074,0.5631,0.5977,0.6227,0.6389,0.6558,0.6687,0.6779,0.6484,0.6387,0.6387,0.0,0.0,0.0,0.0,0.0,0.0,0.0,0.8676,1.0019,1.0019,1.056,1.1151,1.0953,1.0896,1.0849,1.0631,1.0433,1.0365,1.0573,0.0,0.0,1.1057,1.1688,1.2358,1.3311,1.4338,1.5197,1.5451,1.5716,1.5982,1.6235,1.6948,1.7382,1.7129,1.7092,1.6996,1.673,1.6694,1.6694,1.6694,1.7224,1.7915,1.8763,1.938,2.0034,2.0873,2.0925,2.1032,2.1381,2.1396,2.1608,2.2011,2.2307,2.2482,2.2498,2.2482,2.2961,2.3718,2.4316,2.4579,2.4667,2.5572,2.6021,2.6021,2.6002,2.5543,2.4831,2.5216,2.4918,2.4257,2.4629,2.4569,2.4202,0.0,0.0,0.0,0.0,0.0,0.0,0.0,0.0,0.0,0.0,0.0,0.0,0.0,0.0,0.0,0.0,0.0,0.0,0.3613,0.3616,0.3621,0.364,0.37,0.3711,0.367,0.4219,0.4573,0.4701,0.4673,0.4893,0.5335,0.5368,0.5602,0.6012,0.6149,0.6394,0.6673,0.661,0.6638,0.666,0.6452,0.6387,0.6387,0.0,0.0,0.0,0.0,0.0,0.0,0.0,0.0,0.0,1.0659,1.1002,1.1151,1.0953,1.0792,1.0706,1.064,1.0573,0.0,1.0745,0.0,0.0,0.0,1.1757,0.0,0.0,1.4907,1.5247,1.5712,1.5994,1.6151,1.603,1.6525,1.6911,1.6827,1.6815,1.6718,1.6441,1.6404,1.6404,1.6404,1.6962,1.7742,1.8749,1.938,2.0034,2.0873,2.0925,2.1032,2.1381,2.1396,2.1735,2.2323,2.2434,2.2609,2.2847,2.3437,2.3854,2.4059,2.4291,2.4827,2.5572,2.5859,2.6021,2.5984,2.5708,2.547,2.5231,2.5014,2.4812,2.4624,2.4459,2.4312,2.4202,0.0,0.0,0.0,0.0,0.0,0.0,0.0,0.0,0.0,0.0,0.3589,0.3589,0.0,0.0,0.0,0.0,0.0,0.0,0.0,0.3589,0.3589,0.3589,0.3621,0.3762,0.4059,0.4746,0.523,0.5544,0.5313,0.5422,0.5907,0.5944,0.6223,0.6729,0.6786,0.6857,0.7002,0.6834,0.6736,0.6681,0.6912,0.681,0.6558,0.0,0.0,0.0,0.0,0.0,0.0,0.0,0.0,0.0,1.0958,0.0,1.1057,1.0934,1.0801,1.0716,1.0801,1.0764,0.0,1.0962,1.1104,1.1323,1.188,0.0,0.0,0.0,1.5627,1.57,1.6133,1.626,1.6247,1.6066,1.632,1.6537,1.6537,1.6441,1.632,1.6151,1.6127,1.6326,1.6804,1.7474,1.8343,1.9456,2.0046,2.0612,2.1079,2.0953,2.1032,2.1381,2.1396,2.1666,2.233,2.2275,2.2386,2.2593,2.3081,2.3577,2.4008,2.4507,2.5094,2.5782,2.5782,2.5782,2.5711,2.5263,2.5115,2.5106,2.4612,2.4463,2.4551,2.4293,2.4202,2.4202,0.0,0.0,0.3589,0.3589,0.0,0.0,0.0,0.0,0.0,0.0,0.3589,0.3589,0.0,0.0,0.0,0.0,0.0,0.0,0.0,0.3589,0.3645,0.3706,0.3762,0.4104,0.4764,0.5412,0.5953,0.6294,0.5844,0.5953,0.645,0.6512,0.6915,0.7502,0.7561,0.7484,0.7398,0.7215,0.7091,0.702,0.7731,0.7521,0.6958,0.8482,0.0,0.0,0.0,0.0,0.0,0.0,0.0,0.0,1.0962,1.0896,1.0886,1.0868,1.0868,1.0915,1.1113,1.1038,1.0943,1.1142,1.1227,0.0,1.2577,1.3583,1.4733,1.6247,0.0,1.6416,1.6622,1.6477,1.6308,1.626,1.626,1.6272,1.6247,1.6042,1.5885,1.5885,1.591,1.6394,1.7605,1.8454,1.9442,2.0584,2.1146,2.1381,2.1349,2.1048,2.1032,2.1381,2.1396,2.1608,2.2011,2.2011,2.2011,2.2011,2.2087,2.2659,2.3667,2.477,2.5292,2.5307,2.5274,2.5289,2.5252,2.4629,2.4517,2.4619,2.4041,2.396,2.4102,2.4102,2.4102,2.4102,0.0,0.0,0.3589,0.3589,0.0,0.0,0.0,0.0,0.0,0.0,0.0,0.0,0.0,0.3589,0.0,0.0,0.0,0.0,0.0,0.3589,0.3833,0.4452,0.4911,0.5245,0.5467,0.5926,0.6228,0.6298,0.6198,0.6384,0.6897,0.7048,0.72,0.7372,0.8001,0.8208,0.8016,0.8426,0.8473,0.8377,0.8542,0.8478,0.8378,0.8728,0.8755,0.0,0.0,0.0,0.0,0.0,0.0,0.0,1.0962,1.0896,1.0868,1.0688,1.0641,1.0688,1.0905,1.0924,0.0,1.1142,1.1444,1.2003,1.332,1.3912,1.4472,1.5275,1.6081,1.6573,1.6404,1.6501,1.6477,1.6042,1.6151,1.6211,1.6006,1.5922,1.5885,1.5885,1.6066,1.6592,1.7577,1.8605,1.9545,2.0232,2.1006,2.127,2.1,2.0956,2.1032,2.1381,2.1396,2.1608,2.2011,2.2011,2.2011,2.2011,2.2587,2.2977,2.3237,2.3791,2.4401,2.4904,2.4425,2.4296,2.4359,2.3384,2.323,2.3613,2.3462,2.3459,2.3488,2.3488,2.3488,2.3488,0.0,0.0,0.0,0.0,0.0,0.0,0.0,0.0,0.0,0.0,0.0,0.0,0.0,0.3589,0.0,0.0,0.4033,0.0,0.0,0.0,0.4609,0.5047,0.5654,0.5965,0.597,0.649,0.6659,0.6552,0.6497,0.6823,0.763,0.7776,0.8126,0.8634,0.8974,0.9036,0.8843,0.9034,0.9042,0.8944,0.9345,0.9191,0.8832,0.9763,0.9739,0.9348,1.023,0.0,0.0,0.0,0.0,0.0,0.0,0.0,1.0716,1.0649,1.0621,1.0641,1.0953,0.0,0.0,1.1293,0.0,1.2362,1.3645,1.4134,1.4627,1.5328,1.6048,1.6453,1.6308,1.6404,1.6368,1.5958,1.6006,1.6042,1.591,1.5885,1.5885,1.5885,1.6006,1.673,1.8414,1.8877,1.9708,2.1171,2.1374,2.1317,2.1127,2.102,2.1004,2.1143,2.1143,2.1274,2.1465,2.1465,2.1385,2.1263,2.1841,2.2181,2.2312,2.3116,2.3474,2.3441,2.3316,2.3326,2.3466,2.28,2.282,2.327,2.302,2.292,2.292,2.292,2.292,2.292,0.0,0.0,0.0,0.0,0.0,0.0,0.0,0.0,0.0,0.0,0.0,0.0,0.0,0.0,0.4074,0.0,0.0,0.0,0.0,0.0,0.0,0.5562,0.6204,0.6549,0.6461,0.6922,0.7018,0.6801,0.6681,0.7148,0.8287,0.8381,0.9023,0.9954,0.9973,0.9849,0.9663,0.954,0.9415,0.9392,1.0062,0.9805,0.9192,1.074,1.0742,0.9945,1.0824,1.1142,1.1151,1.1179,0.0,0.0,0.0,0.0,1.0621,1.0621,1.0621,1.065,1.099,0.0,1.1208,1.1453,1.1812,0.0,1.3559,1.4137,1.4676,1.5606,1.603,1.6211,1.6211,1.6211,1.6139,1.5922,1.5885,1.5885,1.5885,1.5885,1.5885,1.5885,1.6094,1.7044,1.9206,1.9283,2.0057,2.215,2.1666,2.1285,2.1222,2.0925,2.0734,2.0734,2.0734,2.0734,2.0734,2.0734,2.0591,2.0305,2.0801,2.1145,2.1295,2.2351,2.2504,2.1933,2.2093,2.2356,2.2664,2.2309,2.2581,2.3132,2.2633,2.2416,2.2485,2.2384,2.2384,2.2384,0.0,0.0,0.0,0.0,0.0,0.0,0.0,0.0,0.0,0.0,0.4369,0.4592,0.0,0.0,0.0,0.5095,0.5095,0.5154,0.5204,0.0,0.0,0.6284,0.6873,0.7158,0.7142,0.7056,0.6942,0.6801,0.6681,0.7102,0.8137,0.828,0.8811,0.9783,1.0349,1.0486,1.0308,1.0564,1.0663,1.0626,1.0584,1.0492,1.038,1.0641,1.0613,1.0501,1.0811,1.0934,1.0962,1.1132,1.1198,0.0,0.0,0.0,1.0621,1.0621,1.0621,1.063,1.0687,0.0,1.1028,0.0,1.157,1.1931,0.0,0.0,1.4001,1.5291,1.5765,1.5946,1.5946,1.5946,1.5934,1.5897,1.5885,1.5885,1.5885,1.5885,1.5885,1.5885,1.6791,1.778,1.8859,1.9841,2.0671,2.1502,2.1159,2.0861,2.0559,2.0194,2.0052,2.0052,2.0052,2.0052,2.0052,2.0052,2.0036,1.9988,2.0492,2.0767,2.0814,2.0945,2.1252,2.1556,2.1124,2.1445,2.2208,2.1252,2.1601,2.2743,2.2203,2.2194,2.2434,2.1979,2.1827,2.1827,0.0,0.0,0.0,0.0,0.0,0.0,0.0,0.0,0.0,0.0,0.0,0.5091,0.0,0.0,0.0,0.5813,0.5813,0.5955,0.6172,0.6528,0.675,0.675,0.6972,0.7171,0.723,0.7002,0.6855,0.6801,0.6611,0.7277,0.8839,0.891,0.9448,1.0515,1.1088,1.1272,1.1156,1.0965,1.0896,1.0877,1.066,1.0621,1.0621,1.0621,1.0621,1.063,1.0679,1.0716,1.0745,1.0953,1.0943,1.083,1.0745,0.0,0.0,0.0,1.0355,1.0497,1.0688,1.082,1.0972,0.0,1.1538,1.2034,1.3071,1.3528,1.4033,1.5259,1.5475,1.5535,1.5837,1.5885,1.5885,1.5885,1.5885,1.5885,1.5885,1.5885,1.5885,1.5885,1.6785,1.7782,1.8789,1.9415,2.015,2.1043,2.0639,2.0257,2.0114,2.0004,1.9909,1.9909,1.9909,1.9909,1.9909,1.9909,1.9958,2.0005,1.9763,1.9807,2.0088,1.976,1.9874,2.0324,2.028,2.0585,2.1066,2.0762,2.1042,2.1599,2.1541,2.1429,2.1344,2.1253,2.1267,2.1267,0.0,0.0,0.0,0.0,0.0,0.0,0.0,0.0,0.0,0.0,0.0,0.0,0.0,0.0,0.0,0.0,0.6404,0.6593,0.6942,0.697,0.697,0.6942,0.697,0.7013,0.7117,0.7074,0.7072,0.7072,0.7047,0.7806,0.9302,0.9509,1.0092,1.0974,1.1535,1.1756,1.1624,1.1057,1.0811,1.0792,1.0584,1.0499,1.0545,1.0602,1.0621,1.0621,1.0621,1.0621,1.0594,1.0764,1.0707,1.0621,1.0621,1.0478,0.0,0.0,0.0,0.0,0.0,0.0,1.0801,1.1057,1.1414,1.195,0.0,0.0,1.3945,1.5056,1.5149,1.5149,1.5608,1.5692,1.5716,1.5777,1.5728,1.5716,1.5777,1.5789,1.5813,1.5885,1.6829,1.7807,1.8677,1.9184,1.979,2.0715,2.013,1.9781,1.9781,1.9702,1.9606,1.9606,1.9606,1.9606,1.9606,1.9606,1.9653,1.9772,1.9094,1.9012,1.9363,1.8966,1.9017,1.9476,1.9733,1.9986,2.0225,2.0509,2.0724,2.0937,2.0997,2.0851,2.0632,2.0848,2.0925,2.0925,0.0,0.0,0.0,0.0,0.0,0.0,0.0,0.0,0.0,0.0,0.0,0.0,0.7043,0.7002,0.6894,0.6775,0.677,0.6764,0.6812,0.6921,0.6931,0.6817,0.6921,0.0,0.6823,0.7419,0.7757,0.7757,0.8356,0.8814,0.9035,0.9849,1.0356,1.055,1.1408,1.1595,1.1198,1.0773,1.064,1.0621,1.0412,1.0336,1.0355,1.0545,1.0621,1.0621,1.0621,1.0621,1.0621,1.063,1.063,1.0621,1.0621,1.0478,1.0317,0.0,0.0,0.0,0.0,1.0497,0.0,1.0811,1.0963,1.1297,0.0,1.2829,1.3198,1.4493,1.4751,1.4823,1.5101,1.5149,1.5234,1.5475,1.5306,1.5234,1.5487,1.5523,1.5608,1.5861,1.7318,1.837,1.8436,1.9577,2.035,2.0416,1.9781,1.9447,1.9447,1.9066,1.8875,1.8875,1.8875,1.8875,1.8875,1.8875,1.8875,1.8859,1.8827,1.8827,1.8827,1.8827,1.9104,1.9579,1.9596,1.987,2.0281,2.0298,2.0795,2.1485,2.0872,2.0834,2.1131,2.0934,2.0925,2.0925,0.0,0.0,0.0,0.0,0.0,0.0,0.0,0.0,0.0,0.0,0.0,0.0,0.0,0.698,0.6883,0.6915,0.6844,0.6768,0.6687,0.6725,0.6763,0.6801,0.6844,0.7183,0.7895,0.7893,0.819,0.8761,0.8801,0.9157,0.9833,1.0137,1.0577,1.1165,1.1471,1.1539,1.1378,1.0962,1.0783,1.0764,1.0546,1.0546,1.0669,1.0594,1.066,1.0764,1.0668,1.0621,1.064,1.0735,1.0603,1.045,1.0583,1.0384,1.0108,1.0108,0.0,0.0,0.0,0.0,0.0,1.0622,1.0792,1.1106,1.1902,1.2459,1.2981,1.3617,1.4129,1.4484,1.4562,1.4847,1.5137,1.5234,1.5173,1.5137,1.5234,1.5246,1.5282,1.5378,1.6817,1.7631,1.7174,1.8236,1.8975,1.8975,1.8561,1.8535,1.8971,1.8907,1.8781,1.8781,1.8781,1.8781,1.8781,1.8781,1.8781,1.8781,1.8781,1.8781,1.8827,1.915,1.9225,1.9104,1.9791,1.9973,1.9837,1.9471,1.9685,2.0204,2.0167,2.0377,2.0682,2.0848,2.0925,2.0925,0.0,0.0,0.0,0.0,0.0,0.0,0.0,0.0,0.0,0.698,0.0,0.0,0.0,0.0,0.6861,0.6861,0.6752,0.6643,0.6562,0.685,0.705,0.709,0.7433,0.799,0.8771,0.8797,0.9101,0.9675,0.9636,0.9921,1.0597,1.0597,1.0897,1.1406,1.134,1.135,1.1387,1.1047,1.0896,1.0886,1.0735,1.0764,1.0886,1.0811,1.0868,1.102,1.0989,1.0959,1.1025,1.1234,1.1112,1.0885,1.0772,1.0413,0.9994,0.9994,0.0,0.0,1.0175,0.0,0.0,0.0,1.091,1.1157,1.2099,1.2587,1.3043,1.3483,1.394,1.4304,1.4316,1.4586,1.4871,1.4956,1.4896,1.4871,1.4968,1.498,1.5004,1.5101,1.6312,1.695,1.645,1.7512,1.8192,1.8192,1.8114,1.8257,1.8781,1.8781,1.8781,1.8781,1.8781,1.8781,1.8781,1.8781,1.8781,1.8781,1.8781,1.8781,1.8827,1.9363,1.95,1.9333,1.9837,1.9949,1.9728,1.9374,1.9444,1.9814,2.0005,2.0178,2.0432,2.0798,2.0925,2.0925,0.0,0.0,0.0,0.0,0.0,0.0,0.0,0.0,0.6844,0.7018,0.0,0.0,0.0,0.0,0.0,0.6689,0.6558,0.6487,0.6487,0.7307,0.7782,0.764,0.872,0.9302,0.9309,0.9973,1.0374,1.0516,1.0997,1.1198,1.1198,1.1198,1.1189,1.1179,1.099,1.1009,1.1161,1.0972,1.0896,1.0905,1.0896,1.0896,1.0972,1.1171,1.1247,1.1268,1.1604,1.1715,1.1779,1.2007,1.2105,1.197,1.1195,1.0519,0.9994,0.9994,0.0,0.0,0.0,0.0,0.0,0.0,1.1232,1.1434,1.3054,1.3269,1.3308,1.4088,1.4292,1.4292,1.4292,1.4292,1.4389,1.4654,1.4473,1.4389,1.4666,1.4702,1.4799,1.5052,1.5834,1.6373,1.6323,1.7434,1.8177,1.8177,1.8551,1.8781,1.8781,1.8781,1.8781,1.8781,1.8781,1.8781,1.8781,1.8781,1.8781,1.8781,1.8781,1.8781,1.8827,1.9363,1.982,2.0246,1.9774,1.9807,2.0091,2.0107,2.0274,2.0588,2.0456,2.04,2.0448,2.0798,2.0925,2.0925,0.0,0.0,0.0,0.0,0.0,0.0,0.6877,0.6823,0.7023,0.0,0.0,0.0,0.8784,0.8735,0.8615,0.8415,0.836,0.8291,0.8137,0.8364,0.8578,0.8599,0.894,0.9404,1.0144,1.0229,1.0568,1.124,1.1231,1.1198,1.1198,1.1198,1.1113,1.0981,1.1075,1.0981,1.0745,1.0735,1.0839,1.1104,1.0953,1.1221,1.1706,1.1765,1.2029,1.236,1.2453,1.2517,1.2507,1.2587,1.2268,1.1682,1.0794,1.0254,0.0,1.0332,0.0,0.0,1.0766,0.0,0.0,0.0,0.0,0.0,1.2031,1.2616,1.3074,1.2964,1.3647,1.4196,1.3775,1.4064,1.4328,1.4401,1.4352,1.4328,1.4401,1.4413,1.4437,1.4509,1.519,1.548,1.4947,1.6184,1.7032,1.7032,1.765,1.8257,1.8781,1.8781,1.8781,1.8781,1.8781,1.8781,1.8781,1.8781,1.8781,1.8781,1.8781,1.8781,1.8827,1.9363,1.9471,1.9242,1.95,1.9807,2.006,1.973,1.9989,2.0588,2.0456,2.0559,2.0782,2.0893,2.0925,2.0925,0.0,0.0,0.7321,0.7654,0.0,0.7738,0.7962,0.7836,0.8007,0.0,0.0,0.0,0.9479,0.9414,0.9242,0.9129,0.8996,0.8922,0.8832,0.9122,0.9317,0.9419,0.9801,1.0348,1.0921,1.0806,1.1006,1.152,1.1302,1.1198,1.1198,1.1198,1.1085,1.0896,1.0924,1.0801,1.0611,1.0431,1.0602,1.0982,1.1144,1.1489,1.1907,1.2242,1.2516,1.2807,1.3001,1.3098,1.3147,1.334,1.2866,1.207,1.1521,1.1059,1.0723,1.084,1.0794,0.0,0.0,0.0,0.0,1.163,0.0,0.0,1.2294,1.2837,1.3205,1.304,1.3696,1.4208,1.3871,1.4112,1.4292,1.4292,1.4292,1.4292,1.4292,1.4292,1.4292,1.4292,1.4675,1.4771,1.434,1.5676,1.6588,1.6588,1.7559,1.835,1.8781,1.8781,1.8781,1.8781,1.8781,1.8781,1.8781,1.8781,1.8781,1.8781,1.8781,1.8781,1.8827,1.9363,1.9409,1.915,1.9683,2.0,2.0172,1.9823,2.0134,2.0818,2.068,2.0734,2.0925,2.0925,2.0925,2.0925,0.0,0.0,0.7709,0.8484,0.8539,0.8716,0.9455,0.9362,0.9279,0.0,0.9625,0.9639,0.9869,0.9662,0.9486,0.9376,0.918,0.9095,0.9072,0.9715,1.0117,1.0117,1.0979,1.1482,1.1482,1.1482,1.1482,1.1482,1.1293,1.1198,1.1198,1.117,1.1057,1.0849,1.066,1.0592,1.0526,1.0219,1.033,1.0694,1.1385,1.1731,1.1915,1.2625,1.2905,1.3001,1.3437,1.3593,1.363,1.4064,1.359,1.2825,1.278,1.2293,1.1693,1.1511,1.1608,0.0,0.0,0.0,0.0,1.2347,1.2321,0.0,1.3273,1.3495,1.3568,1.3773,1.4026,1.4208,1.4208,1.4232,1.4244,1.422,1.4256,1.4292,1.4292,1.4292,1.4292,1.4292,1.4292,1.4292,1.4292,1.5676,1.6588,1.6494,1.7839,1.8735,1.8781,1.8781,1.8781,1.8781,1.8781,1.8781,1.8781,1.8781,1.8781,1.8781,1.8781,1.8781,1.8827,1.9271,1.95,1.9546,1.9973,2.0155,2.0235,2.0099,2.0408,2.1032,2.087,2.0893,2.0925,2.0925,2.0925,2.0925,0.914,0.9306,0.9361,0.9526,0.9497,0.9548,0.9585,0.9564,0.9754,1.0572,1.1054,1.1376,1.1584,1.1277,1.1051,1.1006,1.102,1.0879,1.0757,1.0895,1.0953,1.0953,1.1138,1.1255,1.1255,1.1255,1.1255,1.1255,1.1217,1.1198,1.1189,1.1028,1.0839,1.0678,1.064,1.0431,1.0171,1.0613,1.0835,1.0935,1.1293,1.1999,1.285,1.325,1.363,1.4004,1.4112,1.416,1.4112,1.3775,1.3423,1.303,1.2598,1.2259,1.211,1.2417,1.2258,1.2201,1.288,1.2766,1.2643,1.3152,1.3264,0.0,1.3173,1.3363,1.3471,1.3314,1.3483,1.3664,1.3664,1.3845,1.3918,1.3701,1.4026,1.4292,1.4292,1.4292,1.4292,1.4292,1.4292,1.4292,1.4292,1.5676,1.6339,1.5676,1.703,1.8164,1.8781,1.8781,1.8781,1.8781,1.8781,1.8781,1.8781,1.8781,1.8781,1.8781,1.8781,1.8781,1.8781,1.892,1.8966,1.8966,1.9058,1.9333,1.9716,1.9584,1.9989,2.0687,2.0552,2.067,2.0925,2.0925,2.0925,2.0925,0.9478,0.9682,0.9881,1.0233,1.0405,1.0601,1.0945,1.0907,1.1042,1.1567,1.1841,1.1968,1.2071,1.1714,1.152,1.152,1.1416,1.1312,1.1198,1.1198,1.1198,1.1198,1.1198,1.1198,1.1198,1.1198,1.1198,1.1198,1.1094,1.1047,1.1038,1.083,1.0865,1.099,1.0608,1.0625,1.0862,1.0808,1.1071,1.1542,1.1943,1.2513,1.3215,1.3718,1.4064,1.4292,1.4292,1.4292,1.4256,1.3968,1.3743,1.3485,1.3239,1.3065,1.3032,1.3145,1.3101,1.3078,1.3419,1.3338,1.319,1.3429,1.3423,0.0,0.0,1.3185,1.3233,1.3145,1.3326,1.3519,1.3519,1.3725,1.387,1.3725,1.4039,1.4292,1.4292,1.4292,1.4292,1.4292,1.4292,1.4292,1.4292,1.5676,1.6716,1.7077,1.7451,1.8025,1.8781,1.8781,1.8781,1.8781,1.8781,1.8781,1.8781,1.8781,1.8781,1.8781,1.8781,1.8781,1.8781,1.8781,1.8781,1.8827,1.9104,1.9196,1.9196,1.9437,1.9682,2.0006,2.0293,2.0607,2.0925,2.0925,2.0925,2.0925,0.9781,0.9976,1.0403,1.0928,1.119,1.1555,1.2226,1.2194,1.2128,1.225,1.209,1.202,1.2126,1.1834,1.1673,1.1812,1.1618,1.1492,1.1394,1.1345,1.1277,1.1142,1.1179,1.1198,1.1198,1.1161,1.1142,1.1142,1.0934,1.083,1.083,1.0659,1.0813,1.1211,1.0684,1.0875,1.1613,1.1149,1.1445,1.2266,1.2721,1.3009,1.3275,1.3957,1.422,1.4232,1.428,1.4292,1.4292,1.4292,1.4159,1.3978,1.3978,1.3978,1.3942,1.3725,1.3809,1.393,1.3725,1.3664,1.3664,1.3664,1.3507,1.3338,0.0,0.0,0.0,1.3194,1.3326,1.3459,1.3507,1.3688,1.3809,1.3761,1.4014,1.4208,1.4147,1.4232,1.4316,1.4377,1.4328,1.4316,1.4377,1.5478,1.681,1.8458,1.7885,1.7885,1.8735,1.8781,1.8781,1.8781,1.8781,1.8781,1.8781,1.8781,1.8781,1.8781,1.8781,1.8781,1.8781,1.8781,1.8781,1.8827,1.9271,1.9271,1.8966,1.9333,1.9499,1.9574,2.01,2.0512,2.0829,2.0893,2.0925,2.0925,1.1511,1.1686,1.1787,1.168,1.2012,1.2217,1.2147,1.21,1.2024,1.1907,1.1709,1.1738,1.2224,1.2063,1.225,1.2943,1.2752,1.2419,1.2029,1.1932,1.1599,1.0934,1.1104,1.1198,1.1198,1.1019,1.0934,1.0934,1.0716,1.0612,1.0649,1.045,1.045,1.0704,1.0855,1.1091,1.1492,1.1981,1.253,1.3101,1.3306,1.3309,1.3177,1.3715,1.3954,1.3978,1.4208,1.4292,1.4292,1.4292,1.428,1.4256,1.4256,1.4256,1.4244,1.422,1.4232,1.4244,1.422,1.4208,1.4208,1.4208,1.4183,1.4099,1.387,0.0,1.3471,1.3471,0.0,1.3242,1.3471,0.0,0.0,1.3254,1.3628,1.387,1.364,1.4002,1.4389,1.4642,1.4449,1.4389,1.4642,1.4594,1.5473,1.7638,1.7138,1.7326,1.8735,1.8781,1.8781,1.8781,1.8781,1.8781,1.8781,1.8781,1.8781,1.8781,1.8781,1.8781,1.8781,1.8781,1.8781,1.8781,1.8874,1.915,1.9455,1.9058,1.936,1.9999,1.9958,2.0146,2.0496,2.0813,2.0925,2.0925,1.1453,1.1728,1.1836,1.168,0.0,0.0,1.1964,1.2006,1.2006,1.1841,1.1746,1.1741,1.1987,1.1853,1.1964,1.2615,1.2571,1.2358,1.2039,1.2029,1.1745,1.1124,1.1038,1.1019,1.1019,1.082,1.0707,1.0707,1.0499,1.0441,1.0441,1.0232,1.0509,1.1212,1.1075,1.1608,1.2643,1.262,1.2846,1.3188,1.3405,1.3363,1.3194,1.3882,1.4135,1.4147,1.4256,1.4292,1.4292,1.4292,1.4292,1.4292,1.4292,1.4292,1.4292,1.4292,1.4292,1.4292,1.4292,1.4292,1.4292,1.4292,1.4183,1.4039,1.393,1.3701,1.3519,1.3519,0.0,0.0,0.0,0.0,0.0,0.0,1.3797,1.399,1.3568,1.3833,1.4171,1.4437,1.4364,1.4533,1.503,1.4753,1.5428,1.7559,1.717,1.7436,1.8751,1.8781,1.8781,1.8781,1.8781,1.8781,1.8781,1.8781,1.8781,1.8781,1.8781,1.8781,1.8781,1.8781,1.8781,1.8781,1.8781,1.892,1.9104,1.8874,1.8999,1.9378,1.975,2.0083,2.0432,2.0798,2.0925,2.0925,1.1198,1.1482,1.1671,1.1463,1.1642,0.0,1.1746,1.1817,1.1836,1.1671,1.1642,1.1773,1.2138,1.211,1.2324,1.3105,1.3092,1.2904,1.2573,1.245,1.2145,1.154,1.1452,1.1383,1.1324,1.1005,1.0823,1.0856,1.0551,1.0439,1.0497,1.0397,1.0828,1.1706,1.1552,1.2235,1.3494,1.3193,1.3237,1.3459,1.3568,1.3556,1.3495,1.4002,1.4232,1.4292,1.4292,1.4292,1.4292,1.4292,1.4292,1.4292,1.4292,1.4292,1.4292,1.4292,1.4292,1.4292,1.4292,1.4292,1.4292,1.4292,1.4147,1.4014,1.4014,1.3809,1.364,1.3713,1.3676,0.0,0.0,0.0,0.0,0.0,0.0,1.4039,1.358,1.3737,1.4002,1.4268,1.4364,1.4569,1.5057,1.4838,1.5473,1.7246,1.7141,1.7533,1.8751,1.8781,1.8781,1.8781,1.8781,1.8781,1.8781,1.8781,1.8781,1.8781,1.8781,1.8781,1.8781,1.8781,1.8781,1.8781,1.8781,1.8874,1.9012,1.8874,1.8937,1.922,1.9734,2.0083,2.0432,2.0798,2.0925,2.0925,1.1198,1.1378,0.0,1.1246,1.1548,1.1756,1.1557,1.1529,1.1463,1.1246,1.1217,1.1688,1.2993,1.3319,1.3946,1.5295,1.5143,1.4678,1.3972,1.3633,1.3132,1.2414,1.2582,1.2603,1.2367,1.1714,1.143,1.157,1.0888,1.0723,1.098,1.1184,1.1436,1.1721,1.2422,1.2996,1.3499,1.3767,1.4039,1.4244,1.399,1.4039,1.4232,1.4002,1.4075,1.4292,1.4292,1.4292,1.4292,1.4292,1.4292,1.4292,1.4292,1.4292,1.4292,1.4292,1.4292,1.4292,1.4292,1.4292,1.4292,1.4292,1.4292,1.428,1.428,1.4087,1.3966,1.422,1.4075,1.3966,1.422,1.4075,0.0,0.0,0.0,0.0,0.0,1.3737,1.4002,1.4268,1.4533,1.4594,1.4376,1.4545,1.5229,1.6555,1.6868,1.7533,1.8751,1.8781,1.8781,1.8781,1.8781,1.8781,1.8781,1.8781,1.8781,1.8781,1.8781,1.8781,1.8781,1.8781,1.8781,1.8781,1.8781,1.9104,1.9546,1.9012,1.9297,2.0077,1.9958,2.0083,2.0432,2.0798,2.0925,2.0925,1.1736,1.1796,1.1678,1.1257,1.1312,1.1378,1.1312,1.1715,1.2083,1.2244,1.27,1.3246,1.3845,1.3995,1.427,1.4833,1.4792,1.4521,1.3994,1.3831,1.3427,1.2699,1.2554,1.2479,1.2404,1.1879,1.16,1.1649,1.1271,0.0,0.0,0.0,0.0,0.0,1.2779,1.3217,1.3519,1.3968,1.4111,1.4026,1.3942,1.4063,1.4292,1.4195,1.422,1.4292,1.4292,1.4292,1.4292,1.4292,1.4292,1.4292,1.4292,1.4292,1.4292,1.4292,1.4292,1.4292,1.4292,1.4292,1.4292,1.4292,1.4292,1.4292,1.4292,1.4232,1.4183,1.428,1.422,1.4195,1.428,0.0,0.0,0.0,0.0,0.0,0.0,1.3326,1.3483,1.3749,1.4014,1.4208,1.4292,1.4972,1.5751,1.6555,1.7299,1.8058,1.8751,1.8781,1.8781,1.8781,1.8781,1.8781,1.8781,1.8781,1.8781,1.8781,1.8781,1.8781,1.8781,1.8781,1.8781,1.8781,1.8781,1.892,1.9058,1.8874,1.9127,1.9637,1.983,2.0083,2.0432,2.0798,2.0925,2.0976,1.2294,1.2273,1.2175,1.1834,1.1785,1.1785,1.1785,1.2323,1.2821,1.3028,1.3559,1.407,1.4524,1.46,1.4694,1.5024,1.5065,1.4844,1.4383,1.4266,1.3944,1.3352,1.3171,1.3048,1.2958,1.247,1.227,1.2361,1.2015,1.1971,0.0,0.0,0.0,0.0,0.0,1.3448,1.3676,1.4111,1.4195,1.4051,1.4051,1.4147,1.4292,1.4292,1.4292,1.4292,1.4292,1.4292,1.4292,1.4292,1.4292,1.4292,1.4292,1.4292,1.4292,1.4292,1.4292,1.4292,1.4292,1.4292,1.4292,1.4292,1.4292,1.4292,1.4292,1.4292,1.4292,1.4292,1.4292,1.4292,1.4292,1.4292,0.0,0.0,0.0,0.0,0.0,1.3221,1.3326,1.3495,1.3749,1.4014,1.4268,1.4885,1.5634,1.6555,1.6961,1.764,1.8751,1.855,1.8597,1.9018,1.9018,1.9082,1.9193,1.9082,1.9018,1.9018,1.8891,1.8781,1.8781,1.8781,1.8781,1.8781,1.8781,1.8781,1.8781,1.8781,1.905,1.9447,1.9974,2.0377,2.0732,2.1036,2.1318,2.1522,1.2889,1.2856,1.2856,1.2856,1.2818,1.2807,1.2807,1.3207,1.3561,1.3583,1.3841,1.4303,1.5083,1.516,1.5363,1.5832,1.5885,1.5668,1.5161,1.4883,1.4606,1.4328,1.4304,1.4183,1.393,1.3485,1.331,1.3532,1.3065,0.0,0.0,0.0,0.0,0.0,1.3399,0.0,1.3906,1.4183,1.4292,1.4292,1.4292,1.4292,1.4292,1.4292,1.4292,1.4292,1.4292,1.4292,1.4292,1.4292,1.4292,1.4292,1.4292,1.4292,1.4292,1.4292,1.4292,1.4292,1.4292,1.4292,1.4292,1.4292,1.4292,1.4292,1.4292,1.4292,1.4292,1.4292,1.4292,1.4292,1.4292,1.4292,1.4135,0.0,0.0,0.0,0.0,1.3495,1.3507,1.3519,1.3795,1.4049,1.4256,1.4376,1.4984,1.6419,1.59,1.6466,1.8643,1.8087,1.8254,1.9352,1.9431,1.959,1.9909,1.9606,1.9431,1.9415,1.9018,1.8797,1.8781,1.8781,1.8781,1.8781,1.8781,1.8781,1.8781,1.8781,1.905,1.9526,2.0344,2.0883,2.1296,2.1593,2.208,2.2485,1.309,1.3492,1.3775,1.3389,1.305,1.2807,1.2807,1.3557,1.4259,1.462,1.5267,1.5849,1.6232,1.6132,1.5994,1.591,1.5885,1.5753,1.5415,1.5149,1.4896,1.4618,1.4413,1.4268,1.4195,1.3861,1.373,1.3809,1.3479,0.0,1.3375,0.0,0.0,0.0,0.0,1.3737,1.364,1.4099,1.4292,1.4292,1.4292,1.4292,1.4292,1.4292,1.4292,1.4292,1.4292,1.4292,1.4292,1.4292,1.4292,1.4292,1.4292,1.4292,1.4292,1.4292,1.4292,1.4292,1.4292,1.4292,1.4292,1.4292,1.4292,1.4292,1.4292,1.4292,1.4292,1.4292,1.4292,1.4292,1.4292,1.4292,1.4183,0.0,0.0,0.0,0.0,1.3185,1.3302,1.3495,1.4197,1.4536,1.4049,1.5019,1.5624,1.5451,1.6481,1.7358,1.7978,1.8018,1.8483,1.9368,1.9654,1.9829,1.9909,1.9829,1.967,1.9415,1.9272,1.9098,1.8781,1.8781,1.8781,1.8781,1.8781,1.8781,1.8781,1.8781,1.9193,1.9797,2.0022,2.0933,2.2197,2.2249,2.2384,2.2585,1.3719,1.41,1.4388,1.4096,1.3895,1.3815,1.3815,1.4306,1.4819,1.5388,1.5857,1.6175,1.6332,1.6211,1.6054,1.5897,1.5885,1.5777,1.5511,1.5366,1.5113,1.4739,1.457,1.4425,1.4304,1.4147,1.4075,1.4075,1.3809,0.0,1.3676,0.0,0.0,0.0,0.0,1.3652,1.3556,1.4075,1.4292,1.4292,1.4292,1.4292,0.0,1.4292,1.4292,1.4292,1.4292,1.4292,1.4292,1.4292,1.4292,1.4292,1.4292,1.4292,1.4292,1.4292,1.4292,1.4292,1.4292,1.4292,1.4292,1.4292,1.4292,1.4292,1.4292,1.4292,1.4292,1.4292,1.4292,1.4292,1.4292,1.4292,1.4208,0.0,0.0,0.0,1.3245,1.3245,1.3387,1.3652,1.408,1.4185,1.3783,1.5251,1.5814,1.4884,1.5874,1.6829,1.7475,1.764,1.83,1.9574,1.9957,2.0162,2.0321,2.0178,2.0003,1.9812,1.9558,1.9256,1.9066,1.8907,1.8781,1.8781,1.8781,1.8781,1.8781,1.8781,1.9145,1.9782,2.0508,2.1807,2.3238,2.3238,2.3238,2.3288,1.4413,1.4545,1.4702,1.4666,1.4883,1.5077,1.5149,1.5185,1.5378,1.5825,1.5922,1.5946,1.5946,1.591,1.5885,1.5885,1.5885,1.5789,1.5559,1.5487,1.5246,1.4787,1.4702,1.4545,1.4304,1.4292,1.428,1.4244,1.4014,0.0,0.0,0.0,0.0,0.0,0.0,0.0,0.0,1.4099,1.4292,1.4292,1.4292,1.4292,1.4292,1.4388,1.4436,1.4436,1.4436,1.4388,1.4292,1.4292,1.4292,1.4292,1.4292,1.4292,1.4292,1.4292,1.4292,1.4292,1.4292,1.4292,1.4292,1.4292,1.4292,1.4292,1.4292,1.4292,1.4292,1.4292,1.4292,1.4292,1.4292,1.4268,1.4171,0.0,1.3688,1.3532,1.3556,1.3592,1.3688,1.3882,1.3829,0.0,1.3471,1.5041,1.5609,1.4527,1.4806,1.5667,1.7129,1.7098,1.7945,1.9844,2.021,2.0559,2.0925,2.0623,2.0432,2.0384,1.9797,1.9527,1.9479,1.9066,1.8907,1.8891,1.8797,1.8781,1.8781,1.8781,1.9112,1.9749,2.1504,2.2938,2.4102,2.4152,2.4202,2.4202,1.4739,1.469,1.4642,1.4413,1.4606,1.4932,1.5366,1.5608,1.5789,1.5873,1.6079,1.6211,1.6211,1.6018,1.5885,1.5885,1.5885,1.5873,1.5825,1.5415,1.5137,1.504,1.4606,1.4352,1.4292,1.4292,1.4183,1.3978,1.393,1.3688,0.0,0.0,0.0,0.0,0.0,0.0,1.4171,1.4256,1.4292,1.4292,1.4292,1.4292,1.4388,1.4962,1.5201,1.5201,1.5201,1.4819,1.4292,1.4292,1.4292,1.4292,1.4292,1.4292,1.4292,1.4292,1.4292,1.4292,1.4292,1.4292,1.4292,1.4292,1.4292,1.4292,1.4292,1.4292,1.4292,1.4292,1.4292,1.4292,1.4292,1.4123,1.3954,1.3918,1.3688,1.3592,1.3809,1.4026,1.4099,1.393,1.4568,1.4545,1.3298,1.4391,1.4799,1.3758,1.4485,1.5484,1.6678,1.673,1.7724,1.9844,2.021,2.0559,2.0925,2.0861,2.0686,2.04,2.0273,2.0067,1.9813,1.9431,1.9272,1.9256,1.8955,1.8781,1.8781,1.8781,1.9444,2.0636,2.2388,2.3217,2.3538,2.4003,2.4202,2.4202,1.5149,1.5016,1.492,1.492,1.5028,1.5209,1.5463,1.5716,1.5885,1.5885,1.5885,1.5873,1.5873,1.5885,1.5885,1.5885,1.5885,1.5885,1.5885,1.5523,1.5246,1.5113,1.4727,1.4449,1.4304,1.4292,1.4232,1.4111,1.3833,1.3568,0.0,0.0,0.0,0.0,0.0,1.393,0.0,1.4292,1.4292,1.4292,1.4292,1.4292,1.4388,1.5105,1.5391,1.5439,1.5866,1.5771,1.5439,1.501,1.4867,1.4867,1.4867,1.4627,1.4292,1.4292,1.4292,1.4292,1.4292,1.4292,1.4292,1.4292,1.4292,1.4292,1.4292,1.4292,1.4292,1.4292,1.4292,1.4292,1.4292,1.4195,1.4063,1.393,1.4039,1.4135,1.4111,1.422,1.4304,1.4328,1.4516,1.4266,1.3375,1.3997,1.4289,1.3907,1.445,1.5421,1.6878,1.6818,1.7651,1.9844,2.021,2.0559,2.0925,2.0925,2.0845,2.067,2.048,2.021,1.9893,1.9574,1.9272,1.9082,1.8861,1.8781,1.8859,1.9507,2.0581,2.191,2.2909,2.3488,2.3786,2.4102,2.4202,2.4202,1.5475,1.533,1.5234,1.539,1.5463,1.5499,1.5499,1.5716,1.5885,1.5885,1.5716,1.5584,1.5584,1.5765,1.5885,1.5885,1.5885,1.5885,1.5885,1.5596,1.5318,1.5113,1.4799,1.4521,1.4304,1.4292,1.4268,1.4208,1.3797,1.3544,1.3423,0.0,0.0,0.0,1.3411,1.3857,1.4292,1.4292,1.4292,1.4292,1.4292,1.4292,1.4388,1.5296,1.5676,1.5771,1.6527,1.6904,1.6951,1.615,1.5771,1.5629,1.5439,1.5105,1.4771,1.4771,1.4771,1.4771,1.4771,1.4771,1.4771,1.4771,1.4771,1.4723,1.458,1.4532,1.4484,1.434,1.4292,1.4292,1.4292,1.4292,1.4244,1.4099,1.4437,1.4678,1.457,1.4558,1.4594,1.4702,1.434,1.393,1.3556,1.3701,1.396,1.4265,1.4505,1.5341,1.6964,1.6892,1.7752,1.9733,2.0098,2.0448,2.0813,2.0877,2.0925,2.0925,2.0559,2.0241,2.0004,1.9606,1.9209,1.8939,1.8939,1.9033,1.9284,2.0504,2.1713,2.2819,2.3327,2.3786,2.4202,2.4202,2.4202,2.4202,1.5535,1.5475,1.539,1.5185,1.5342,1.5499,1.5499,1.5716,1.5885,1.5885,1.5861,1.5849,1.5849,1.5873,1.5885,1.5885,1.5885,1.5885,1.5885,1.5415,1.5137,1.5113,1.4606,1.4328,1.4292,1.4292,1.4183,1.3942,1.3894,1.3628,1.3113,1.335,1.3568,1.3797,1.3845,1.4026,1.4292,1.4292,1.4292,1.4292,1.4292,1.4292,1.4436,1.5913,1.6494,1.6574,1.7326,1.8025,1.8504,1.7731,1.7044,1.6339,1.5629,1.5866,1.6386,1.6386,1.6386,1.6386,1.6386,1.6386,1.6386,1.6386,1.6386,1.6197,1.5486,1.5296,1.5105,1.4436,1.4292,1.4292,1.4292,1.4292,1.4377,1.4606,1.469,1.4871,1.5318,1.539,1.5221,1.4775,1.4666,1.434,1.3592,1.3532,1.3804,1.4507,1.4578,1.5115,1.6222,1.6917,1.7934,1.9399,1.9781,2.0132,2.0432,2.0766,2.0925,2.0925,2.0559,2.0369,2.0321,1.9669,1.9399,1.932,1.932,1.9781,2.0586,2.1504,2.2212,2.2886,2.379,2.4152,2.4202,2.4202,2.4202,2.4202,1.5523,1.5499,1.5511,1.5572,1.5535,1.5547,1.5716,1.5825,1.5885,1.5885,1.5753,1.5716,1.5873,1.5753,1.5716,1.5873,1.5885,1.5825,1.5668,1.5318,1.504,1.4883,1.4509,1.4292,1.4292,1.4292,1.4244,1.4135,1.3978,1.3797,1.3592,1.3544,1.3652,1.3906,1.3906,1.4051,1.4292,1.4292,1.4292,1.4292,1.4292,1.4292,1.4484,1.6008,1.6292,1.6055,1.7264,1.7606,1.7419,1.7138,1.7138,1.7185,1.6889,1.6716,1.6588,1.6588,1.6588,1.6588,1.6588,1.6588,1.6588,1.6588,1.6588,1.6541,1.6197,1.5771,1.5343,1.501,1.4627,1.4436,1.4867,1.458,1.4328,1.4449,1.4739,1.4968,1.5028,1.5161,1.5125,1.4763,1.457,1.4424,1.4385,1.3979,1.3997,1.4559,1.4186,1.4799,1.6768,1.6737,1.7594,1.9638,1.9845,2.013,2.0702,2.0845,2.0925,2.0925,2.0782,2.0591,2.0384,2.0114,1.9876,1.9718,2.0054,2.07,2.1521,2.2195,2.2944,2.3668,2.4029,2.4202,2.4202,2.4202,2.4202,2.4202,1.5499,1.5559,1.5668,1.5861,1.5741,1.568,1.5861,1.5825,1.5777,1.5777,1.5475,1.5427,1.5849,1.5656,1.5572,1.5765,1.5849,1.5741,1.5403,1.5209,1.4992,1.4727,1.4449,1.4292,1.4292,1.4292,1.4292,1.4292,1.4111,1.3978,1.3906,1.3713,1.3725,1.3906,1.399,1.4123,1.4292,1.4292,1.4292,1.4292,1.4292,1.4292,1.4436,1.5771,1.5866,1.5581,1.6889,1.7044,1.6588,1.6588,1.6951,1.7419,1.7638,1.7326,1.6951,1.7185,1.7091,1.6904,1.6904,1.6763,1.6588,1.6588,1.6588,1.6541,1.6292,1.5818,1.5343,1.5105,1.4675,1.4436,1.4962,1.4627,1.4328,1.4401,1.4811,1.504,1.4859,1.5065,1.5101,1.4751,1.4545,1.4604,1.5071,1.4671,1.4558,1.5052,1.465,1.5166,1.6873,1.688,1.771,1.9701,1.9957,2.0257,2.0766,2.0861,2.0925,2.0925,2.0813,2.0639,2.0384,2.0438,2.031,2.0068,2.0768,2.1506,2.2173,2.2716,2.3435,2.4202,2.4202,2.4202,2.4202,2.4202,2.4202,2.4202,1.5499,1.5704,1.5885,1.5885,1.5885,1.5885,1.5885,1.5668,1.5499,1.5499,1.5052,1.5028,1.5801,1.5656,1.5499,1.5499,1.5741,1.5668,1.5149,1.5113,1.4992,1.4727,1.4449,1.4292,1.4292,1.4292,1.4292,1.4292,1.4292,1.4159,1.3906,1.3906,1.3906,1.3918,1.4171,1.4292,1.4292,1.4292,1.4292,1.4292,1.4292,1.4292,1.4388,1.5153,1.5391,1.5534,1.6292,1.6636,1.6588,1.6588,1.6636,1.673,1.7451,1.7684,1.7824,1.855,1.8257,1.7684,1.7684,1.7138,1.6588,1.6588,1.6588,1.64,1.5581,1.5391,1.5201,1.4436,1.4292,1.4292,1.4292,1.4292,1.4389,1.4666,1.4932,1.5113,1.5101,1.533,1.5306,1.4775,1.4714,1.4887,1.5369,1.5378,1.5591,1.6113,1.6439,1.6481,1.6204,1.7443,1.8575,1.9383,2.0035,2.0384,2.04,2.075,2.0925,2.0925,2.0559,2.04,2.0434,2.0639,2.0606,2.0434,2.151,2.2175,2.2518,2.307,2.3637,2.4202,2.4202,2.4202,2.4202,2.4202,2.4202,2.4202,1.5234,1.5584,1.5885,1.5885,1.5885,1.5885,1.5885,1.5813,1.5765,1.5765,1.5463,1.5342,1.5596,1.539,1.5378,1.5728,1.5837,1.5668,1.5149,1.5113,1.4908,1.4449,1.434,1.4292,1.4292,1.4292,1.4292,1.4292,1.4292,1.4256,1.4171,1.4171,1.4171,1.4171,1.4256,1.4292,1.4292,1.4292,1.4292,1.4292,1.4292,1.4292,1.4388,1.5105,1.5105,1.4771,1.5534,1.5439,1.5105,1.5629,1.5439,1.5248,1.6527,1.6951,1.6998,1.7232,1.7138,1.6951,1.6951,1.6777,1.6588,1.6588,1.6588,1.6541,1.6292,1.5771,1.5343,1.5105,1.4627,1.4436,1.4962,1.4627,1.4328,1.4413,1.4666,1.4775,1.4582,1.5221,1.5555,1.5236,1.5678,1.6259,1.6904,1.6527,1.6485,1.7165,1.6847,1.6682,1.6948,1.7725,1.8682,1.9701,2.0162,2.0512,2.075,2.0861,2.0925,2.0925,2.0813,2.0953,2.1291,2.1328,2.1344,2.1358,2.2397,2.2765,2.2585,2.3538,2.4053,2.4202,2.4202,2.4202,2.4202,2.4202,2.4202,2.4202,1.5113,1.5535,1.5885,1.5885,1.5885,1.5885,1.5885,1.5801,1.5741,1.5741,1.5427,1.5246,1.5342,1.5113,1.5137,1.5559,1.568,1.5523,1.4992,1.5052,1.4859,1.4316,1.4292,1.4292,1.4292,1.4292,1.4292,1.4292,1.4292,1.4292,1.4292,1.4292,1.4292,1.4292,1.4292,1.4292,1.4292,1.4292,1.4292,1.4292,1.4292,1.4292,1.434,1.4819,1.4723,1.434,1.4819,1.4675,1.4388,1.4819,1.4675,1.4484,1.5439,1.5724,1.5866,1.6447,1.6469,1.6313,1.6313,1.6169,1.6069,1.6069,1.6069,1.6077,1.6245,1.5612,1.5153,1.5724,1.5248,1.4962,1.5724,1.5486,1.5153,1.5153,1.5396,1.5486,1.5191,1.5783,1.6139,1.5906,1.6292,1.6961,1.7816,1.7352,1.7384,1.8254,1.7774,1.7623,1.8057,1.8278,1.8865,1.986,2.0337,2.0702,2.0925,2.0925,2.0925,2.0925,2.113,2.1471,2.203,2.2232,2.2182,2.208,2.3188,2.3338,2.2887,2.3786,2.4202,2.4202,2.4202,2.4202,2.4202,2.4202,2.4202,2.4202,1.5125,1.5535,1.5885,1.5885,1.5885,1.5885,1.5885,1.568,1.5523,1.5523,1.5101,1.4883,1.5113,1.4908,1.4835,1.5089,1.5354,1.5294,1.4799,1.498,1.4871,1.4352,1.4304,1.4292,1.4292,1.4292,1.4292,1.4292,1.4292,1.4292,1.4292,1.4292,1.4292,1.4292,1.4292,1.4292,1.4292,1.4292,1.4292,1.4292,1.4292,1.4292,1.4292,1.4292,1.4292,1.4292,1.4292,1.4292,1.4292,1.4292,1.4292,1.4292,1.4292,1.4292,1.458,1.6008,1.6128,1.5709,1.5709,1.5445,1.5101,1.5151,1.5202,1.5381,1.575,1.5154,1.4929,1.636,1.6048,1.575,1.6522,1.6602,1.6588,1.6588,1.6826,1.691,1.663,1.6874,1.6944,1.6711,1.6744,1.7203,1.821,1.8003,1.8239,1.9304,1.9034,1.8986,1.9447,1.9056,1.9177,1.9941,2.061,2.0976,2.1027,2.1027,2.1027,2.1027,2.1522,2.203,2.2568,2.307,2.3038,2.2619,2.3737,2.3836,2.3338,2.3954,2.4202,2.4202,2.4202,2.4202,2.4202,2.4202,2.4202,2.4202,1.5366,1.5668,1.5885,1.5885,1.5885,1.5885,1.5885,1.5837,1.5801,1.5801,1.5692,1.5559,1.5415,1.5173,1.504,1.5101,1.5354,1.5451,1.5318,1.5185,1.4956,1.463,1.4413,1.4292,1.4292,1.4292,1.4292,1.4292,1.4292,1.4292,1.4292,1.4292,1.4292,1.4292,1.4292,1.4292,1.4292,1.4292,1.4292,1.4292,1.4292,1.4292,1.4292,1.4292,1.4292,1.4292,1.4292,1.4292,1.4292,1.4292,1.4292,1.4292,1.4292,1.4292,1.4388,1.4723,1.4874,1.4949,1.4949,1.5058,1.5253,1.596,1.655,1.6873,1.6358,1.654,1.6917,1.7274,1.703,1.6766,1.6958,1.6776,1.6588,1.6588,1.6644,1.6672,1.6602,1.7149,1.7493,1.7466,1.8221,1.8846,1.9067,1.9052,1.9131,1.9368,1.9034,1.9172,1.995,2.0166,2.0427,2.09,2.1293,2.1725,2.2131,2.2131,2.2131,2.2131,2.2232,2.2568,2.312,2.322,2.322,2.3138,2.3886,2.3836,2.3338,2.3954,2.4202,2.4202,2.4202,2.4202,2.4202,2.4202,2.4202,2.4202,1.5475,1.5716,1.5885,1.5885,1.5885,1.5885,1.5885,1.5885,1.5885,1.5885,1.5789,1.5608,1.5354,1.5197,1.5113,1.5113,1.5125,1.5137,1.5137,1.5004,1.4811,1.4533,1.4377,1.4292,1.4292,1.4292,1.4292,1.4292,1.4292,1.4292,1.4292,1.4292,1.4292,1.4292,1.4292,1.4292,1.4292,1.4292,1.4292,1.4292,1.4292,1.4292,1.4292,1.4292,1.4292,1.4292,1.4292,1.4292,1.4292,1.4292,1.4532,1.4819,1.4819,1.5057,1.5343,1.5343,1.5119,1.4946,1.5382,1.5771,1.6278,1.7101,1.7457,1.7576,1.7616,1.747,1.7611,1.8493,1.8179,1.7872,1.8126,1.801,1.7846,1.7636,1.7621,1.7621,1.7621,1.7932,1.8272,1.8473,1.9005,1.9495,1.9812,1.9942,2.0054,2.02,2.013,2.0317,2.1002,2.1221,2.1374,2.1559,2.1879,2.23,2.2775,2.2775,2.2791,2.2887,2.2887,2.3188,2.3687,2.3687,2.3687,2.3737,2.4053,2.4003,2.3737,2.4053,2.4202,2.4202,2.4202,2.4202,2.4202,2.4202,2.4202,2.4202,1.5487,1.5716,1.5885,1.5885,1.5885,1.5885,1.5885,1.5885,1.5885,1.5885,1.5692,1.5451,1.5197,1.5161,1.5149,1.5113,1.4871,1.4763,1.4883,1.4787,1.463,1.4425,1.434,1.4292,1.4292,1.4292,1.4292,1.4292,1.4292,1.4292,1.4292,1.4292,1.4292,1.4292,1.4292,1.4292,1.4292,1.4292,1.4292,1.4292,1.4292,1.4388,1.4436,1.434,1.4388,1.4436,1.434,1.4292,1.4292,1.4292,1.4771,1.5391,1.5296,1.5866,1.6588,1.655,1.5944,1.5455,1.6349,1.7076,1.7726,1.8265,1.8235,1.8211,1.8825,1.8209,1.7891,1.9367,1.9185,1.8852,1.9223,1.9257,1.9146,1.8845,1.8735,1.8689,1.8781,1.8781,1.8955,1.9462,1.9558,1.9846,2.047,2.0769,2.0964,2.1197,2.1385,2.1672,2.2083,2.2152,2.227,2.2438,2.26,2.2945,2.3427,2.3427,2.3528,2.3616,2.3616,2.3867,2.4385,2.4212,2.4194,2.4293,2.4121,2.4102,2.4202,2.4202,2.4202,2.4202,2.4202,2.4202,2.4202,2.4202,2.4202,2.4202,1.5451,1.5716,1.5885,1.5885,1.5885,1.5885,1.5885,1.5885,1.5885,1.5885,1.5849,1.5728,1.5463,1.5439,1.5354,1.5125,1.4871,1.5004,1.5668,1.5089,1.4799,1.498,1.4545,1.4292,1.4292,1.4292,1.4292,1.4292,1.4292,1.4292,1.4292,1.4292,1.4292,1.4292,1.4292,1.4292,1.4292,1.4292,1.4292,1.4292,1.4292,1.4675,1.5153,1.4532,1.4675,1.5153,1.4532,1.4292,1.4292,1.4292,1.4771,1.5296,1.4675,1.5439,1.6536,1.6174,1.6038,1.6236,1.71,1.8303,1.9153,1.8527,1.9391,2.0051,1.8806,1.8904,1.9155,1.8735,1.8826,1.8985,1.8754,1.8517,1.8468,1.8736,1.8257,1.8071,1.8735,1.8781,1.9094,1.998,2.034,2.0638,2.1048,2.1526,2.1656,2.1213,2.1385,2.1817,2.262,2.3022,2.3559,2.4321,2.3919,2.4132,2.5045,2.5063,2.5027,2.5076,2.5076,2.5127,2.5161,2.4302,2.4209,2.4666,2.3781,2.3737,2.4202,2.4202,2.4202,2.4202,2.4202,2.4202,2.4202,2.4202,2.4202,2.4202,1.568,1.5813,1.5885,1.5885,1.5885,1.5885,1.5885,1.5885,1.5885,1.5885,1.5885,1.5741,1.533,1.5535,1.5487,1.4944,1.492,1.5077,1.5439,1.4859,1.4545,1.4666,1.4425,1.4292,1.4292,1.4292,1.4292,1.4292,1.4292,1.4292,1.4292,1.4292,1.4292,1.4292,1.4292,1.4292,1.4292,1.4292,1.4292,1.434,1.4723,1.5105,1.5391,1.5486,1.5486,1.5391,1.5486,1.501,1.4364,1.4933,1.5233,1.5369,1.5187,1.5901,1.6759,1.6607,1.6828,1.7208,1.7333,1.8508,1.9465,1.8632,1.9177,1.9653,1.8641,1.8556,1.8692,1.8447,1.857,1.8869,1.9299,1.9063,1.9126,2.0079,1.9625,1.929,1.9857,1.9936,2.0162,2.0783,2.1153,2.1426,2.1445,2.2211,2.246,2.1912,2.2255,2.2885,2.3823,2.377,2.4107,2.5087,2.5029,2.5138,2.5414,2.5267,2.5267,2.5362,2.4736,2.4788,2.5362,2.4591,2.4445,2.4776,2.4321,2.4154,2.4202,2.4202,2.4202,2.4202,2.4202,2.4202,2.4202,2.4202,2.4202,2.4238,1.5704,1.5801,1.5885,1.5885,1.5885,1.5885,1.5885,1.5885,1.5885,1.5885,1.5885,1.5716,1.5246,1.5559,1.5535,1.4871,1.4992,1.5113,1.5113,1.4666,1.4389,1.4389,1.4328,1.4292,1.4292,1.4292,1.4292,1.4292,1.4292,1.4292,1.4292,1.4292,1.4292,1.4292,1.4292,1.4292,1.4292,1.4292,1.4292,1.434,1.4914,1.543,1.5817,1.5987,1.5953,1.5803,1.5987,1.5347,1.4522,1.5254,1.557,1.5577,1.565,1.6304,1.7065,1.6987,1.7374,1.774,1.7554,1.8408,1.9257,1.8579,1.8654,1.8782,1.8262,1.7981,1.7922,1.8262,1.8527,1.8985,2.0015,1.9899,2.0021,2.1033,2.0619,2.0331,2.0666,2.084,2.1105,2.1665,2.1976,2.2156,2.2097,2.2937,2.3323,2.2857,2.3329,2.4011,2.4886,2.4584,2.4749,2.5637,2.5911,2.5911,2.5656,2.554,2.554,2.5656,2.4739,2.4792,2.5656,2.495,2.4751,2.4922,2.471,2.4436,2.4202,2.4202,2.4202,2.4202,2.4202,2.4202,2.4202,2.4202,2.4202,2.4257,1.5161,1.5559,1.5885,1.5885,1.5885,1.5885,1.5885,1.5885,1.5885,1.5885,1.5885,1.5777,1.5499,1.5511,1.5403,1.5101,1.5101,1.5113,1.5113,1.4847,1.469,1.469,1.4437,1.4292,1.4292,1.4292,1.4292,1.4292,1.4292,1.4292,1.4292,1.4292,1.4292,1.4292,1.4292,1.4292,1.4292,1.4292,1.4292,1.4292,1.434,1.5403,1.6808,1.5099,1.5499,1.676,1.5051,1.4558,1.469,1.4752,1.5394,1.6021,1.5368,1.6173,1.7313,1.6943,1.7029,1.7437,1.8094,1.8422,1.8475,1.8422,1.8408,1.8237,1.7463,1.745,1.7713,1.7989,1.8812,1.978,2.0616,2.0735,2.0671,2.0351,2.0044,1.9917,2.0201,2.0623,2.1349,2.2562,2.2717,2.2846,2.3135,2.3737,2.4049,2.3819,2.4365,2.4853,2.5307,2.5674,2.6059,2.6481,2.6205,2.6186,2.6499,2.6482,2.6482,2.6499,2.6445,2.6445,2.6481,2.5559,2.5217,2.5307,2.4358,2.4065,2.4202,2.4202,2.4202,2.4202,2.4202,2.4202,2.4202,2.4202,2.4202,2.4202,1.5354,1.5511,1.5644,1.5644,1.5777,1.5885,1.5885,1.5885,1.5885,1.5885,1.5885,1.5789,1.5523,1.5644,1.5572,1.5149,1.5258,1.5282,1.5113,1.5016,1.4811,1.4473,1.4352,1.4292,1.4292,1.4292,1.4292,1.4292,1.4292,1.4292,1.4292,1.4292,1.4292,1.4292,1.4292,1.4292,1.4292,1.4292,1.4292,1.4364,1.5006,1.5564,1.6027,1.6011,1.5997,1.604,1.5963,1.545,1.4812,1.5594,1.5707,1.548,1.5397,1.5754,1.6253,1.6433,1.658,1.6759,1.7219,1.7618,1.7755,1.7206,1.7605,1.7859,1.6867,1.6829,1.7313,1.8209,1.8626,1.9487,2.1587,2.131,2.1048,2.1999,2.1346,2.0982,2.1669,2.1878,2.232,2.3154,2.3505,2.3574,2.332,2.4072,2.439,2.3923,2.4378,2.4995,2.5711,2.6133,2.6426,2.6591,2.6426,2.6426,2.6591,2.6245,2.6245,2.6591,2.5861,2.5861,2.6591,2.5864,2.5631,2.5711,2.5099,2.4751,2.4569,2.4312,2.4202,2.4202,2.4202,2.4202,2.4238,2.4496,2.4587,2.4661,1.5487,1.5499,1.5523,1.5608,1.5765,1.5885,1.5885,1.5885,1.5885,1.5885,1.5885,1.5789,1.5523,1.5656,1.5596,1.5149,1.5354,1.5427,1.5246,1.5234,1.4992,1.4449,1.434,1.434,1.4425,1.434,1.434,1.4425,1.434,1.4292,1.4292,1.4292,1.4292,1.4292,1.4292,1.4292,1.4304,1.4389,1.4425,1.4497,1.5157,1.5611,1.5892,1.6162,1.61,1.5905,1.6268,1.578,1.5067,1.5945,1.584,1.539,1.5559,1.562,1.5692,1.6054,1.6151,1.6199,1.6392,1.6807,1.7072,1.6557,1.6993,1.7414,1.6992,1.7064,1.7694,1.9299,1.9626,2.0275,2.2485,2.2165,2.1778,2.2529,2.2016,2.171,2.2376,2.2606,2.2952,2.3615,2.3987,2.4108,2.3817,2.4408,2.4732,2.4555,2.4877,2.5359,2.6133,2.6426,2.6591,2.6591,2.6591,2.6591,2.6591,2.619,2.619,2.6591,2.5734,2.5806,2.6591,2.619,2.5973,2.5984,2.5598,2.5142,2.4757,2.4514,2.4404,2.4404,2.4532,2.4587,2.4624,2.4918,2.4977,2.5051,1.5451,1.5499,1.5584,1.5837,1.5885,1.5885,1.5885,1.5885,1.5885,1.5885,1.5885,1.5789,1.5535,1.5499,1.5403,1.5137,1.5354,1.5499,1.5499,1.5499,1.527,1.4739,1.4449,1.4437,1.4714,1.4449,1.4437,1.4714,1.4437,1.4292,1.4292,1.4292,1.4292,1.4292,1.4304,1.4304,1.4316,1.4594,1.4714,1.4714,1.4714,1.5519,1.6613,1.522,1.5595,1.6639,1.5503,1.5282,1.5499,1.5499,1.568,1.5885,1.5897,1.5897,1.5897,1.5897,1.5897,1.5897,1.5897,1.6091,1.6356,1.6634,1.6706,1.6974,1.7896,1.8284,1.9139,2.1323,2.2029,2.2448,2.3158,2.3288,2.2798,2.1428,2.1576,2.1921,2.2019,2.2411,2.3059,2.4097,2.4202,2.4367,2.4739,2.4794,2.5106,2.5947,2.6021,2.6205,2.6573,2.6591,2.6591,2.6591,2.6591,2.6591,2.6591,2.6591,2.6591,2.6591,2.6591,2.6591,2.6591,2.6591,2.6353,2.6002,2.5598,2.5212,2.4794,2.4794,2.4794,2.4831,2.5216,2.5414,2.5414,2.5381,2.5381,2.5433,1.5487,1.5499,1.5523,1.5608,1.5765,1.5885,1.5885,1.5885,1.5885,1.5885,1.5885,1.5861,1.5777,1.5777,1.5741,1.5656,1.5728,1.5692,1.5511,1.5499,1.5342,1.5004,1.4908,1.4908,1.4992,1.4727,1.463,1.4714,1.4437,1.4292,1.4292,1.4292,1.4292,1.4304,1.4509,1.4485,1.4316,1.4594,1.4714,1.4739,1.492,1.5119,1.5319,1.5287,1.5289,1.5332,1.5384,1.5439,1.5523,1.5716,1.5825,1.5922,1.6103,1.6175,1.6223,1.6404,1.6585,1.673,1.673,1.6791,1.6827,1.673,1.6706,1.6918,1.7785,1.8229,1.9085,2.1194,2.1836,2.2107,2.2573,2.2149,2.1338,2.0271,2.0581,2.114,2.1678,2.2546,2.3412,2.4084,2.4459,2.4647,2.4776,2.5289,2.5764,2.6002,2.6278,2.6463,2.6591,2.6591,2.6591,2.6591,2.6591,2.6591,2.6591,2.6591,2.6591,2.6591,2.6591,2.6591,2.6591,2.6591,2.6518,2.6371,2.6021,2.5764,2.5635,2.5359,2.5197,2.5197,2.5378,2.5414,2.5451,2.5727,2.5837,2.5874,1.5632,1.5572,1.5535,1.5632,1.5789,1.5885,1.5885,1.5885,1.5885,1.5885,1.5885,1.5849,1.5741,1.5825,1.5849,1.5741,1.5825,1.5825,1.5668,1.5656,1.5584,1.5427,1.5415,1.5366,1.527,1.4908,1.4775,1.4871,1.4485,1.4352,1.4461,1.4461,1.4461,1.4473,1.4751,1.4727,1.4485,1.4871,1.5028,1.504,1.5197,1.5161,1.5065,1.5378,1.5306,1.5077,1.5499,1.5656,1.568,1.5837,1.5958,1.6066,1.6235,1.6368,1.6501,1.6658,1.6815,1.6911,1.6803,1.6767,1.673,1.6573,1.6622,1.6918,1.7785,1.8266,1.8987,2.0659,2.1117,2.1333,2.1926,2.1317,2.0779,2.0685,2.0834,2.1302,2.2198,2.287,2.3591,2.4322,2.4629,2.4904,2.5216,2.5727,2.6076,2.6241,2.6444,2.6591,2.6591,2.6591,2.6591,2.6591,2.6591,2.6591,2.6591,2.6591,2.6591,2.6591,2.6591,2.6591,2.6591,2.6591,2.6591,2.6573,2.6186,2.6021,2.6002,2.5764,2.5653,2.5672,2.5784,2.5858,2.5876,2.6168,2.626,2.6296,1.5849,1.5692,1.5608,1.5849,1.591,1.5922,1.5897,1.591,1.5922,1.5897,1.5885,1.5801,1.5559,1.5741,1.5801,1.5559,1.5777,1.5934,1.5958,1.5934,1.5922,1.5922,1.5897,1.5777,1.5535,1.504,1.4908,1.5149,1.463,1.4497,1.4751,1.4751,1.4751,1.4763,1.5028,1.498,1.4751,1.5246,1.5463,1.5463,1.5463,1.5475,1.5499,1.5523,1.5523,1.5535,1.5801,1.591,1.5934,1.5958,1.6115,1.632,1.6344,1.6525,1.6742,1.6742,1.6754,1.6706,1.6404,1.6332,1.6344,1.632,1.6513,1.6918,1.7896,1.8298,1.8824,1.9857,2.0143,2.0485,2.1217,2.0991,2.0976,2.2078,2.2006,2.2114,2.3123,2.3356,2.3731,2.467,2.4812,2.5176,2.5947,2.6039,2.6223,2.6554,2.6591,2.6591,2.6591,2.6591,2.6591,2.6591,2.6591,2.6591,2.6591,2.6591,2.6591,2.6591,2.6591,2.6591,2.6591,2.6591,2.6591,2.6573,2.6188,2.6076,2.6076,2.6076,2.6076,2.6113,2.6444,2.6591,2.6591,2.6591,2.6591,2.6591,1.5885,1.5849,1.5825,1.5885,1.6054,1.6127,1.5922,1.6066,1.6127,1.5922,1.5885,1.5861,1.5813,1.5861,1.5861,1.5813,1.6042,1.6284,1.6513,1.632,1.6199,1.6199,1.6006,1.5861,1.5801,1.5487,1.5354,1.5415,1.5089,1.4968,1.5028,1.5028,1.5028,1.504,1.5294,1.5149,1.4739,1.5052,1.5197,1.5197,1.5197,1.5318,1.5523,1.5728,1.568,1.5535,1.5801,1.6018,1.6223,1.6453,1.6561,1.6646,1.6851,1.696,1.7008,1.7008,1.7153,1.7213,1.6742,1.6754,1.6863,1.6658,1.6658,1.6918,1.773,1.8242,1.8721,1.9598,2.061,2.1204,2.0881,2.1338,2.1782,2.1846,2.2196,2.2621,2.3049,2.3634,2.4199,2.4739,2.5051,2.5488,2.5966,2.6261,2.6481,2.6591,2.6591,2.6591,2.6591,2.6591,2.6591,2.6591,2.6591,2.6591,2.6591,2.6591,2.6591,2.6591,2.6591,2.6591,2.6591,2.6591,2.6591,2.6591,2.6499,2.6444,2.6444,2.6444,2.6444,2.6463,2.6554,2.6591,2.6591,2.6591,2.6591,2.6591,1.5885,1.5885,1.5885,1.5885,1.6103,1.6187,1.5934,1.6115,1.6187,1.5922,1.5885,1.5885,1.5885,1.5885,1.5885,1.5885,1.6018,1.6151,1.6308,1.6175,1.6091,1.6091,1.5958,1.5885,1.5885,1.5753,1.562,1.5499,1.5234,1.5173,1.5294,1.5294,1.5294,1.5306,1.5572,1.5463,1.5113,1.5366,1.5475,1.5475,1.5475,1.5487,1.5523,1.5789,1.5728,1.5535,1.5801,1.6054,1.6308,1.6453,1.667,1.6911,1.7044,1.7177,1.7274,1.7274,1.737,1.7394,1.6996,1.6984,1.7032,1.6767,1.6791,1.6964,1.7279,1.7566,1.8052,1.8961,1.9906,2.0741,2.1459,2.1978,2.2521,2.3207,2.3491,2.3774,2.4137,2.4543,2.4937,2.5289,2.558,2.5874,2.6278,2.6463,2.6591,2.6591,2.6591,2.6591,2.6591,2.6591,2.6591,2.6591,2.6591,2.6591,2.6591,2.6591,2.6591,2.6591,2.6591,2.6591,2.6591,2.6591,2.6591,2.6591,2.6591,2.6591,2.6591,2.6591,2.6591,2.6591,2.6591,2.6591,2.6591,2.6591,2.6591,2.6591,1.5885,1.5885,1.5885,1.5885,1.6103,1.6187,1.5934,1.6115,1.6187,1.5922,1.5885,1.5885,1.5885,1.5885,1.591,1.5946,1.5958,1.5994,1.6091,1.6006,1.5982,1.603,1.5934,1.5885,1.5885,1.5885,1.5777,1.5572,1.5354,1.5354,1.5572,1.5572,1.5572,1.5572,1.5789,1.5741,1.5511,1.5728,1.5825,1.5825,1.5825,1.5716,1.5596,1.5813,1.5753,1.5596,1.5813,1.6091,1.6368,1.6453,1.6791,1.7165,1.7165,1.731,1.7479,1.7479,1.7479,1.7418,1.7165,1.7129,1.7092,1.6839,1.696,1.7105,1.6887,1.7008,1.744,1.8358,1.9185,2.0302,2.2292,2.2883,2.3564,2.5111,2.5094,2.5001,2.542,2.547,2.5561,2.5966,2.6076,2.6206,2.6554,2.6591,2.6591,2.6591,2.6591,2.6591,2.6591,2.6591,2.6591,2.6591,2.6591,2.6591,2.6591,2.6591,2.6591,2.6591,2.6591,2.6591,2.6591,2.6591,2.6591,2.6591,2.6591,2.6591,2.6591,2.6591,2.6591,2.6591,2.6591,2.6591,2.6591,2.6591,2.6591,2.6591,1.5885,1.5885,1.5885,1.5885,1.6103,1.6187,1.5934,1.6115,1.6187,1.5922,1.5885,1.5885,1.5885,1.5885,1.5982,1.6211,1.6223,1.6429,1.6899,1.6501,1.6356,1.6585,1.6139,1.5885,1.5885,1.5885,1.5873,1.5837,1.5801,1.5801,1.5837,1.5837,1.5837,1.5837,1.5873,1.5741,1.5499,1.5535,1.5547,1.5547,1.5547,1.5668,1.5837,1.5873,1.5861,1.5837,1.5873,1.6211,1.6718,1.7165,1.737,1.743,1.743,1.7455,1.7479,1.7479,1.7479,1.7418,1.7165,1.7261,1.737,1.7105,1.7237,1.7418,1.7382,1.7406,1.7723,1.8642,1.9943,2.1356,2.2958,2.4361,2.5537,2.6282,2.6044,2.5823,2.5929,2.5635,2.5561,2.5966,2.6333,2.6518,2.6591,2.6591,2.6591,2.6591,2.6591,2.6591,2.6591,2.6591,2.6591,2.6591,2.6591,2.6591,2.6591,2.6591,2.6591,2.6591,2.6591,2.6591,2.6591,2.6591,2.6591,2.6591,2.6591,2.6591,2.6591,2.6591,2.6591,2.6591,2.6591,2.6591,2.6591,2.6591,2.6591,2.6591,1.5885,1.5885,1.5885,1.5885,1.6115,1.6199,1.5934,1.6115,1.6187,1.5922,1.5885,1.5885,1.5885,1.6018,1.6223,1.6489,1.638,1.6392,1.6622,1.6284,1.6187,1.6453,1.6091,1.5958,1.6103,1.597,1.5885,1.5885,1.5885,1.5885,1.5885,1.5885,1.5885,1.5885,1.5885,1.5825,1.5716,1.5716,1.5716,1.5716,1.5716,1.5789,1.5885,1.5885,1.5885,1.5885,1.5885,1.6235,1.6742,1.6972,1.7237,1.7479,1.7479,1.7479,1.7479,1.7479,1.7479,1.7455,1.7346,1.7394,1.7455,1.7334,1.7394,1.7527,1.7672,1.7764,1.824,1.9781,2.1316,2.2846,2.4373,2.569,2.6333,2.5714,2.5659,2.5368,2.4446,2.4765,2.5397,2.6225,2.6481,2.6591,2.6591,2.6591,2.6591,2.6591,2.6591,2.6591,2.6591,2.6591,2.6591,2.6591,2.6591,2.6591,2.6591,2.6591,2.6591,2.6591,2.6591,2.6591,2.6591,2.6591,2.6591,2.6591,2.6591,2.6591,2.6591,2.6591,2.6591,2.6591,2.6591,2.6591,2.6591,2.6591,2.6591,2.6591]}]]